<?xml version="1.0" encoding="UTF-8" standalone="no" ?>
<gpx xmlns="http://www.topografix.com/GPX/1/1" xmlns:xsi="http://www.w3.org/2001/XMLSchema-instance" xsi:schemaLocation="http://www.topografix.com/GPX/1/1 http://www.topografix.com/GPX/1/1/gpx.xsd" version="1.1" creator="VisuGPX - https://www.visugpx.com">
  <metadata>
    <name>Souzay, de caves en vignes</name>
    <desc><![CDATA[Randonnée originale  passant par las sites troglodytiques proposée par Michel M.]]></desc>
  </metadata>
  <trk>
    <name><![CDATA[11/05/2012 14:14]]></name>
    <desc><![CDATA[]]></desc>
    <trkseg>
      <trkpt lat="47.23518" lon="-0.00575">
        <ele>38</ele>
        <time>2012-05-12T12:14:25.459Z</time>
      </trkpt>
      <trkpt lat="47.23522" lon="-0.00579">
        <ele>38</ele>
        <time>2012-05-12T12:14:48.459Z</time>
      </trkpt>
      <trkpt lat="47.23526" lon="-0.00584">
        <ele>37</ele>
        <time>2012-05-12T12:14:54.459Z</time>
      </trkpt>
      <trkpt lat="47.2353" lon="-0.00588">
        <ele>37</ele>
        <time>2012-05-12T12:14:57.459Z</time>
      </trkpt>
      <trkpt lat="47.23533" lon="-0.00592">
        <ele>36</ele>
        <time>2012-05-12T12:15:00.459Z</time>
      </trkpt>
      <trkpt lat="47.23538" lon="-0.00596">
        <ele>36</ele>
        <time>2012-05-12T12:15:05.459Z</time>
      </trkpt>
      <trkpt lat="47.23542" lon="-0.00599">
        <ele>36</ele>
        <time>2012-05-12T12:15:10.459Z</time>
      </trkpt>
      <trkpt lat="47.23545" lon="-0.00604">
        <ele>36</ele>
        <time>2012-05-12T12:15:15.459Z</time>
      </trkpt>
      <trkpt lat="47.23549" lon="-0.0061">
        <ele>36</ele>
        <time>2012-05-12T12:15:24.459Z</time>
      </trkpt>
      <trkpt lat="47.23552" lon="-0.00615">
        <ele>36</ele>
        <time>2012-05-12T12:15:29.459Z</time>
      </trkpt>
      <trkpt lat="47.23554" lon="-0.00622">
        <ele>35</ele>
        <time>2012-05-12T12:15:34.459Z</time>
      </trkpt>
      <trkpt lat="47.23556" lon="-0.00628">
        <ele>35</ele>
        <time>2012-05-12T12:15:38.459Z</time>
      </trkpt>
      <trkpt lat="47.23559" lon="-0.00635">
        <ele>35</ele>
        <time>2012-05-12T12:15:43.459Z</time>
      </trkpt>
      <trkpt lat="47.23562" lon="-0.00642">
        <ele>35</ele>
        <time>2012-05-12T12:15:48.459Z</time>
      </trkpt>
      <trkpt lat="47.23564" lon="-0.00647">
        <ele>35</ele>
        <time>2012-05-12T12:15:52.459Z</time>
      </trkpt>
      <trkpt lat="47.23567" lon="-0.00654">
        <ele>35</ele>
        <time>2012-05-12T12:15:57.459Z</time>
      </trkpt>
      <trkpt lat="47.2357" lon="-0.0066">
        <ele>34</ele>
        <time>2012-05-12T12:16:02.459Z</time>
      </trkpt>
      <trkpt lat="47.23572" lon="-0.00667">
        <ele>34</ele>
        <time>2012-05-12T12:16:07.459Z</time>
      </trkpt>
      <trkpt lat="47.23575" lon="-0.00674">
        <ele>34</ele>
        <time>2012-05-12T12:16:12.459Z</time>
      </trkpt>
      <trkpt lat="47.23577" lon="-0.00681">
        <ele>34</ele>
        <time>2012-05-12T12:16:17.459Z</time>
      </trkpt>
      <trkpt lat="47.2358" lon="-0.00688">
        <ele>34</ele>
        <time>2012-05-12T12:16:22.459Z</time>
      </trkpt>
      <trkpt lat="47.23582" lon="-0.00695">
        <ele>34</ele>
        <time>2012-05-12T12:16:27.459Z</time>
      </trkpt>
      <trkpt lat="47.23579" lon="-0.00702">
        <ele>34</ele>
        <time>2012-05-12T12:16:34.459Z</time>
      </trkpt>
      <trkpt lat="47.23574" lon="-0.00706">
        <ele>34</ele>
        <time>2012-05-12T12:16:38.459Z</time>
      </trkpt>
      <trkpt lat="47.23569" lon="-0.0071">
        <ele>34</ele>
        <time>2012-05-12T12:16:42.459Z</time>
      </trkpt>
      <trkpt lat="47.23564" lon="-0.00714">
        <ele>34</ele>
        <time>2012-05-12T12:16:46.459Z</time>
      </trkpt>
      <trkpt lat="47.23561" lon="-0.00719">
        <ele>34</ele>
        <time>2012-05-12T12:16:50.459Z</time>
      </trkpt>
      <trkpt lat="47.23558" lon="-0.00726">
        <ele>34</ele>
        <time>2012-05-12T12:16:56.459Z</time>
      </trkpt>
      <trkpt lat="47.23558" lon="-0.00733">
        <ele>34</ele>
        <time>2012-05-12T12:17:02.459Z</time>
      </trkpt>
      <trkpt lat="47.23559" lon="-0.00739">
        <ele>34</ele>
        <time>2012-05-12T12:17:07.459Z</time>
      </trkpt>
      <trkpt lat="47.23557" lon="-0.00746">
        <ele>34</ele>
        <time>2012-05-12T12:17:11.459Z</time>
      </trkpt>
      <trkpt lat="47.23557" lon="-0.00754">
        <ele>34</ele>
        <time>2012-05-12T12:17:16.459Z</time>
      </trkpt>
      <trkpt lat="47.23558" lon="-0.00761">
        <ele>34</ele>
        <time>2012-05-12T12:17:21.459Z</time>
      </trkpt>
      <trkpt lat="47.23559" lon="-0.00769">
        <ele>34</ele>
        <time>2012-05-12T12:17:26.459Z</time>
      </trkpt>
      <trkpt lat="47.2356" lon="-0.00776">
        <ele>34</ele>
        <time>2012-05-12T12:17:31.459Z</time>
      </trkpt>
      <trkpt lat="47.23562" lon="-0.00782">
        <ele>34</ele>
        <time>2012-05-12T12:17:37.459Z</time>
      </trkpt>
      <trkpt lat="47.23567" lon="-0.00786">
        <ele>34</ele>
        <time>2012-05-12T12:17:41.459Z</time>
      </trkpt>
      <trkpt lat="47.23572" lon="-0.00787">
        <ele>34</ele>
        <time>2012-05-12T12:17:44.459Z</time>
      </trkpt>
      <trkpt lat="47.23577" lon="-0.00789">
        <ele>34</ele>
        <time>2012-05-12T12:17:48.459Z</time>
      </trkpt>
      <trkpt lat="47.23582" lon="-0.00789">
        <ele>34</ele>
        <time>2012-05-12T12:17:52.459Z</time>
      </trkpt>
      <trkpt lat="47.23587" lon="-0.00791">
        <ele>32</ele>
        <time>2012-05-12T12:17:56.459Z</time>
      </trkpt>
      <trkpt lat="47.23591" lon="-0.00795">
        <ele>32</ele>
        <time>2012-05-12T12:18:01.459Z</time>
      </trkpt>
      <trkpt lat="47.23595" lon="-0.00801">
        <ele>32</ele>
        <time>2012-05-12T12:18:06.459Z</time>
      </trkpt>
      <trkpt lat="47.23599" lon="-0.00806">
        <ele>32</ele>
        <time>2012-05-12T12:18:10.459Z</time>
      </trkpt>
      <trkpt lat="47.23602" lon="-0.00812">
        <ele>32</ele>
        <time>2012-05-12T12:18:14.459Z</time>
      </trkpt>
      <trkpt lat="47.23606" lon="-0.00818">
        <ele>32</ele>
        <time>2012-05-12T12:18:18.459Z</time>
      </trkpt>
      <trkpt lat="47.23609" lon="-0.00822">
        <ele>32</ele>
        <time>2012-05-12T12:18:22.459Z</time>
      </trkpt>
      <trkpt lat="47.23613" lon="-0.00828">
        <ele>32</ele>
        <time>2012-05-12T12:18:27.459Z</time>
      </trkpt>
      <trkpt lat="47.23616" lon="-0.00832">
        <ele>32</ele>
        <time>2012-05-12T12:18:32.459Z</time>
      </trkpt>
      <trkpt lat="47.2362" lon="-0.00837">
        <ele>34</ele>
        <time>2012-05-12T12:18:37.459Z</time>
      </trkpt>
      <trkpt lat="47.23624" lon="-0.00841">
        <ele>34</ele>
        <time>2012-05-12T12:18:42.459Z</time>
      </trkpt>
      <trkpt lat="47.23628" lon="-0.00846">
        <ele>34</ele>
        <time>2012-05-12T12:18:47.459Z</time>
      </trkpt>
      <trkpt lat="47.23632" lon="-0.00851">
        <ele>34</ele>
        <time>2012-05-12T12:18:52.459Z</time>
      </trkpt>
      <trkpt lat="47.23636" lon="-0.00856">
        <ele>35</ele>
        <time>2012-05-12T12:18:57.459Z</time>
      </trkpt>
      <trkpt lat="47.2364" lon="-0.0086">
        <ele>35</ele>
        <time>2012-05-12T12:19:02.459Z</time>
      </trkpt>
      <trkpt lat="47.23643" lon="-0.00865">
        <ele>35</ele>
        <time>2012-05-12T12:19:07.459Z</time>
      </trkpt>
      <trkpt lat="47.23647" lon="-0.0087">
        <ele>35</ele>
        <time>2012-05-12T12:19:12.459Z</time>
      </trkpt>
      <trkpt lat="47.23651" lon="-0.00874">
        <ele>35</ele>
        <time>2012-05-12T12:19:17.459Z</time>
      </trkpt>
      <trkpt lat="47.23655" lon="-0.00878">
        <ele>35</ele>
        <time>2012-05-12T12:19:22.459Z</time>
      </trkpt>
      <trkpt lat="47.23659" lon="-0.00883">
        <ele>36</ele>
        <time>2012-05-12T12:19:27.459Z</time>
      </trkpt>
      <trkpt lat="47.23662" lon="-0.00889">
        <ele>36</ele>
        <time>2012-05-12T12:19:32.459Z</time>
      </trkpt>
      <trkpt lat="47.23666" lon="-0.00894">
        <ele>36</ele>
        <time>2012-05-12T12:19:37.459Z</time>
      </trkpt>
      <trkpt lat="47.2367" lon="-0.00899">
        <ele>35</ele>
        <time>2012-05-12T12:19:42.459Z</time>
      </trkpt>
      <trkpt lat="47.23674" lon="-0.00904">
        <ele>35</ele>
        <time>2012-05-12T12:19:46.459Z</time>
      </trkpt>
      <trkpt lat="47.23676" lon="-0.0091">
        <ele>36</ele>
        <time>2012-05-12T12:19:51.459Z</time>
      </trkpt>
      <trkpt lat="47.23674" lon="-0.00916">
        <ele>36</ele>
        <time>2012-05-12T12:19:56.459Z</time>
      </trkpt>
      <trkpt lat="47.2367" lon="-0.0092">
        <ele>38</ele>
        <time>2012-05-12T12:20:01.459Z</time>
      </trkpt>
      <trkpt lat="47.23666" lon="-0.00925">
        <ele>38</ele>
        <time>2012-05-12T12:20:06.459Z</time>
      </trkpt>
      <trkpt lat="47.23664" lon="-0.00931">
        <ele>38</ele>
        <time>2012-05-12T12:20:10.459Z</time>
      </trkpt>
      <trkpt lat="47.23662" lon="-0.00938">
        <ele>38</ele>
        <time>2012-05-12T12:20:14.459Z</time>
      </trkpt>
      <trkpt lat="47.2366" lon="-0.00944">
        <ele>38</ele>
        <time>2012-05-12T12:20:18.459Z</time>
      </trkpt>
      <trkpt lat="47.23659" lon="-0.00951">
        <ele>39</ele>
        <time>2012-05-12T12:20:22.459Z</time>
      </trkpt>
      <trkpt lat="47.23657" lon="-0.00957">
        <ele>39</ele>
        <time>2012-05-12T12:20:26.459Z</time>
      </trkpt>
      <trkpt lat="47.23655" lon="-0.00964">
        <ele>39</ele>
        <time>2012-05-12T12:20:31.459Z</time>
      </trkpt>
      <trkpt lat="47.23652" lon="-0.0097">
        <ele>39</ele>
        <time>2012-05-12T12:20:35.459Z</time>
      </trkpt>
      <trkpt lat="47.23647" lon="-0.00974">
        <ele>39</ele>
        <time>2012-05-12T12:20:39.459Z</time>
      </trkpt>
      <trkpt lat="47.23642" lon="-0.00977">
        <ele>39</ele>
        <time>2012-05-12T12:20:42.459Z</time>
      </trkpt>
      <trkpt lat="47.23637" lon="-0.00979">
        <ele>39</ele>
        <time>2012-05-12T12:20:44.459Z</time>
      </trkpt>
      <trkpt lat="47.23632" lon="-0.00982">
        <ele>39</ele>
        <time>2012-05-12T12:20:47.459Z</time>
      </trkpt>
      <trkpt lat="47.23627" lon="-0.00987">
        <ele>39</ele>
        <time>2012-05-12T12:20:51.459Z</time>
      </trkpt>
      <trkpt lat="47.23624" lon="-0.00992">
        <ele>39</ele>
        <time>2012-05-12T12:20:55.459Z</time>
      </trkpt>
      <trkpt lat="47.2362" lon="-0.00998">
        <ele>39</ele>
        <time>2012-05-12T12:21:00.459Z</time>
      </trkpt>
      <trkpt lat="47.23616" lon="-0.01003">
        <ele>40</ele>
        <time>2012-05-12T12:21:05.459Z</time>
      </trkpt>
      <trkpt lat="47.23613" lon="-0.01009">
        <ele>40</ele>
        <time>2012-05-12T12:21:10.459Z</time>
      </trkpt>
      <trkpt lat="47.2361" lon="-0.01015">
        <ele>40</ele>
        <time>2012-05-12T12:21:15.459Z</time>
      </trkpt>
      <trkpt lat="47.23607" lon="-0.01021">
        <ele>40</ele>
        <time>2012-05-12T12:21:20.459Z</time>
      </trkpt>
      <trkpt lat="47.23605" lon="-0.01027">
        <ele>40</ele>
        <time>2012-05-12T12:21:25.459Z</time>
      </trkpt>
      <trkpt lat="47.23602" lon="-0.01033">
        <ele>40</ele>
        <time>2012-05-12T12:21:30.459Z</time>
      </trkpt>
      <trkpt lat="47.23599" lon="-0.01039">
        <ele>40</ele>
        <time>2012-05-12T12:21:35.459Z</time>
      </trkpt>
      <trkpt lat="47.23701" lon="-0.00999">
        <ele>37</ele>
        <time>2012-05-12T12:23:39.459Z</time>
      </trkpt>
      <trkpt lat="47.23701" lon="-0.00999">
        <ele>37</ele>
        <time>2012-05-12T12:23:39.459Z</time>
      </trkpt>
      <trkpt lat="47.23701" lon="-0.00999">
        <ele>37</ele>
        <time>2012-05-12T12:23:42.459Z</time>
      </trkpt>
      <trkpt lat="47.23719" lon="-0.01028">
        <ele>40</ele>
        <time>2012-05-12T12:24:14.459Z</time>
      </trkpt>
      <trkpt lat="47.23719" lon="-0.01028">
        <ele>40</ele>
        <time>2012-05-12T12:24:14.459Z</time>
      </trkpt>
      <trkpt lat="47.23719" lon="-0.01028">
        <ele>40</ele>
        <time>2012-05-12T12:24:17.459Z</time>
      </trkpt>
      <trkpt lat="47.23698" lon="-0.00968">
        <ele>37</ele>
        <time>2012-05-12T12:24:20.459Z</time>
      </trkpt>
      <trkpt lat="47.23702" lon="-0.0096">
        <ele>36</ele>
        <time>2012-05-12T12:24:21.459Z</time>
      </trkpt>
      <trkpt lat="47.23709" lon="-0.00957">
        <ele>36</ele>
        <time>2012-05-12T12:24:23.459Z</time>
      </trkpt>
      <trkpt lat="47.23715" lon="-0.0096">
        <ele>36</ele>
        <time>2012-05-12T12:24:25.459Z</time>
      </trkpt>
      <trkpt lat="47.23724" lon="-0.00964">
        <ele>35</ele>
        <time>2012-05-12T12:24:28.459Z</time>
      </trkpt>
      <trkpt lat="47.23729" lon="-0.0097">
        <ele>35</ele>
        <time>2012-05-12T12:24:29.459Z</time>
      </trkpt>
      <trkpt lat="47.23734" lon="-0.00975">
        <ele>35</ele>
        <time>2012-05-12T12:24:30.459Z</time>
      </trkpt>
      <trkpt lat="47.23739" lon="-0.00978">
        <ele>35</ele>
        <time>2012-05-12T12:24:31.459Z</time>
      </trkpt>
      <trkpt lat="47.23742" lon="-0.00986">
        <ele>35</ele>
        <time>2012-05-12T12:24:34.459Z</time>
      </trkpt>
      <trkpt lat="47.23745" lon="-0.00994">
        <ele>35</ele>
        <time>2012-05-12T12:24:38.459Z</time>
      </trkpt>
      <trkpt lat="47.23747" lon="-0.01001">
        <ele>36</ele>
        <time>2012-05-12T12:24:42.459Z</time>
      </trkpt>
      <trkpt lat="47.2375" lon="-0.01008">
        <ele>37</ele>
        <time>2012-05-12T12:24:46.459Z</time>
      </trkpt>
      <trkpt lat="47.23752" lon="-0.01014">
        <ele>34</ele>
        <time>2012-05-12T12:24:52.459Z</time>
      </trkpt>
      <trkpt lat="47.23755" lon="-0.0102">
        <ele>34</ele>
        <time>2012-05-12T12:24:58.459Z</time>
      </trkpt>
      <trkpt lat="47.23757" lon="-0.01027">
        <ele>34</ele>
        <time>2012-05-12T12:25:04.459Z</time>
      </trkpt>
      <trkpt lat="47.23759" lon="-0.01034">
        <ele>35</ele>
        <time>2012-05-12T12:25:09.459Z</time>
      </trkpt>
      <trkpt lat="47.23761" lon="-0.0104">
        <ele>35</ele>
        <time>2012-05-12T12:25:14.459Z</time>
      </trkpt>
      <trkpt lat="47.23763" lon="-0.01047">
        <ele>35</ele>
        <time>2012-05-12T12:25:19.459Z</time>
      </trkpt>
      <trkpt lat="47.23765" lon="-0.01054">
        <ele>35</ele>
        <time>2012-05-12T12:25:24.459Z</time>
      </trkpt>
      <trkpt lat="47.23767" lon="-0.01061">
        <ele>36</ele>
        <time>2012-05-12T12:25:29.459Z</time>
      </trkpt>
      <trkpt lat="47.2377" lon="-0.01068">
        <ele>36</ele>
        <time>2012-05-12T12:25:34.459Z</time>
      </trkpt>
      <trkpt lat="47.23773" lon="-0.01074">
        <ele>36</ele>
        <time>2012-05-12T12:25:40.459Z</time>
      </trkpt>
      <trkpt lat="47.23776" lon="-0.01079">
        <ele>36</ele>
        <time>2012-05-12T12:25:46.459Z</time>
      </trkpt>
      <trkpt lat="47.2378" lon="-0.01084">
        <ele>37</ele>
        <time>2012-05-12T12:25:52.459Z</time>
      </trkpt>
      <trkpt lat="47.23783" lon="-0.01089">
        <ele>37</ele>
        <time>2012-05-12T12:25:58.459Z</time>
      </trkpt>
      <trkpt lat="47.23785" lon="-0.01083">
        <ele>34</ele>
        <time>2012-05-12T12:26:15.459Z</time>
      </trkpt>
      <trkpt lat="47.2379" lon="-0.01084">
        <ele>36</ele>
        <time>2012-05-12T12:26:26.459Z</time>
      </trkpt>
      <trkpt lat="47.23794" lon="-0.01088">
        <ele>35</ele>
        <time>2012-05-12T12:26:35.459Z</time>
      </trkpt>
      <trkpt lat="47.23796" lon="-0.01093">
        <ele>35</ele>
        <time>2012-05-12T12:26:42.459Z</time>
      </trkpt>
      <trkpt lat="47.23797" lon="-0.01101">
        <ele>35</ele>
        <time>2012-05-12T12:26:48.459Z</time>
      </trkpt>
      <trkpt lat="47.23798" lon="-0.01108">
        <ele>35</ele>
        <time>2012-05-12T12:26:52.459Z</time>
      </trkpt>
      <trkpt lat="47.23799" lon="-0.01115">
        <ele>36</ele>
        <time>2012-05-12T12:26:56.459Z</time>
      </trkpt>
      <trkpt lat="47.23799" lon="-0.01122">
        <ele>36</ele>
        <time>2012-05-12T12:27:00.459Z</time>
      </trkpt>
      <trkpt lat="47.238" lon="-0.0113">
        <ele>36</ele>
        <time>2012-05-12T12:27:05.459Z</time>
      </trkpt>
      <trkpt lat="47.23802" lon="-0.01136">
        <ele>36</ele>
        <time>2012-05-12T12:27:10.459Z</time>
      </trkpt>
      <trkpt lat="47.23804" lon="-0.01143">
        <ele>35</ele>
        <time>2012-05-12T12:27:15.459Z</time>
      </trkpt>
      <trkpt lat="47.23806" lon="-0.0115">
        <ele>35</ele>
        <time>2012-05-12T12:27:20.459Z</time>
      </trkpt>
      <trkpt lat="47.23809" lon="-0.01156">
        <ele>35</ele>
        <time>2012-05-12T12:27:25.459Z</time>
      </trkpt>
      <trkpt lat="47.23812" lon="-0.01162">
        <ele>34</ele>
        <time>2012-05-12T12:27:30.459Z</time>
      </trkpt>
      <trkpt lat="47.23814" lon="-0.01169">
        <ele>36</ele>
        <time>2012-05-12T12:27:35.458Z</time>
      </trkpt>
      <trkpt lat="47.23817" lon="-0.01174">
        <ele>36</ele>
        <time>2012-05-12T12:27:39.458Z</time>
      </trkpt>
      <trkpt lat="47.2382" lon="-0.0118">
        <ele>36</ele>
        <time>2012-05-12T12:27:43.458Z</time>
      </trkpt>
      <trkpt lat="47.23822" lon="-0.01186">
        <ele>36</ele>
        <time>2012-05-12T12:27:47.458Z</time>
      </trkpt>
      <trkpt lat="47.23824" lon="-0.01192">
        <ele>37</ele>
        <time>2012-05-12T12:27:52.458Z</time>
      </trkpt>
      <trkpt lat="47.23827" lon="-0.012">
        <ele>38</ele>
        <time>2012-05-12T12:27:57.458Z</time>
      </trkpt>
      <trkpt lat="47.23829" lon="-0.01205">
        <ele>38</ele>
        <time>2012-05-12T12:28:01.458Z</time>
      </trkpt>
      <trkpt lat="47.23832" lon="-0.01211">
        <ele>39</ele>
        <time>2012-05-12T12:28:05.458Z</time>
      </trkpt>
      <trkpt lat="47.23834" lon="-0.01216">
        <ele>33</ele>
        <time>2012-05-12T12:28:09.458Z</time>
      </trkpt>
      <trkpt lat="47.23836" lon="-0.01223">
        <ele>33</ele>
        <time>2012-05-12T12:28:14.458Z</time>
      </trkpt>
      <trkpt lat="47.23838" lon="-0.01229">
        <ele>34</ele>
        <time>2012-05-12T12:28:18.458Z</time>
      </trkpt>
      <trkpt lat="47.2384" lon="-0.01237">
        <ele>35</ele>
        <time>2012-05-12T12:28:22.458Z</time>
      </trkpt>
      <trkpt lat="47.23841" lon="-0.01244">
        <ele>36</ele>
        <time>2012-05-12T12:28:26.458Z</time>
      </trkpt>
      <trkpt lat="47.23842" lon="-0.01253">
        <ele>38</ele>
        <time>2012-05-12T12:28:30.458Z</time>
      </trkpt>
      <trkpt lat="47.23843" lon="-0.01259">
        <ele>37</ele>
        <time>2012-05-12T12:28:33.458Z</time>
      </trkpt>
      <trkpt lat="47.23845" lon="-0.01266">
        <ele>37</ele>
        <time>2012-05-12T12:28:37.458Z</time>
      </trkpt>
      <trkpt lat="47.23846" lon="-0.01273">
        <ele>36</ele>
        <time>2012-05-12T12:28:41.458Z</time>
      </trkpt>
      <trkpt lat="47.23849" lon="-0.0128">
        <ele>36</ele>
        <time>2012-05-12T12:28:45.458Z</time>
      </trkpt>
      <trkpt lat="47.23851" lon="-0.01286">
        <ele>36</ele>
        <time>2012-05-12T12:28:49.458Z</time>
      </trkpt>
      <trkpt lat="47.23853" lon="-0.01293">
        <ele>36</ele>
        <time>2012-05-12T12:28:53.458Z</time>
      </trkpt>
      <trkpt lat="47.23855" lon="-0.01299">
        <ele>36</ele>
        <time>2012-05-12T12:28:57.458Z</time>
      </trkpt>
      <trkpt lat="47.23856" lon="-0.01305">
        <ele>36</ele>
        <time>2012-05-12T12:29:01.458Z</time>
      </trkpt>
      <trkpt lat="47.23859" lon="-0.01312">
        <ele>36</ele>
        <time>2012-05-12T12:29:06.458Z</time>
      </trkpt>
      <trkpt lat="47.2386" lon="-0.01319">
        <ele>37</ele>
        <time>2012-05-12T12:29:11.458Z</time>
      </trkpt>
      <trkpt lat="47.23862" lon="-0.01326">
        <ele>37</ele>
        <time>2012-05-12T12:29:16.458Z</time>
      </trkpt>
      <trkpt lat="47.23862" lon="-0.01334">
        <ele>38</ele>
        <time>2012-05-12T12:29:21.458Z</time>
      </trkpt>
      <trkpt lat="47.23862" lon="-0.01342">
        <ele>38</ele>
        <time>2012-05-12T12:29:26.458Z</time>
      </trkpt>
      <trkpt lat="47.23859" lon="-0.0135">
        <ele>38</ele>
        <time>2012-05-12T12:29:29.458Z</time>
      </trkpt>
      <trkpt lat="47.23854" lon="-0.01355">
        <ele>38</ele>
        <time>2012-05-12T12:29:31.458Z</time>
      </trkpt>
      <trkpt lat="47.23852" lon="-0.01361">
        <ele>38</ele>
        <time>2012-05-12T12:29:34.458Z</time>
      </trkpt>
      <trkpt lat="47.23851" lon="-0.01368">
        <ele>38</ele>
        <time>2012-05-12T12:29:38.458Z</time>
      </trkpt>
      <trkpt lat="47.23852" lon="-0.01375">
        <ele>38</ele>
        <time>2012-05-12T12:29:43.458Z</time>
      </trkpt>
      <trkpt lat="47.23853" lon="-0.01382">
        <ele>38</ele>
        <time>2012-05-12T12:29:48.458Z</time>
      </trkpt>
      <trkpt lat="47.23855" lon="-0.0139">
        <ele>38</ele>
        <time>2012-05-12T12:29:53.458Z</time>
      </trkpt>
      <trkpt lat="47.23856" lon="-0.01397">
        <ele>38</ele>
        <time>2012-05-12T12:29:58.458Z</time>
      </trkpt>
      <trkpt lat="47.23857" lon="-0.01404">
        <ele>38</ele>
        <time>2012-05-12T12:30:03.458Z</time>
      </trkpt>
      <trkpt lat="47.23859" lon="-0.01411">
        <ele>38</ele>
        <time>2012-05-12T12:30:08.458Z</time>
      </trkpt>
      <trkpt lat="47.2386" lon="-0.01418">
        <ele>39</ele>
        <time>2012-05-12T12:30:13.458Z</time>
      </trkpt>
      <trkpt lat="47.23861" lon="-0.01425">
        <ele>39</ele>
        <time>2012-05-12T12:30:18.458Z</time>
      </trkpt>
      <trkpt lat="47.23863" lon="-0.01432">
        <ele>39</ele>
        <time>2012-05-12T12:30:23.458Z</time>
      </trkpt>
      <trkpt lat="47.23863" lon="-0.01439">
        <ele>39</ele>
        <time>2012-05-12T12:30:28.458Z</time>
      </trkpt>
      <trkpt lat="47.23863" lon="-0.01446">
        <ele>39</ele>
        <time>2012-05-12T12:30:34.458Z</time>
      </trkpt>
      <trkpt lat="47.23864" lon="-0.01452">
        <ele>39</ele>
        <time>2012-05-12T12:30:39.458Z</time>
      </trkpt>
      <trkpt lat="47.23865" lon="-0.01459">
        <ele>39</ele>
        <time>2012-05-12T12:30:44.458Z</time>
      </trkpt>
      <trkpt lat="47.23719" lon="-0.01395">
        <ele>50</ele>
        <time>2012-05-12T12:31:19.458Z</time>
      </trkpt>
      <trkpt lat="47.23719" lon="-0.01395">
        <ele>50</ele>
        <time>2012-05-12T12:31:19.458Z</time>
      </trkpt>
      <trkpt lat="47.23719" lon="-0.01395">
        <ele>50</ele>
        <time>2012-05-12T12:31:21.458Z</time>
      </trkpt>
      <trkpt lat="47.2375" lon="-0.01407">
        <ele>51</ele>
        <time>2012-05-12T12:31:22.458Z</time>
      </trkpt>
      <trkpt lat="47.23756" lon="-0.0141">
        <ele>50</ele>
        <time>2012-05-12T12:31:23.458Z</time>
      </trkpt>
      <trkpt lat="47.23765" lon="-0.01418">
        <ele>50</ele>
        <time>2012-05-12T12:31:25.458Z</time>
      </trkpt>
      <trkpt lat="47.23772" lon="-0.01423">
        <ele>49</ele>
        <time>2012-05-12T12:31:26.458Z</time>
      </trkpt>
      <trkpt lat="47.23779" lon="-0.01428">
        <ele>49</ele>
        <time>2012-05-12T12:31:27.458Z</time>
      </trkpt>
      <trkpt lat="47.23785" lon="-0.01431">
        <ele>49</ele>
        <time>2012-05-12T12:31:28.458Z</time>
      </trkpt>
      <trkpt lat="47.23791" lon="-0.01436">
        <ele>48</ele>
        <time>2012-05-12T12:31:30.458Z</time>
      </trkpt>
      <trkpt lat="47.23794" lon="-0.01442">
        <ele>48</ele>
        <time>2012-05-12T12:31:34.458Z</time>
      </trkpt>
      <trkpt lat="47.23791" lon="-0.01447">
        <ele>48</ele>
        <time>2012-05-12T12:31:43.458Z</time>
      </trkpt>
      <trkpt lat="47.2379" lon="-0.01454">
        <ele>49</ele>
        <time>2012-05-12T12:31:51.458Z</time>
      </trkpt>
      <trkpt lat="47.2379" lon="-0.0146">
        <ele>49</ele>
        <time>2012-05-12T12:31:58.458Z</time>
      </trkpt>
      <trkpt lat="47.23787" lon="-0.01467">
        <ele>49</ele>
        <time>2012-05-12T12:32:06.458Z</time>
      </trkpt>
      <trkpt lat="47.23785" lon="-0.01473">
        <ele>49</ele>
        <time>2012-05-12T12:32:14.458Z</time>
      </trkpt>
      <trkpt lat="47.23781" lon="-0.01477">
        <ele>49</ele>
        <time>2012-05-12T12:32:22.458Z</time>
      </trkpt>
      <trkpt lat="47.23776" lon="-0.0148">
        <ele>49</ele>
        <time>2012-05-12T12:32:30.458Z</time>
      </trkpt>
      <trkpt lat="47.23771" lon="-0.01483">
        <ele>50</ele>
        <time>2012-05-12T12:32:37.458Z</time>
      </trkpt>
      <trkpt lat="47.23766" lon="-0.01483">
        <ele>50</ele>
        <time>2012-05-12T12:32:43.458Z</time>
      </trkpt>
      <trkpt lat="47.23761" lon="-0.01481">
        <ele>50</ele>
        <time>2012-05-12T12:32:49.458Z</time>
      </trkpt>
      <trkpt lat="47.23756" lon="-0.01482">
        <ele>50</ele>
        <time>2012-05-12T12:32:53.458Z</time>
      </trkpt>
      <trkpt lat="47.23752" lon="-0.01478">
        <ele>50</ele>
        <time>2012-05-12T12:32:58.458Z</time>
      </trkpt>
      <trkpt lat="47.23748" lon="-0.01471">
        <ele>51</ele>
        <time>2012-05-12T12:33:02.458Z</time>
      </trkpt>
      <trkpt lat="47.23745" lon="-0.01466">
        <ele>51</ele>
        <time>2012-05-12T12:33:06.458Z</time>
      </trkpt>
      <trkpt lat="47.23743" lon="-0.01459">
        <ele>51</ele>
        <time>2012-05-12T12:33:11.458Z</time>
      </trkpt>
      <trkpt lat="47.2374" lon="-0.01452">
        <ele>51</ele>
        <time>2012-05-12T12:33:16.458Z</time>
      </trkpt>
      <trkpt lat="47.23738" lon="-0.01445">
        <ele>51</ele>
        <time>2012-05-12T12:33:20.458Z</time>
      </trkpt>
      <trkpt lat="47.23736" lon="-0.01439">
        <ele>51</ele>
        <time>2012-05-12T12:33:24.458Z</time>
      </trkpt>
      <trkpt lat="47.23732" lon="-0.01432">
        <ele>51</ele>
        <time>2012-05-12T12:33:29.458Z</time>
      </trkpt>
      <trkpt lat="47.23729" lon="-0.01426">
        <ele>51</ele>
        <time>2012-05-12T12:33:34.458Z</time>
      </trkpt>
      <trkpt lat="47.23725" lon="-0.01421">
        <ele>51</ele>
        <time>2012-05-12T12:33:39.458Z</time>
      </trkpt>
      <trkpt lat="47.23721" lon="-0.01418">
        <ele>51</ele>
        <time>2012-05-12T12:33:44.458Z</time>
      </trkpt>
      <trkpt lat="47.23716" lon="-0.01415">
        <ele>50</ele>
        <time>2012-05-12T12:33:49.458Z</time>
      </trkpt>
      <trkpt lat="47.23712" lon="-0.01411">
        <ele>50</ele>
        <time>2012-05-12T12:33:55.458Z</time>
      </trkpt>
      <trkpt lat="47.23708" lon="-0.01409">
        <ele>50</ele>
        <time>2012-05-12T12:34:00.458Z</time>
      </trkpt>
      <trkpt lat="47.23703" lon="-0.01404">
        <ele>50</ele>
        <time>2012-05-12T12:34:06.458Z</time>
      </trkpt>
      <trkpt lat="47.23699" lon="-0.014">
        <ele>50</ele>
        <time>2012-05-12T12:34:11.458Z</time>
      </trkpt>
      <trkpt lat="47.23696" lon="-0.01394">
        <ele>50</ele>
        <time>2012-05-12T12:34:16.458Z</time>
      </trkpt>
      <trkpt lat="47.23692" lon="-0.01389">
        <ele>50</ele>
        <time>2012-05-12T12:34:21.458Z</time>
      </trkpt>
      <trkpt lat="47.23689" lon="-0.01383">
        <ele>50</ele>
        <time>2012-05-12T12:34:26.458Z</time>
      </trkpt>
      <trkpt lat="47.23686" lon="-0.01378">
        <ele>50</ele>
        <time>2012-05-12T12:34:30.458Z</time>
      </trkpt>
      <trkpt lat="47.23683" lon="-0.01372">
        <ele>50</ele>
        <time>2012-05-12T12:34:34.458Z</time>
      </trkpt>
      <trkpt lat="47.2368" lon="-0.01366">
        <ele>50</ele>
        <time>2012-05-12T12:34:38.458Z</time>
      </trkpt>
      <trkpt lat="47.23676" lon="-0.01359">
        <ele>50</ele>
        <time>2012-05-12T12:34:42.458Z</time>
      </trkpt>
      <trkpt lat="47.23673" lon="-0.01352">
        <ele>50</ele>
        <time>2012-05-12T12:34:45.458Z</time>
      </trkpt>
      <trkpt lat="47.23671" lon="-0.01346">
        <ele>49</ele>
        <time>2012-05-12T12:34:48.458Z</time>
      </trkpt>
      <trkpt lat="47.23668" lon="-0.01338">
        <ele>49</ele>
        <time>2012-05-12T12:34:52.458Z</time>
      </trkpt>
      <trkpt lat="47.23665" lon="-0.01332">
        <ele>49</ele>
        <time>2012-05-12T12:34:56.458Z</time>
      </trkpt>
      <trkpt lat="47.23661" lon="-0.01326">
        <ele>48</ele>
        <time>2012-05-12T12:35:01.458Z</time>
      </trkpt>
      <trkpt lat="47.23656" lon="-0.01323">
        <ele>48</ele>
        <time>2012-05-12T12:35:06.458Z</time>
      </trkpt>
      <trkpt lat="47.23652" lon="-0.0132">
        <ele>48</ele>
        <time>2012-05-12T12:35:10.458Z</time>
      </trkpt>
      <trkpt lat="47.23646" lon="-0.0132">
        <ele>48</ele>
        <time>2012-05-12T12:35:14.458Z</time>
      </trkpt>
      <trkpt lat="47.2364" lon="-0.01322">
        <ele>48</ele>
        <time>2012-05-12T12:35:17.458Z</time>
      </trkpt>
      <trkpt lat="47.23634" lon="-0.01323">
        <ele>48</ele>
        <time>2012-05-12T12:35:20.458Z</time>
      </trkpt>
      <trkpt lat="47.23629" lon="-0.01325">
        <ele>48</ele>
        <time>2012-05-12T12:35:23.458Z</time>
      </trkpt>
      <trkpt lat="47.23624" lon="-0.01327">
        <ele>47</ele>
        <time>2012-05-12T12:35:27.458Z</time>
      </trkpt>
      <trkpt lat="47.23619" lon="-0.01329">
        <ele>47</ele>
        <time>2012-05-12T12:35:31.458Z</time>
      </trkpt>
      <trkpt lat="47.23614" lon="-0.01332">
        <ele>47</ele>
        <time>2012-05-12T12:35:35.458Z</time>
      </trkpt>
      <trkpt lat="47.2361" lon="-0.01335">
        <ele>48</ele>
        <time>2012-05-12T12:35:39.458Z</time>
      </trkpt>
      <trkpt lat="47.23606" lon="-0.01339">
        <ele>48</ele>
        <time>2012-05-12T12:35:43.458Z</time>
      </trkpt>
      <trkpt lat="47.23602" lon="-0.01344">
        <ele>48</ele>
        <time>2012-05-12T12:35:48.458Z</time>
      </trkpt>
      <trkpt lat="47.23598" lon="-0.01349">
        <ele>48</ele>
        <time>2012-05-12T12:35:52.458Z</time>
      </trkpt>
      <trkpt lat="47.23596" lon="-0.01356">
        <ele>48</ele>
        <time>2012-05-12T12:35:56.458Z</time>
      </trkpt>
      <trkpt lat="47.23592" lon="-0.01362">
        <ele>48</ele>
        <time>2012-05-12T12:36:00.458Z</time>
      </trkpt>
      <trkpt lat="47.2359" lon="-0.01368">
        <ele>48</ele>
        <time>2012-05-12T12:36:04.458Z</time>
      </trkpt>
      <trkpt lat="47.23587" lon="-0.01374">
        <ele>48</ele>
        <time>2012-05-12T12:36:08.458Z</time>
      </trkpt>
      <trkpt lat="47.23583" lon="-0.0138">
        <ele>46</ele>
        <time>2012-05-12T12:36:13.458Z</time>
      </trkpt>
      <trkpt lat="47.23579" lon="-0.01386">
        <ele>47</ele>
        <time>2012-05-12T12:36:18.458Z</time>
      </trkpt>
      <trkpt lat="47.23576" lon="-0.01391">
        <ele>47</ele>
        <time>2012-05-12T12:36:22.458Z</time>
      </trkpt>
      <trkpt lat="47.23572" lon="-0.01396">
        <ele>47</ele>
        <time>2012-05-12T12:36:27.458Z</time>
      </trkpt>
      <trkpt lat="47.23568" lon="-0.01402">
        <ele>47</ele>
        <time>2012-05-12T12:36:32.458Z</time>
      </trkpt>
      <trkpt lat="47.23566" lon="-0.01408">
        <ele>47</ele>
        <time>2012-05-12T12:36:36.458Z</time>
      </trkpt>
      <trkpt lat="47.23562" lon="-0.01414">
        <ele>47</ele>
        <time>2012-05-12T12:36:41.458Z</time>
      </trkpt>
      <trkpt lat="47.23558" lon="-0.01418">
        <ele>47</ele>
        <time>2012-05-12T12:36:46.458Z</time>
      </trkpt>
      <trkpt lat="47.23554" lon="-0.01423">
        <ele>47</ele>
        <time>2012-05-12T12:36:51.458Z</time>
      </trkpt>
      <trkpt lat="47.2355" lon="-0.01427">
        <ele>47</ele>
        <time>2012-05-12T12:36:56.458Z</time>
      </trkpt>
      <trkpt lat="47.23545" lon="-0.0143">
        <ele>46</ele>
        <time>2012-05-12T12:37:01.458Z</time>
      </trkpt>
      <trkpt lat="47.23541" lon="-0.01433">
        <ele>46</ele>
        <time>2012-05-12T12:37:06.458Z</time>
      </trkpt>
      <trkpt lat="47.23536" lon="-0.01438">
        <ele>46</ele>
        <time>2012-05-12T12:37:11.458Z</time>
      </trkpt>
      <trkpt lat="47.23532" lon="-0.01442">
        <ele>46</ele>
        <time>2012-05-12T12:37:15.458Z</time>
      </trkpt>
      <trkpt lat="47.23528" lon="-0.01446">
        <ele>46</ele>
        <time>2012-05-12T12:37:19.458Z</time>
      </trkpt>
      <trkpt lat="47.23524" lon="-0.0145">
        <ele>46</ele>
        <time>2012-05-12T12:37:23.458Z</time>
      </trkpt>
      <trkpt lat="47.2352" lon="-0.01454">
        <ele>46</ele>
        <time>2012-05-12T12:37:27.458Z</time>
      </trkpt>
      <trkpt lat="47.23516" lon="-0.01458">
        <ele>46</ele>
        <time>2012-05-12T12:37:31.458Z</time>
      </trkpt>
      <trkpt lat="47.23513" lon="-0.01462">
        <ele>46</ele>
        <time>2012-05-12T12:37:35.458Z</time>
      </trkpt>
      <trkpt lat="47.23509" lon="-0.01465">
        <ele>46</ele>
        <time>2012-05-12T12:37:39.458Z</time>
      </trkpt>
      <trkpt lat="47.23505" lon="-0.0147">
        <ele>46</ele>
        <time>2012-05-12T12:37:43.458Z</time>
      </trkpt>
      <trkpt lat="47.23501" lon="-0.01475">
        <ele>46</ele>
        <time>2012-05-12T12:37:47.458Z</time>
      </trkpt>
      <trkpt lat="47.23497" lon="-0.01479">
        <ele>45</ele>
        <time>2012-05-12T12:37:51.458Z</time>
      </trkpt>
      <trkpt lat="47.23494" lon="-0.01484">
        <ele>45</ele>
        <time>2012-05-12T12:37:55.458Z</time>
      </trkpt>
      <trkpt lat="47.23489" lon="-0.01488">
        <ele>45</ele>
        <time>2012-05-12T12:37:59.458Z</time>
      </trkpt>
      <trkpt lat="47.23485" lon="-0.01493">
        <ele>45</ele>
        <time>2012-05-12T12:38:03.458Z</time>
      </trkpt>
      <trkpt lat="47.23481" lon="-0.01496">
        <ele>45</ele>
        <time>2012-05-12T12:38:07.458Z</time>
      </trkpt>
      <trkpt lat="47.23477" lon="-0.01502">
        <ele>45</ele>
        <time>2012-05-12T12:38:12.458Z</time>
      </trkpt>
      <trkpt lat="47.23472" lon="-0.01506">
        <ele>45</ele>
        <time>2012-05-12T12:38:17.458Z</time>
      </trkpt>
      <trkpt lat="47.23469" lon="-0.0151">
        <ele>45</ele>
        <time>2012-05-12T12:38:21.458Z</time>
      </trkpt>
      <trkpt lat="47.23465" lon="-0.01514">
        <ele>45</ele>
        <time>2012-05-12T12:38:25.458Z</time>
      </trkpt>
      <trkpt lat="47.23461" lon="-0.01519">
        <ele>45</ele>
        <time>2012-05-12T12:38:29.458Z</time>
      </trkpt>
      <trkpt lat="47.23457" lon="-0.01523">
        <ele>45</ele>
        <time>2012-05-12T12:38:33.458Z</time>
      </trkpt>
      <trkpt lat="47.23454" lon="-0.01527">
        <ele>45</ele>
        <time>2012-05-12T12:38:37.458Z</time>
      </trkpt>
      <trkpt lat="47.2345" lon="-0.01531">
        <ele>45</ele>
        <time>2012-05-12T12:38:41.458Z</time>
      </trkpt>
      <trkpt lat="47.23446" lon="-0.01536">
        <ele>45</ele>
        <time>2012-05-12T12:38:45.458Z</time>
      </trkpt>
      <trkpt lat="47.23441" lon="-0.0154">
        <ele>45</ele>
        <time>2012-05-12T12:38:50.458Z</time>
      </trkpt>
      <trkpt lat="47.23438" lon="-0.01544">
        <ele>44</ele>
        <time>2012-05-12T12:38:54.458Z</time>
      </trkpt>
      <trkpt lat="47.23434" lon="-0.01548">
        <ele>44</ele>
        <time>2012-05-12T12:38:58.458Z</time>
      </trkpt>
      <trkpt lat="47.2343" lon="-0.01552">
        <ele>44</ele>
        <time>2012-05-12T12:39:02.458Z</time>
      </trkpt>
      <trkpt lat="47.23426" lon="-0.01555">
        <ele>44</ele>
        <time>2012-05-12T12:39:06.458Z</time>
      </trkpt>
      <trkpt lat="47.23422" lon="-0.01559">
        <ele>44</ele>
        <time>2012-05-12T12:39:10.458Z</time>
      </trkpt>
      <trkpt lat="47.23418" lon="-0.01563">
        <ele>44</ele>
        <time>2012-05-12T12:39:14.458Z</time>
      </trkpt>
      <trkpt lat="47.23414" lon="-0.01567">
        <ele>43</ele>
        <time>2012-05-12T12:39:18.458Z</time>
      </trkpt>
      <trkpt lat="47.2341" lon="-0.01571">
        <ele>43</ele>
        <time>2012-05-12T12:39:22.458Z</time>
      </trkpt>
      <trkpt lat="47.23406" lon="-0.01575">
        <ele>43</ele>
        <time>2012-05-12T12:39:26.458Z</time>
      </trkpt>
      <trkpt lat="47.23401" lon="-0.0158">
        <ele>43</ele>
        <time>2012-05-12T12:39:30.458Z</time>
      </trkpt>
      <trkpt lat="47.23397" lon="-0.01584">
        <ele>42</ele>
        <time>2012-05-12T12:39:34.458Z</time>
      </trkpt>
      <trkpt lat="47.23393" lon="-0.01588">
        <ele>42</ele>
        <time>2012-05-12T12:39:38.458Z</time>
      </trkpt>
      <trkpt lat="47.23389" lon="-0.01593">
        <ele>42</ele>
        <time>2012-05-12T12:39:42.458Z</time>
      </trkpt>
      <trkpt lat="47.23385" lon="-0.01597">
        <ele>42</ele>
        <time>2012-05-12T12:39:46.458Z</time>
      </trkpt>
      <trkpt lat="47.23381" lon="-0.016">
        <ele>42</ele>
        <time>2012-05-12T12:39:50.458Z</time>
      </trkpt>
      <trkpt lat="47.23377" lon="-0.01604">
        <ele>42</ele>
        <time>2012-05-12T12:39:54.458Z</time>
      </trkpt>
      <trkpt lat="47.23372" lon="-0.01608">
        <ele>42</ele>
        <time>2012-05-12T12:39:58.458Z</time>
      </trkpt>
      <trkpt lat="47.23368" lon="-0.0161">
        <ele>42</ele>
        <time>2012-05-12T12:40:02.458Z</time>
      </trkpt>
      <trkpt lat="47.23363" lon="-0.01613">
        <ele>42</ele>
        <time>2012-05-12T12:40:06.458Z</time>
      </trkpt>
      <trkpt lat="47.23359" lon="-0.01616">
        <ele>42</ele>
        <time>2012-05-12T12:40:10.458Z</time>
      </trkpt>
      <trkpt lat="47.23355" lon="-0.01619">
        <ele>42</ele>
        <time>2012-05-12T12:40:14.458Z</time>
      </trkpt>
      <trkpt lat="47.23351" lon="-0.01622">
        <ele>42</ele>
        <time>2012-05-12T12:40:18.458Z</time>
      </trkpt>
      <trkpt lat="47.23346" lon="-0.01626">
        <ele>42</ele>
        <time>2012-05-12T12:40:23.458Z</time>
      </trkpt>
      <trkpt lat="47.23341" lon="-0.01629">
        <ele>42</ele>
        <time>2012-05-12T12:40:28.458Z</time>
      </trkpt>
      <trkpt lat="47.23336" lon="-0.01632">
        <ele>42</ele>
        <time>2012-05-12T12:40:33.458Z</time>
      </trkpt>
      <trkpt lat="47.23332" lon="-0.01634">
        <ele>41</ele>
        <time>2012-05-12T12:40:39.458Z</time>
      </trkpt>
      <trkpt lat="47.23327" lon="-0.01636">
        <ele>41</ele>
        <time>2012-05-12T12:41:06.458Z</time>
      </trkpt>
      <trkpt lat="47.23323" lon="-0.0164">
        <ele>41</ele>
        <time>2012-05-12T12:41:17.458Z</time>
      </trkpt>
      <trkpt lat="47.23318" lon="-0.01641">
        <ele>41</ele>
        <time>2012-05-12T12:41:25.458Z</time>
      </trkpt>
      <trkpt lat="47.23313" lon="-0.01642">
        <ele>40</ele>
        <time>2012-05-12T12:41:31.458Z</time>
      </trkpt>
      <trkpt lat="47.23308" lon="-0.01646">
        <ele>40</ele>
        <time>2012-05-12T12:41:36.458Z</time>
      </trkpt>
      <trkpt lat="47.23304" lon="-0.01649">
        <ele>40</ele>
        <time>2012-05-12T12:41:40.458Z</time>
      </trkpt>
      <trkpt lat="47.23299" lon="-0.01654">
        <ele>40</ele>
        <time>2012-05-12T12:41:44.458Z</time>
      </trkpt>
      <trkpt lat="47.23295" lon="-0.01658">
        <ele>40</ele>
        <time>2012-05-12T12:41:48.458Z</time>
      </trkpt>
      <trkpt lat="47.23291" lon="-0.01661">
        <ele>40</ele>
        <time>2012-05-12T12:41:52.458Z</time>
      </trkpt>
      <trkpt lat="47.23287" lon="-0.01665">
        <ele>40</ele>
        <time>2012-05-12T12:41:56.458Z</time>
      </trkpt>
      <trkpt lat="47.23283" lon="-0.01668">
        <ele>41</ele>
        <time>2012-05-12T12:42:00.458Z</time>
      </trkpt>
      <trkpt lat="47.23278" lon="-0.01672">
        <ele>41</ele>
        <time>2012-05-12T12:42:05.458Z</time>
      </trkpt>
      <trkpt lat="47.23273" lon="-0.01676">
        <ele>41</ele>
        <time>2012-05-12T12:42:10.458Z</time>
      </trkpt>
      <trkpt lat="47.23269" lon="-0.01679">
        <ele>41</ele>
        <time>2012-05-12T12:42:14.458Z</time>
      </trkpt>
      <trkpt lat="47.23263" lon="-0.01682">
        <ele>41</ele>
        <time>2012-05-12T12:42:19.458Z</time>
      </trkpt>
      <trkpt lat="47.23259" lon="-0.01685">
        <ele>41</ele>
        <time>2012-05-12T12:42:24.458Z</time>
      </trkpt>
      <trkpt lat="47.23254" lon="-0.01688">
        <ele>41</ele>
        <time>2012-05-12T12:42:29.458Z</time>
      </trkpt>
      <trkpt lat="47.23249" lon="-0.01691">
        <ele>41</ele>
        <time>2012-05-12T12:42:33.458Z</time>
      </trkpt>
      <trkpt lat="47.23245" lon="-0.01693">
        <ele>41</ele>
        <time>2012-05-12T12:42:37.458Z</time>
      </trkpt>
      <trkpt lat="47.2324" lon="-0.01696">
        <ele>41</ele>
        <time>2012-05-12T12:42:41.458Z</time>
      </trkpt>
      <trkpt lat="47.23236" lon="-0.01698">
        <ele>41</ele>
        <time>2012-05-12T12:42:45.458Z</time>
      </trkpt>
      <trkpt lat="47.23232" lon="-0.01701">
        <ele>41</ele>
        <time>2012-05-12T12:42:49.458Z</time>
      </trkpt>
      <trkpt lat="47.23228" lon="-0.01704">
        <ele>41</ele>
        <time>2012-05-12T12:42:53.458Z</time>
      </trkpt>
      <trkpt lat="47.23223" lon="-0.01708">
        <ele>41</ele>
        <time>2012-05-12T12:42:57.458Z</time>
      </trkpt>
      <trkpt lat="47.23219" lon="-0.01711">
        <ele>41</ele>
        <time>2012-05-12T12:43:01.458Z</time>
      </trkpt>
      <trkpt lat="47.23214" lon="-0.01714">
        <ele>41</ele>
        <time>2012-05-12T12:43:05.458Z</time>
      </trkpt>
      <trkpt lat="47.2321" lon="-0.01717">
        <ele>41</ele>
        <time>2012-05-12T12:43:09.458Z</time>
      </trkpt>
      <trkpt lat="47.23206" lon="-0.0172">
        <ele>41</ele>
        <time>2012-05-12T12:43:13.458Z</time>
      </trkpt>
      <trkpt lat="47.23201" lon="-0.01723">
        <ele>41</ele>
        <time>2012-05-12T12:43:17.458Z</time>
      </trkpt>
      <trkpt lat="47.23197" lon="-0.01726">
        <ele>41</ele>
        <time>2012-05-12T12:43:21.458Z</time>
      </trkpt>
      <trkpt lat="47.23193" lon="-0.01728">
        <ele>41</ele>
        <time>2012-05-12T12:43:25.458Z</time>
      </trkpt>
      <trkpt lat="47.23188" lon="-0.01732">
        <ele>42</ele>
        <time>2012-05-12T12:43:29.458Z</time>
      </trkpt>
      <trkpt lat="47.23182" lon="-0.01735">
        <ele>42</ele>
        <time>2012-05-12T12:43:33.458Z</time>
      </trkpt>
      <trkpt lat="47.23178" lon="-0.01738">
        <ele>42</ele>
        <time>2012-05-12T12:43:37.458Z</time>
      </trkpt>
      <trkpt lat="47.23173" lon="-0.01741">
        <ele>42</ele>
        <time>2012-05-12T12:43:41.458Z</time>
      </trkpt>
      <trkpt lat="47.23169" lon="-0.01743">
        <ele>42</ele>
        <time>2012-05-12T12:43:45.458Z</time>
      </trkpt>
      <trkpt lat="47.23164" lon="-0.01745">
        <ele>42</ele>
        <time>2012-05-12T12:43:49.458Z</time>
      </trkpt>
      <trkpt lat="47.2316" lon="-0.01747">
        <ele>42</ele>
        <time>2012-05-12T12:43:53.458Z</time>
      </trkpt>
      <trkpt lat="47.23155" lon="-0.01749">
        <ele>42</ele>
        <time>2012-05-12T12:43:57.458Z</time>
      </trkpt>
      <trkpt lat="47.2315" lon="-0.01751">
        <ele>43</ele>
        <time>2012-05-12T12:44:01.458Z</time>
      </trkpt>
      <trkpt lat="47.23146" lon="-0.01752">
        <ele>43</ele>
        <time>2012-05-12T12:44:05.458Z</time>
      </trkpt>
      <trkpt lat="47.23141" lon="-0.01754">
        <ele>43</ele>
        <time>2012-05-12T12:44:09.458Z</time>
      </trkpt>
      <trkpt lat="47.23136" lon="-0.01756">
        <ele>43</ele>
        <time>2012-05-12T12:44:13.458Z</time>
      </trkpt>
      <trkpt lat="47.23132" lon="-0.01756">
        <ele>43</ele>
        <time>2012-05-12T12:44:17.458Z</time>
      </trkpt>
      <trkpt lat="47.23127" lon="-0.01758">
        <ele>43</ele>
        <time>2012-05-12T12:44:21.458Z</time>
      </trkpt>
      <trkpt lat="47.23122" lon="-0.0176">
        <ele>43</ele>
        <time>2012-05-12T12:44:25.458Z</time>
      </trkpt>
      <trkpt lat="47.23118" lon="-0.01761">
        <ele>43</ele>
        <time>2012-05-12T12:44:29.458Z</time>
      </trkpt>
      <trkpt lat="47.23113" lon="-0.01763">
        <ele>43</ele>
        <time>2012-05-12T12:44:33.458Z</time>
      </trkpt>
      <trkpt lat="47.23109" lon="-0.01765">
        <ele>43</ele>
        <time>2012-05-12T12:44:37.458Z</time>
      </trkpt>
      <trkpt lat="47.23103" lon="-0.01767">
        <ele>43</ele>
        <time>2012-05-12T12:44:42.458Z</time>
      </trkpt>
      <trkpt lat="47.23098" lon="-0.01769">
        <ele>44</ele>
        <time>2012-05-12T12:44:47.458Z</time>
      </trkpt>
      <trkpt lat="47.23093" lon="-0.0177">
        <ele>44</ele>
        <time>2012-05-12T12:44:51.458Z</time>
      </trkpt>
      <trkpt lat="47.23088" lon="-0.01772">
        <ele>44</ele>
        <time>2012-05-12T12:44:55.458Z</time>
      </trkpt>
      <trkpt lat="47.23084" lon="-0.01774">
        <ele>44</ele>
        <time>2012-05-12T12:44:59.458Z</time>
      </trkpt>
      <trkpt lat="47.23079" lon="-0.01777">
        <ele>44</ele>
        <time>2012-05-12T12:45:03.458Z</time>
      </trkpt>
      <trkpt lat="47.23075" lon="-0.01779">
        <ele>44</ele>
        <time>2012-05-12T12:45:07.458Z</time>
      </trkpt>
      <trkpt lat="47.2307" lon="-0.01781">
        <ele>44</ele>
        <time>2012-05-12T12:45:11.458Z</time>
      </trkpt>
      <trkpt lat="47.23066" lon="-0.01782">
        <ele>44</ele>
        <time>2012-05-12T12:45:15.458Z</time>
      </trkpt>
      <trkpt lat="47.23061" lon="-0.01784">
        <ele>44</ele>
        <time>2012-05-12T12:45:19.458Z</time>
      </trkpt>
      <trkpt lat="47.23056" lon="-0.01786">
        <ele>44</ele>
        <time>2012-05-12T12:45:23.458Z</time>
      </trkpt>
      <trkpt lat="47.23052" lon="-0.01787">
        <ele>44</ele>
        <time>2012-05-12T12:45:27.458Z</time>
      </trkpt>
      <trkpt lat="47.23047" lon="-0.01788">
        <ele>44</ele>
        <time>2012-05-12T12:45:31.458Z</time>
      </trkpt>
      <trkpt lat="47.23042" lon="-0.01789">
        <ele>44</ele>
        <time>2012-05-12T12:45:35.458Z</time>
      </trkpt>
      <trkpt lat="47.23037" lon="-0.01791">
        <ele>44</ele>
        <time>2012-05-12T12:45:39.458Z</time>
      </trkpt>
      <trkpt lat="47.23032" lon="-0.01792">
        <ele>44</ele>
        <time>2012-05-12T12:45:44.458Z</time>
      </trkpt>
      <trkpt lat="47.23028" lon="-0.01797">
        <ele>44</ele>
        <time>2012-05-12T12:45:49.458Z</time>
      </trkpt>
      <trkpt lat="47.23027" lon="-0.01804">
        <ele>44</ele>
        <time>2012-05-12T12:45:54.458Z</time>
      </trkpt>
      <trkpt lat="47.23027" lon="-0.01811">
        <ele>44</ele>
        <time>2012-05-12T12:45:58.458Z</time>
      </trkpt>
      <trkpt lat="47.23028" lon="-0.01818">
        <ele>44</ele>
        <time>2012-05-12T12:46:02.458Z</time>
      </trkpt>
      <trkpt lat="47.23029" lon="-0.01824">
        <ele>44</ele>
        <time>2012-05-12T12:46:06.458Z</time>
      </trkpt>
      <trkpt lat="47.2303" lon="-0.01832">
        <ele>44</ele>
        <time>2012-05-12T12:46:11.458Z</time>
      </trkpt>
      <trkpt lat="47.2303" lon="-0.0184">
        <ele>45</ele>
        <time>2012-05-12T12:46:16.458Z</time>
      </trkpt>
      <trkpt lat="47.23031" lon="-0.01847">
        <ele>45</ele>
        <time>2012-05-12T12:46:21.458Z</time>
      </trkpt>
      <trkpt lat="47.23032" lon="-0.01854">
        <ele>45</ele>
        <time>2012-05-12T12:46:26.458Z</time>
      </trkpt>
      <trkpt lat="47.23032" lon="-0.01862">
        <ele>45</ele>
        <time>2012-05-12T12:46:31.458Z</time>
      </trkpt>
      <trkpt lat="47.23034" lon="-0.0187">
        <ele>45</ele>
        <time>2012-05-12T12:46:36.458Z</time>
      </trkpt>
      <trkpt lat="47.23035" lon="-0.01877">
        <ele>46</ele>
        <time>2012-05-12T12:46:41.458Z</time>
      </trkpt>
      <trkpt lat="47.23036" lon="-0.01885">
        <ele>46</ele>
        <time>2012-05-12T12:46:46.458Z</time>
      </trkpt>
      <trkpt lat="47.23037" lon="-0.01892">
        <ele>46</ele>
        <time>2012-05-12T12:46:51.458Z</time>
      </trkpt>
      <trkpt lat="47.23038" lon="-0.01899">
        <ele>46</ele>
        <time>2012-05-12T12:46:55.458Z</time>
      </trkpt>
      <trkpt lat="47.23039" lon="-0.01907">
        <ele>46</ele>
        <time>2012-05-12T12:47:00.458Z</time>
      </trkpt>
      <trkpt lat="47.2304" lon="-0.01914">
        <ele>46</ele>
        <time>2012-05-12T12:47:04.458Z</time>
      </trkpt>
      <trkpt lat="47.23042" lon="-0.0192">
        <ele>47</ele>
        <time>2012-05-12T12:47:08.458Z</time>
      </trkpt>
      <trkpt lat="47.23043" lon="-0.01928">
        <ele>47</ele>
        <time>2012-05-12T12:47:12.458Z</time>
      </trkpt>
      <trkpt lat="47.23044" lon="-0.01935">
        <ele>47</ele>
        <time>2012-05-12T12:47:16.458Z</time>
      </trkpt>
      <trkpt lat="47.23045" lon="-0.01942">
        <ele>47</ele>
        <time>2012-05-12T12:47:21.458Z</time>
      </trkpt>
      <trkpt lat="47.23046" lon="-0.0195">
        <ele>47</ele>
        <time>2012-05-12T12:47:26.458Z</time>
      </trkpt>
      <trkpt lat="47.23046" lon="-0.01957">
        <ele>47</ele>
        <time>2012-05-12T12:47:31.458Z</time>
      </trkpt>
      <trkpt lat="47.23047" lon="-0.01964">
        <ele>47</ele>
        <time>2012-05-12T12:47:36.458Z</time>
      </trkpt>
      <trkpt lat="47.23048" lon="-0.01971">
        <ele>47</ele>
        <time>2012-05-12T12:47:41.458Z</time>
      </trkpt>
      <trkpt lat="47.2305" lon="-0.01979">
        <ele>47</ele>
        <time>2012-05-12T12:47:46.458Z</time>
      </trkpt>
      <trkpt lat="47.2305" lon="-0.01986">
        <ele>47</ele>
        <time>2012-05-12T12:47:51.458Z</time>
      </trkpt>
      <trkpt lat="47.23052" lon="-0.01994">
        <ele>47</ele>
        <time>2012-05-12T12:47:56.458Z</time>
      </trkpt>
      <trkpt lat="47.23053" lon="-0.02">
        <ele>48</ele>
        <time>2012-05-12T12:48:00.458Z</time>
      </trkpt>
      <trkpt lat="47.23055" lon="-0.02007">
        <ele>48</ele>
        <time>2012-05-12T12:48:04.458Z</time>
      </trkpt>
      <trkpt lat="47.23056" lon="-0.02015">
        <ele>48</ele>
        <time>2012-05-12T12:48:09.458Z</time>
      </trkpt>
      <trkpt lat="47.23057" lon="-0.02021">
        <ele>48</ele>
        <time>2012-05-12T12:48:13.458Z</time>
      </trkpt>
      <trkpt lat="47.23059" lon="-0.02029">
        <ele>48</ele>
        <time>2012-05-12T12:48:17.458Z</time>
      </trkpt>
      <trkpt lat="47.23061" lon="-0.02036">
        <ele>48</ele>
        <time>2012-05-12T12:48:21.458Z</time>
      </trkpt>
      <trkpt lat="47.23063" lon="-0.02044">
        <ele>48</ele>
        <time>2012-05-12T12:48:25.458Z</time>
      </trkpt>
      <trkpt lat="47.23064" lon="-0.02051">
        <ele>48</ele>
        <time>2012-05-12T12:48:29.458Z</time>
      </trkpt>
      <trkpt lat="47.23066" lon="-0.02058">
        <ele>48</ele>
        <time>2012-05-12T12:48:33.458Z</time>
      </trkpt>
      <trkpt lat="47.23067" lon="-0.02065">
        <ele>48</ele>
        <time>2012-05-12T12:48:37.458Z</time>
      </trkpt>
      <trkpt lat="47.23069" lon="-0.02073">
        <ele>48</ele>
        <time>2012-05-12T12:48:42.458Z</time>
      </trkpt>
      <trkpt lat="47.2307" lon="-0.02079">
        <ele>48</ele>
        <time>2012-05-12T12:48:46.458Z</time>
      </trkpt>
      <trkpt lat="47.23071" lon="-0.02086">
        <ele>49</ele>
        <time>2012-05-12T12:48:50.458Z</time>
      </trkpt>
      <trkpt lat="47.23072" lon="-0.02093">
        <ele>49</ele>
        <time>2012-05-12T12:48:54.458Z</time>
      </trkpt>
      <trkpt lat="47.23074" lon="-0.021">
        <ele>49</ele>
        <time>2012-05-12T12:48:58.458Z</time>
      </trkpt>
      <trkpt lat="47.23075" lon="-0.02106">
        <ele>49</ele>
        <time>2012-05-12T12:49:02.458Z</time>
      </trkpt>
      <trkpt lat="47.23076" lon="-0.02113">
        <ele>50</ele>
        <time>2012-05-12T12:49:06.458Z</time>
      </trkpt>
      <trkpt lat="47.23077" lon="-0.02119">
        <ele>50</ele>
        <time>2012-05-12T12:49:10.458Z</time>
      </trkpt>
      <trkpt lat="47.23078" lon="-0.02127">
        <ele>50</ele>
        <time>2012-05-12T12:49:14.458Z</time>
      </trkpt>
      <trkpt lat="47.2308" lon="-0.02134">
        <ele>50</ele>
        <time>2012-05-12T12:49:18.458Z</time>
      </trkpt>
      <trkpt lat="47.23081" lon="-0.0214">
        <ele>50</ele>
        <time>2012-05-12T12:49:22.458Z</time>
      </trkpt>
      <trkpt lat="47.23082" lon="-0.02147">
        <ele>50</ele>
        <time>2012-05-12T12:49:26.458Z</time>
      </trkpt>
      <trkpt lat="47.23084" lon="-0.02155">
        <ele>49</ele>
        <time>2012-05-12T12:49:31.458Z</time>
      </trkpt>
      <trkpt lat="47.23085" lon="-0.02163">
        <ele>50</ele>
        <time>2012-05-12T12:49:36.458Z</time>
      </trkpt>
      <trkpt lat="47.23086" lon="-0.0217">
        <ele>50</ele>
        <time>2012-05-12T12:49:41.458Z</time>
      </trkpt>
      <trkpt lat="47.23087" lon="-0.02178">
        <ele>50</ele>
        <time>2012-05-12T12:49:46.458Z</time>
      </trkpt>
      <trkpt lat="47.23088" lon="-0.02186">
        <ele>50</ele>
        <time>2012-05-12T12:49:50.458Z</time>
      </trkpt>
      <trkpt lat="47.2309" lon="-0.02193">
        <ele>50</ele>
        <time>2012-05-12T12:49:54.458Z</time>
      </trkpt>
      <trkpt lat="47.23092" lon="-0.022">
        <ele>50</ele>
        <time>2012-05-12T12:49:58.458Z</time>
      </trkpt>
      <trkpt lat="47.23094" lon="-0.02207">
        <ele>50</ele>
        <time>2012-05-12T12:50:02.458Z</time>
      </trkpt>
      <trkpt lat="47.23095" lon="-0.02213">
        <ele>50</ele>
        <time>2012-05-12T12:50:06.458Z</time>
      </trkpt>
      <trkpt lat="47.23096" lon="-0.0222">
        <ele>50</ele>
        <time>2012-05-12T12:50:10.458Z</time>
      </trkpt>
      <trkpt lat="47.23097" lon="-0.02226">
        <ele>50</ele>
        <time>2012-05-12T12:50:14.458Z</time>
      </trkpt>
      <trkpt lat="47.23098" lon="-0.02234">
        <ele>50</ele>
        <time>2012-05-12T12:50:19.458Z</time>
      </trkpt>
      <trkpt lat="47.23099" lon="-0.02242">
        <ele>50</ele>
        <time>2012-05-12T12:50:24.458Z</time>
      </trkpt>
      <trkpt lat="47.23099" lon="-0.02249">
        <ele>50</ele>
        <time>2012-05-12T12:50:31.458Z</time>
      </trkpt>
      <trkpt lat="47.23095" lon="-0.02252">
        <ele>51</ele>
        <time>2012-05-12T12:50:44.458Z</time>
      </trkpt>
      <trkpt lat="47.23091" lon="-0.02257">
        <ele>51</ele>
        <time>2012-05-12T12:52:48.458Z</time>
      </trkpt>
      <trkpt lat="47.23087" lon="-0.02262">
        <ele>51</ele>
        <time>2012-05-12T12:52:55.458Z</time>
      </trkpt>
      <trkpt lat="47.23083" lon="-0.02266">
        <ele>52</ele>
        <time>2012-05-12T12:53:03.458Z</time>
      </trkpt>
      <trkpt lat="47.23078" lon="-0.02268">
        <ele>52</ele>
        <time>2012-05-12T12:53:12.458Z</time>
      </trkpt>
      <trkpt lat="47.23073" lon="-0.0227">
        <ele>52</ele>
        <time>2012-05-12T12:53:18.458Z</time>
      </trkpt>
      <trkpt lat="47.23068" lon="-0.02273">
        <ele>52</ele>
        <time>2012-05-12T12:53:23.458Z</time>
      </trkpt>
      <trkpt lat="47.23063" lon="-0.02276">
        <ele>53</ele>
        <time>2012-05-12T12:53:28.458Z</time>
      </trkpt>
      <trkpt lat="47.23058" lon="-0.0228">
        <ele>53</ele>
        <time>2012-05-12T12:53:33.458Z</time>
      </trkpt>
      <trkpt lat="47.23053" lon="-0.02283">
        <ele>53</ele>
        <time>2012-05-12T12:53:38.458Z</time>
      </trkpt>
      <trkpt lat="47.23049" lon="-0.02286">
        <ele>53</ele>
        <time>2012-05-12T12:53:42.458Z</time>
      </trkpt>
      <trkpt lat="47.23045" lon="-0.02289">
        <ele>53</ele>
        <time>2012-05-12T12:53:46.458Z</time>
      </trkpt>
      <trkpt lat="47.2304" lon="-0.02293">
        <ele>53</ele>
        <time>2012-05-12T12:53:50.458Z</time>
      </trkpt>
      <trkpt lat="47.23035" lon="-0.02298">
        <ele>53</ele>
        <time>2012-05-12T12:53:54.458Z</time>
      </trkpt>
      <trkpt lat="47.23031" lon="-0.02302">
        <ele>54</ele>
        <time>2012-05-12T12:53:58.458Z</time>
      </trkpt>
      <trkpt lat="47.23027" lon="-0.02306">
        <ele>54</ele>
        <time>2012-05-12T12:54:02.458Z</time>
      </trkpt>
      <trkpt lat="47.23023" lon="-0.0231">
        <ele>54</ele>
        <time>2012-05-12T12:54:06.458Z</time>
      </trkpt>
      <trkpt lat="47.23018" lon="-0.02314">
        <ele>54</ele>
        <time>2012-05-12T12:54:11.458Z</time>
      </trkpt>
      <trkpt lat="47.23013" lon="-0.02318">
        <ele>54</ele>
        <time>2012-05-12T12:54:16.458Z</time>
      </trkpt>
      <trkpt lat="47.23009" lon="-0.02322">
        <ele>55</ele>
        <time>2012-05-12T12:54:21.458Z</time>
      </trkpt>
      <trkpt lat="47.23004" lon="-0.02326">
        <ele>55</ele>
        <time>2012-05-12T12:54:26.458Z</time>
      </trkpt>
      <trkpt lat="47.23" lon="-0.02329">
        <ele>56</ele>
        <time>2012-05-12T12:54:31.458Z</time>
      </trkpt>
      <trkpt lat="47.22996" lon="-0.02332">
        <ele>56</ele>
        <time>2012-05-12T12:54:44.458Z</time>
      </trkpt>
      <trkpt lat="47.22992" lon="-0.02337">
        <ele>57</ele>
        <time>2012-05-12T12:54:48.458Z</time>
      </trkpt>
      <trkpt lat="47.2299" lon="-0.02342">
        <ele>57</ele>
        <time>2012-05-12T12:54:53.458Z</time>
      </trkpt>
      <trkpt lat="47.22992" lon="-0.02349">
        <ele>58</ele>
        <time>2012-05-12T12:55:00.458Z</time>
      </trkpt>
      <trkpt lat="47.22994" lon="-0.02356">
        <ele>58</ele>
        <time>2012-05-12T12:55:05.458Z</time>
      </trkpt>
      <trkpt lat="47.22996" lon="-0.02362">
        <ele>58</ele>
        <time>2012-05-12T12:55:09.458Z</time>
      </trkpt>
      <trkpt lat="47.22998" lon="-0.02368">
        <ele>58</ele>
        <time>2012-05-12T12:55:13.458Z</time>
      </trkpt>
      <trkpt lat="47.23" lon="-0.02374">
        <ele>58</ele>
        <time>2012-05-12T12:55:17.458Z</time>
      </trkpt>
      <trkpt lat="47.23001" lon="-0.02381">
        <ele>56</ele>
        <time>2012-05-12T12:55:21.458Z</time>
      </trkpt>
      <trkpt lat="47.23003" lon="-0.02387">
        <ele>56</ele>
        <time>2012-05-12T12:55:25.458Z</time>
      </trkpt>
      <trkpt lat="47.23005" lon="-0.02393">
        <ele>56</ele>
        <time>2012-05-12T12:55:29.458Z</time>
      </trkpt>
      <trkpt lat="47.23007" lon="-0.024">
        <ele>57</ele>
        <time>2012-05-12T12:55:33.458Z</time>
      </trkpt>
      <trkpt lat="47.2301" lon="-0.02406">
        <ele>57</ele>
        <time>2012-05-12T12:55:37.458Z</time>
      </trkpt>
      <trkpt lat="47.23012" lon="-0.02412">
        <ele>57</ele>
        <time>2012-05-12T12:55:41.458Z</time>
      </trkpt>
      <trkpt lat="47.23014" lon="-0.02419">
        <ele>58</ele>
        <time>2012-05-12T12:55:45.458Z</time>
      </trkpt>
      <trkpt lat="47.23016" lon="-0.02425">
        <ele>58</ele>
        <time>2012-05-12T12:55:49.458Z</time>
      </trkpt>
      <trkpt lat="47.23018" lon="-0.02432">
        <ele>58</ele>
        <time>2012-05-12T12:55:53.458Z</time>
      </trkpt>
      <trkpt lat="47.23021" lon="-0.02439">
        <ele>58</ele>
        <time>2012-05-12T12:55:57.458Z</time>
      </trkpt>
      <trkpt lat="47.23024" lon="-0.02446">
        <ele>58</ele>
        <time>2012-05-12T12:56:01.458Z</time>
      </trkpt>
      <trkpt lat="47.23026" lon="-0.02452">
        <ele>58</ele>
        <time>2012-05-12T12:56:05.458Z</time>
      </trkpt>
      <trkpt lat="47.23029" lon="-0.0246">
        <ele>58</ele>
        <time>2012-05-12T12:56:09.458Z</time>
      </trkpt>
      <trkpt lat="47.23031" lon="-0.02466">
        <ele>58</ele>
        <time>2012-05-12T12:56:13.458Z</time>
      </trkpt>
      <trkpt lat="47.23033" lon="-0.02472">
        <ele>58</ele>
        <time>2012-05-12T12:56:17.458Z</time>
      </trkpt>
      <trkpt lat="47.23034" lon="-0.02478">
        <ele>58</ele>
        <time>2012-05-12T12:56:21.458Z</time>
      </trkpt>
      <trkpt lat="47.23036" lon="-0.02485">
        <ele>58</ele>
        <time>2012-05-12T12:56:25.458Z</time>
      </trkpt>
      <trkpt lat="47.23038" lon="-0.02491">
        <ele>58</ele>
        <time>2012-05-12T12:56:29.458Z</time>
      </trkpt>
      <trkpt lat="47.2304" lon="-0.02497">
        <ele>58</ele>
        <time>2012-05-12T12:56:33.458Z</time>
      </trkpt>
      <trkpt lat="47.23042" lon="-0.02503">
        <ele>59</ele>
        <time>2012-05-12T12:56:37.458Z</time>
      </trkpt>
      <trkpt lat="47.23045" lon="-0.02509">
        <ele>59</ele>
        <time>2012-05-12T12:56:41.458Z</time>
      </trkpt>
      <trkpt lat="47.23047" lon="-0.02515">
        <ele>59</ele>
        <time>2012-05-12T12:56:45.458Z</time>
      </trkpt>
      <trkpt lat="47.2305" lon="-0.02522">
        <ele>59</ele>
        <time>2012-05-12T12:56:49.458Z</time>
      </trkpt>
      <trkpt lat="47.23052" lon="-0.02527">
        <ele>58</ele>
        <time>2012-05-12T12:56:53.458Z</time>
      </trkpt>
      <trkpt lat="47.23054" lon="-0.02533">
        <ele>58</ele>
        <time>2012-05-12T12:56:57.458Z</time>
      </trkpt>
      <trkpt lat="47.23057" lon="-0.02539">
        <ele>58</ele>
        <time>2012-05-12T12:57:01.458Z</time>
      </trkpt>
      <trkpt lat="47.2306" lon="-0.02545">
        <ele>58</ele>
        <time>2012-05-12T12:57:05.458Z</time>
      </trkpt>
      <trkpt lat="47.23062" lon="-0.02552">
        <ele>58</ele>
        <time>2012-05-12T12:57:09.458Z</time>
      </trkpt>
      <trkpt lat="47.23065" lon="-0.02559">
        <ele>58</ele>
        <time>2012-05-12T12:57:13.458Z</time>
      </trkpt>
      <trkpt lat="47.23067" lon="-0.02565">
        <ele>58</ele>
        <time>2012-05-12T12:57:17.458Z</time>
      </trkpt>
      <trkpt lat="47.2307" lon="-0.02572">
        <ele>58</ele>
        <time>2012-05-12T12:57:21.458Z</time>
      </trkpt>
      <trkpt lat="47.23072" lon="-0.02578">
        <ele>58</ele>
        <time>2012-05-12T12:57:25.458Z</time>
      </trkpt>
      <trkpt lat="47.23074" lon="-0.02584">
        <ele>58</ele>
        <time>2012-05-12T12:57:29.458Z</time>
      </trkpt>
      <trkpt lat="47.23076" lon="-0.0259">
        <ele>58</ele>
        <time>2012-05-12T12:57:33.458Z</time>
      </trkpt>
      <trkpt lat="47.23078" lon="-0.02596">
        <ele>59</ele>
        <time>2012-05-12T12:57:37.458Z</time>
      </trkpt>
      <trkpt lat="47.2308" lon="-0.02603">
        <ele>59</ele>
        <time>2012-05-12T12:57:42.458Z</time>
      </trkpt>
      <trkpt lat="47.23082" lon="-0.02609">
        <ele>60</ele>
        <time>2012-05-12T12:57:47.458Z</time>
      </trkpt>
      <trkpt lat="47.23081" lon="-0.02616">
        <ele>60</ele>
        <time>2012-05-12T12:57:53.458Z</time>
      </trkpt>
      <trkpt lat="47.23077" lon="-0.02619">
        <ele>60</ele>
        <time>2012-05-12T12:57:57.458Z</time>
      </trkpt>
      <trkpt lat="47.23072" lon="-0.02621">
        <ele>60</ele>
        <time>2012-05-12T12:58:01.458Z</time>
      </trkpt>
      <trkpt lat="47.23067" lon="-0.02622">
        <ele>60</ele>
        <time>2012-05-12T12:58:05.458Z</time>
      </trkpt>
      <trkpt lat="47.23062" lon="-0.02624">
        <ele>61</ele>
        <time>2012-05-12T12:58:10.458Z</time>
      </trkpt>
      <trkpt lat="47.23056" lon="-0.02627">
        <ele>61</ele>
        <time>2012-05-12T12:58:15.458Z</time>
      </trkpt>
      <trkpt lat="47.23052" lon="-0.0263">
        <ele>61</ele>
        <time>2012-05-12T12:58:19.458Z</time>
      </trkpt>
      <trkpt lat="47.23048" lon="-0.02632">
        <ele>61</ele>
        <time>2012-05-12T12:58:23.458Z</time>
      </trkpt>
      <trkpt lat="47.23043" lon="-0.02635">
        <ele>61</ele>
        <time>2012-05-12T12:58:28.458Z</time>
      </trkpt>
      <trkpt lat="47.23039" lon="-0.02638">
        <ele>61</ele>
        <time>2012-05-12T12:58:32.458Z</time>
      </trkpt>
      <trkpt lat="47.23035" lon="-0.02642">
        <ele>62</ele>
        <time>2012-05-12T12:58:36.458Z</time>
      </trkpt>
      <trkpt lat="47.2303" lon="-0.02646">
        <ele>62</ele>
        <time>2012-05-12T12:58:40.458Z</time>
      </trkpt>
      <trkpt lat="47.23026" lon="-0.02651">
        <ele>62</ele>
        <time>2012-05-12T12:58:44.458Z</time>
      </trkpt>
      <trkpt lat="47.23022" lon="-0.02656">
        <ele>62</ele>
        <time>2012-05-12T12:58:48.458Z</time>
      </trkpt>
      <trkpt lat="47.23019" lon="-0.0266">
        <ele>62</ele>
        <time>2012-05-12T12:58:52.458Z</time>
      </trkpt>
      <trkpt lat="47.23015" lon="-0.02665">
        <ele>63</ele>
        <time>2012-05-12T12:58:57.458Z</time>
      </trkpt>
      <trkpt lat="47.23011" lon="-0.0267">
        <ele>64</ele>
        <time>2012-05-12T12:59:02.458Z</time>
      </trkpt>
      <trkpt lat="47.23007" lon="-0.02674">
        <ele>64</ele>
        <time>2012-05-12T12:59:07.458Z</time>
      </trkpt>
      <trkpt lat="47.23003" lon="-0.02679">
        <ele>64</ele>
        <time>2012-05-12T12:59:12.458Z</time>
      </trkpt>
      <trkpt lat="47.22998" lon="-0.02683">
        <ele>68</ele>
        <time>2012-05-12T12:59:17.458Z</time>
      </trkpt>
      <trkpt lat="47.22994" lon="-0.02687">
        <ele>68</ele>
        <time>2012-05-12T12:59:22.458Z</time>
      </trkpt>
      <trkpt lat="47.2299" lon="-0.02692">
        <ele>69</ele>
        <time>2012-05-12T12:59:27.458Z</time>
      </trkpt>
      <trkpt lat="47.22986" lon="-0.02697">
        <ele>70</ele>
        <time>2012-05-12T12:59:32.458Z</time>
      </trkpt>
      <trkpt lat="47.22982" lon="-0.02702">
        <ele>70</ele>
        <time>2012-05-12T12:59:37.458Z</time>
      </trkpt>
      <trkpt lat="47.22978" lon="-0.02708">
        <ele>71</ele>
        <time>2012-05-12T12:59:42.458Z</time>
      </trkpt>
      <trkpt lat="47.22976" lon="-0.02714">
        <ele>71</ele>
        <time>2012-05-12T12:59:46.458Z</time>
      </trkpt>
      <trkpt lat="47.22974" lon="-0.02721">
        <ele>72</ele>
        <time>2012-05-12T12:59:51.458Z</time>
      </trkpt>
      <trkpt lat="47.22973" lon="-0.02728">
        <ele>72</ele>
        <time>2012-05-12T12:59:55.458Z</time>
      </trkpt>
      <trkpt lat="47.22973" lon="-0.02736">
        <ele>72</ele>
        <time>2012-05-12T13:00:00.458Z</time>
      </trkpt>
      <trkpt lat="47.22975" lon="-0.02742">
        <ele>72</ele>
        <time>2012-05-12T13:00:04.458Z</time>
      </trkpt>
      <trkpt lat="47.22975" lon="-0.02749">
        <ele>72</ele>
        <time>2012-05-12T13:00:08.458Z</time>
      </trkpt>
      <trkpt lat="47.22976" lon="-0.02756">
        <ele>75</ele>
        <time>2012-05-12T13:00:12.458Z</time>
      </trkpt>
      <trkpt lat="47.22978" lon="-0.02762">
        <ele>75</ele>
        <time>2012-05-12T13:00:16.458Z</time>
      </trkpt>
      <trkpt lat="47.22979" lon="-0.02769">
        <ele>75</ele>
        <time>2012-05-12T13:00:20.458Z</time>
      </trkpt>
      <trkpt lat="47.22979" lon="-0.02776">
        <ele>76</ele>
        <time>2012-05-12T13:00:24.458Z</time>
      </trkpt>
      <trkpt lat="47.22979" lon="-0.02783">
        <ele>76</ele>
        <time>2012-05-12T13:00:28.458Z</time>
      </trkpt>
      <trkpt lat="47.22978" lon="-0.02789">
        <ele>77</ele>
        <time>2012-05-12T13:00:33.458Z</time>
      </trkpt>
      <trkpt lat="47.22976" lon="-0.02796">
        <ele>77</ele>
        <time>2012-05-12T13:00:38.458Z</time>
      </trkpt>
      <trkpt lat="47.22974" lon="-0.02803">
        <ele>77</ele>
        <time>2012-05-12T13:00:43.458Z</time>
      </trkpt>
      <trkpt lat="47.22971" lon="-0.0281">
        <ele>78</ele>
        <time>2012-05-12T13:00:48.458Z</time>
      </trkpt>
      <trkpt lat="47.22969" lon="-0.02817">
        <ele>78</ele>
        <time>2012-05-12T13:00:53.458Z</time>
      </trkpt>
      <trkpt lat="47.22965" lon="-0.0282">
        <ele>78</ele>
        <time>2012-05-12T13:00:58.458Z</time>
      </trkpt>
      <trkpt lat="47.2296" lon="-0.02819">
        <ele>79</ele>
        <time>2012-05-12T13:01:02.458Z</time>
      </trkpt>
      <trkpt lat="47.22954" lon="-0.02817">
        <ele>79</ele>
        <time>2012-05-12T13:01:06.458Z</time>
      </trkpt>
      <trkpt lat="47.22949" lon="-0.02814">
        <ele>79</ele>
        <time>2012-05-12T13:01:10.458Z</time>
      </trkpt>
      <trkpt lat="47.22945" lon="-0.02809">
        <ele>79</ele>
        <time>2012-05-12T13:01:14.458Z</time>
      </trkpt>
      <trkpt lat="47.22942" lon="-0.02804">
        <ele>79</ele>
        <time>2012-05-12T13:01:19.458Z</time>
      </trkpt>
      <trkpt lat="47.22938" lon="-0.02799">
        <ele>80</ele>
        <time>2012-05-12T13:01:24.458Z</time>
      </trkpt>
      <trkpt lat="47.22934" lon="-0.02794">
        <ele>80</ele>
        <time>2012-05-12T13:01:29.458Z</time>
      </trkpt>
      <trkpt lat="47.22931" lon="-0.02789">
        <ele>80</ele>
        <time>2012-05-12T13:01:34.458Z</time>
      </trkpt>
      <trkpt lat="47.22928" lon="-0.02783">
        <ele>80</ele>
        <time>2012-05-12T13:01:40.458Z</time>
      </trkpt>
      <trkpt lat="47.22924" lon="-0.0278">
        <ele>80</ele>
        <time>2012-05-12T13:01:45.458Z</time>
      </trkpt>
      <trkpt lat="47.22919" lon="-0.02778">
        <ele>80</ele>
        <time>2012-05-12T13:01:50.458Z</time>
      </trkpt>
      <trkpt lat="47.22915" lon="-0.02776">
        <ele>84</ele>
        <time>2012-05-12T13:01:55.458Z</time>
      </trkpt>
      <trkpt lat="47.2291" lon="-0.02773">
        <ele>84</ele>
        <time>2012-05-12T13:02:00.458Z</time>
      </trkpt>
      <trkpt lat="47.22905" lon="-0.02772">
        <ele>84</ele>
        <time>2012-05-12T13:02:05.458Z</time>
      </trkpt>
      <trkpt lat="47.229" lon="-0.02771">
        <ele>84</ele>
        <time>2012-05-12T13:02:09.458Z</time>
      </trkpt>
      <trkpt lat="47.22896" lon="-0.02771">
        <ele>84</ele>
        <time>2012-05-12T13:02:13.458Z</time>
      </trkpt>
      <trkpt lat="47.22891" lon="-0.02771">
        <ele>85</ele>
        <time>2012-05-12T13:02:17.458Z</time>
      </trkpt>
      <trkpt lat="47.22886" lon="-0.02773">
        <ele>85</ele>
        <time>2012-05-12T13:02:22.458Z</time>
      </trkpt>
      <trkpt lat="47.22881" lon="-0.02774">
        <ele>85</ele>
        <time>2012-05-12T13:02:27.458Z</time>
      </trkpt>
      <trkpt lat="47.22877" lon="-0.02778">
        <ele>85</ele>
        <time>2012-05-12T13:02:31.458Z</time>
      </trkpt>
      <trkpt lat="47.22873" lon="-0.02782">
        <ele>85</ele>
        <time>2012-05-12T13:02:36.458Z</time>
      </trkpt>
      <trkpt lat="47.22868" lon="-0.02785">
        <ele>85</ele>
        <time>2012-05-12T13:02:41.458Z</time>
      </trkpt>
      <trkpt lat="47.22864" lon="-0.02787">
        <ele>85</ele>
        <time>2012-05-12T13:02:46.458Z</time>
      </trkpt>
      <trkpt lat="47.22859" lon="-0.02789">
        <ele>86</ele>
        <time>2012-05-12T13:02:52.458Z</time>
      </trkpt>
      <trkpt lat="47.22861" lon="-0.02794">
        <ele>86</ele>
        <time>2012-05-12T13:03:28.458Z</time>
      </trkpt>
      <trkpt lat="47.22861" lon="-0.02801">
        <ele>86</ele>
        <time>2012-05-12T13:04:26.458Z</time>
      </trkpt>
      <trkpt lat="47.2286" lon="-0.02807">
        <ele>86</ele>
        <time>2012-05-12T13:04:50.458Z</time>
      </trkpt>
      <trkpt lat="47.22855" lon="-0.02808">
        <ele>86</ele>
        <time>2012-05-12T13:05:23.458Z</time>
      </trkpt>
      <trkpt lat="47.22854" lon="-0.02801">
        <ele>86</ele>
        <time>2012-05-12T13:05:51.458Z</time>
      </trkpt>
      <trkpt lat="47.22858" lon="-0.02796">
        <ele>86</ele>
        <time>2012-05-12T13:06:19.458Z</time>
      </trkpt>
      <trkpt lat="47.22853" lon="-0.02795">
        <ele>86</ele>
        <time>2012-05-12T13:07:00.458Z</time>
      </trkpt>
      <trkpt lat="47.22848" lon="-0.02796">
        <ele>86</ele>
        <time>2012-05-12T13:07:04.458Z</time>
      </trkpt>
      <trkpt lat="47.22842" lon="-0.02796">
        <ele>86</ele>
        <time>2012-05-12T13:07:09.458Z</time>
      </trkpt>
      <trkpt lat="47.22837" lon="-0.02797">
        <ele>86</ele>
        <time>2012-05-12T13:07:15.458Z</time>
      </trkpt>
      <trkpt lat="47.22832" lon="-0.02797">
        <ele>86</ele>
        <time>2012-05-12T13:07:20.458Z</time>
      </trkpt>
      <trkpt lat="47.22827" lon="-0.02796">
        <ele>86</ele>
        <time>2012-05-12T13:07:27.458Z</time>
      </trkpt>
      <trkpt lat="47.22822" lon="-0.02794">
        <ele>86</ele>
        <time>2012-05-12T13:07:34.458Z</time>
      </trkpt>
      <trkpt lat="47.22816" lon="-0.02793">
        <ele>86</ele>
        <time>2012-05-12T13:07:39.458Z</time>
      </trkpt>
      <trkpt lat="47.22812" lon="-0.02792">
        <ele>86</ele>
        <time>2012-05-12T13:07:43.458Z</time>
      </trkpt>
      <trkpt lat="47.22806" lon="-0.0279">
        <ele>86</ele>
        <time>2012-05-12T13:07:47.458Z</time>
      </trkpt>
      <trkpt lat="47.228" lon="-0.02789">
        <ele>86</ele>
        <time>2012-05-12T13:07:51.458Z</time>
      </trkpt>
      <trkpt lat="47.22796" lon="-0.02788">
        <ele>86</ele>
        <time>2012-05-12T13:07:54.458Z</time>
      </trkpt>
      <trkpt lat="47.22791" lon="-0.02788">
        <ele>86</ele>
        <time>2012-05-12T13:07:57.458Z</time>
      </trkpt>
      <trkpt lat="47.22786" lon="-0.02787">
        <ele>86</ele>
        <time>2012-05-12T13:08:01.458Z</time>
      </trkpt>
      <trkpt lat="47.2278" lon="-0.02786">
        <ele>86</ele>
        <time>2012-05-12T13:08:05.458Z</time>
      </trkpt>
      <trkpt lat="47.22775" lon="-0.02786">
        <ele>86</ele>
        <time>2012-05-12T13:08:09.458Z</time>
      </trkpt>
      <trkpt lat="47.2277" lon="-0.02786">
        <ele>86</ele>
        <time>2012-05-12T13:08:13.458Z</time>
      </trkpt>
      <trkpt lat="47.22766" lon="-0.02786">
        <ele>86</ele>
        <time>2012-05-12T13:08:17.458Z</time>
      </trkpt>
      <trkpt lat="47.22761" lon="-0.02786">
        <ele>86</ele>
        <time>2012-05-12T13:08:21.458Z</time>
      </trkpt>
      <trkpt lat="47.22756" lon="-0.02786">
        <ele>86</ele>
        <time>2012-05-12T13:08:25.458Z</time>
      </trkpt>
      <trkpt lat="47.22751" lon="-0.02787">
        <ele>86</ele>
        <time>2012-05-12T13:08:29.458Z</time>
      </trkpt>
      <trkpt lat="47.22746" lon="-0.02787">
        <ele>84</ele>
        <time>2012-05-12T13:08:33.458Z</time>
      </trkpt>
      <trkpt lat="47.22741" lon="-0.02787">
        <ele>84</ele>
        <time>2012-05-12T13:08:40.458Z</time>
      </trkpt>
      <trkpt lat="47.22736" lon="-0.02787">
        <ele>84</ele>
        <time>2012-05-12T13:08:47.458Z</time>
      </trkpt>
      <trkpt lat="47.22731" lon="-0.02786">
        <ele>84</ele>
        <time>2012-05-12T13:08:51.458Z</time>
      </trkpt>
      <trkpt lat="47.22725" lon="-0.02786">
        <ele>84</ele>
        <time>2012-05-12T13:08:55.458Z</time>
      </trkpt>
      <trkpt lat="47.22721" lon="-0.02786">
        <ele>84</ele>
        <time>2012-05-12T13:08:58.458Z</time>
      </trkpt>
      <trkpt lat="47.22716" lon="-0.02787">
        <ele>84</ele>
        <time>2012-05-12T13:09:01.458Z</time>
      </trkpt>
      <trkpt lat="47.2271" lon="-0.02788">
        <ele>84</ele>
        <time>2012-05-12T13:09:04.458Z</time>
      </trkpt>
      <trkpt lat="47.22706" lon="-0.02789">
        <ele>84</ele>
        <time>2012-05-12T13:09:07.458Z</time>
      </trkpt>
      <trkpt lat="47.227" lon="-0.0279">
        <ele>84</ele>
        <time>2012-05-12T13:09:12.458Z</time>
      </trkpt>
      <trkpt lat="47.22696" lon="-0.02792">
        <ele>84</ele>
        <time>2012-05-12T13:09:16.458Z</time>
      </trkpt>
      <trkpt lat="47.22691" lon="-0.02797">
        <ele>83</ele>
        <time>2012-05-12T13:09:20.458Z</time>
      </trkpt>
      <trkpt lat="47.22687" lon="-0.02801">
        <ele>83</ele>
        <time>2012-05-12T13:09:23.458Z</time>
      </trkpt>
      <trkpt lat="47.22683" lon="-0.02806">
        <ele>83</ele>
        <time>2012-05-12T13:09:26.458Z</time>
      </trkpt>
      <trkpt lat="47.22679" lon="-0.02812">
        <ele>82</ele>
        <time>2012-05-12T13:09:29.458Z</time>
      </trkpt>
      <trkpt lat="47.22675" lon="-0.02818">
        <ele>81</ele>
        <time>2012-05-12T13:09:32.458Z</time>
      </trkpt>
      <trkpt lat="47.22673" lon="-0.02824">
        <ele>81</ele>
        <time>2012-05-12T13:09:35.458Z</time>
      </trkpt>
      <trkpt lat="47.2267" lon="-0.0283">
        <ele>80</ele>
        <time>2012-05-12T13:09:38.458Z</time>
      </trkpt>
      <trkpt lat="47.22668" lon="-0.02838">
        <ele>79</ele>
        <time>2012-05-12T13:09:42.458Z</time>
      </trkpt>
      <trkpt lat="47.22666" lon="-0.02845">
        <ele>78</ele>
        <time>2012-05-12T13:09:46.458Z</time>
      </trkpt>
      <trkpt lat="47.22664" lon="-0.02854">
        <ele>78</ele>
        <time>2012-05-12T13:09:50.458Z</time>
      </trkpt>
      <trkpt lat="47.22662" lon="-0.02861">
        <ele>78</ele>
        <time>2012-05-12T13:09:54.458Z</time>
      </trkpt>
      <trkpt lat="47.2266" lon="-0.02869">
        <ele>77</ele>
        <time>2012-05-12T13:09:58.458Z</time>
      </trkpt>
      <trkpt lat="47.22659" lon="-0.02876">
        <ele>77</ele>
        <time>2012-05-12T13:10:02.458Z</time>
      </trkpt>
      <trkpt lat="47.22658" lon="-0.02884">
        <ele>77</ele>
        <time>2012-05-12T13:10:06.458Z</time>
      </trkpt>
      <trkpt lat="47.22656" lon="-0.02892">
        <ele>77</ele>
        <time>2012-05-12T13:10:10.458Z</time>
      </trkpt>
      <trkpt lat="47.22655" lon="-0.029">
        <ele>77</ele>
        <time>2012-05-12T13:10:14.458Z</time>
      </trkpt>
      <trkpt lat="47.22654" lon="-0.02908">
        <ele>77</ele>
        <time>2012-05-12T13:10:18.458Z</time>
      </trkpt>
      <trkpt lat="47.22653" lon="-0.02916">
        <ele>77</ele>
        <time>2012-05-12T13:10:22.458Z</time>
      </trkpt>
      <trkpt lat="47.22652" lon="-0.02923">
        <ele>78</ele>
        <time>2012-05-12T13:10:26.458Z</time>
      </trkpt>
      <trkpt lat="47.22651" lon="-0.02931">
        <ele>78</ele>
        <time>2012-05-12T13:10:30.458Z</time>
      </trkpt>
      <trkpt lat="47.22649" lon="-0.02938">
        <ele>78</ele>
        <time>2012-05-12T13:10:34.458Z</time>
      </trkpt>
      <trkpt lat="47.22648" lon="-0.02945">
        <ele>78</ele>
        <time>2012-05-12T13:10:38.458Z</time>
      </trkpt>
      <trkpt lat="47.22647" lon="-0.02953">
        <ele>78</ele>
        <time>2012-05-12T13:10:42.458Z</time>
      </trkpt>
      <trkpt lat="47.22646" lon="-0.0296">
        <ele>78</ele>
        <time>2012-05-12T13:10:46.458Z</time>
      </trkpt>
      <trkpt lat="47.22645" lon="-0.02968">
        <ele>78</ele>
        <time>2012-05-12T13:10:51.458Z</time>
      </trkpt>
      <trkpt lat="47.22644" lon="-0.02975">
        <ele>78</ele>
        <time>2012-05-12T13:10:55.458Z</time>
      </trkpt>
      <trkpt lat="47.22644" lon="-0.02982">
        <ele>79</ele>
        <time>2012-05-12T13:10:59.458Z</time>
      </trkpt>
      <trkpt lat="47.22643" lon="-0.0299">
        <ele>79</ele>
        <time>2012-05-12T13:11:03.458Z</time>
      </trkpt>
      <trkpt lat="47.22642" lon="-0.02998">
        <ele>79</ele>
        <time>2012-05-12T13:11:07.458Z</time>
      </trkpt>
      <trkpt lat="47.22642" lon="-0.03005">
        <ele>80</ele>
        <time>2012-05-12T13:11:10.458Z</time>
      </trkpt>
      <trkpt lat="47.22642" lon="-0.03013">
        <ele>80</ele>
        <time>2012-05-12T13:11:14.458Z</time>
      </trkpt>
      <trkpt lat="47.22641" lon="-0.0302">
        <ele>80</ele>
        <time>2012-05-12T13:11:18.458Z</time>
      </trkpt>
      <trkpt lat="47.22641" lon="-0.03028">
        <ele>80</ele>
        <time>2012-05-12T13:11:22.458Z</time>
      </trkpt>
      <trkpt lat="47.22642" lon="-0.03035">
        <ele>80</ele>
        <time>2012-05-12T13:11:27.458Z</time>
      </trkpt>
      <trkpt lat="47.22644" lon="-0.03043">
        <ele>80</ele>
        <time>2012-05-12T13:11:32.458Z</time>
      </trkpt>
      <trkpt lat="47.22644" lon="-0.03051">
        <ele>80</ele>
        <time>2012-05-12T13:11:37.458Z</time>
      </trkpt>
      <trkpt lat="47.22644" lon="-0.03059">
        <ele>80</ele>
        <time>2012-05-12T13:11:42.458Z</time>
      </trkpt>
      <trkpt lat="47.22644" lon="-0.03067">
        <ele>80</ele>
        <time>2012-05-12T13:11:47.458Z</time>
      </trkpt>
      <trkpt lat="47.22644" lon="-0.03075">
        <ele>80</ele>
        <time>2012-05-12T13:11:52.458Z</time>
      </trkpt>
      <trkpt lat="47.22644" lon="-0.03082">
        <ele>80</ele>
        <time>2012-05-12T13:11:56.458Z</time>
      </trkpt>
      <trkpt lat="47.22644" lon="-0.03088">
        <ele>79</ele>
        <time>2012-05-12T13:12:00.458Z</time>
      </trkpt>
      <trkpt lat="47.22642" lon="-0.03096">
        <ele>79</ele>
        <time>2012-05-12T13:12:05.458Z</time>
      </trkpt>
      <trkpt lat="47.22639" lon="-0.03102">
        <ele>79</ele>
        <time>2012-05-12T13:12:10.458Z</time>
      </trkpt>
      <trkpt lat="47.22634" lon="-0.03105">
        <ele>79</ele>
        <time>2012-05-12T13:12:15.458Z</time>
      </trkpt>
      <trkpt lat="47.22629" lon="-0.03107">
        <ele>79</ele>
        <time>2012-05-12T13:12:20.458Z</time>
      </trkpt>
      <trkpt lat="47.22624" lon="-0.03109">
        <ele>79</ele>
        <time>2012-05-12T13:12:25.458Z</time>
      </trkpt>
      <trkpt lat="47.22619" lon="-0.03111">
        <ele>78</ele>
        <time>2012-05-12T13:12:30.458Z</time>
      </trkpt>
      <trkpt lat="47.22614" lon="-0.03113">
        <ele>78</ele>
        <time>2012-05-12T13:12:35.458Z</time>
      </trkpt>
      <trkpt lat="47.2261" lon="-0.03116">
        <ele>78</ele>
        <time>2012-05-12T13:12:40.458Z</time>
      </trkpt>
      <trkpt lat="47.22604" lon="-0.03118">
        <ele>78</ele>
        <time>2012-05-12T13:12:45.458Z</time>
      </trkpt>
      <trkpt lat="47.226" lon="-0.0312">
        <ele>78</ele>
        <time>2012-05-12T13:12:50.458Z</time>
      </trkpt>
      <trkpt lat="47.22595" lon="-0.03123">
        <ele>78</ele>
        <time>2012-05-12T13:12:56.458Z</time>
      </trkpt>
      <trkpt lat="47.22591" lon="-0.03126">
        <ele>78</ele>
        <time>2012-05-12T13:13:01.458Z</time>
      </trkpt>
      <trkpt lat="47.22587" lon="-0.03131">
        <ele>78</ele>
        <time>2012-05-12T13:13:07.458Z</time>
      </trkpt>
      <trkpt lat="47.22585" lon="-0.03137">
        <ele>77</ele>
        <time>2012-05-12T13:13:19.458Z</time>
      </trkpt>
      <trkpt lat="47.22583" lon="-0.03144">
        <ele>75</ele>
        <time>2012-05-12T13:13:24.458Z</time>
      </trkpt>
      <trkpt lat="47.22582" lon="-0.03152">
        <ele>75</ele>
        <time>2012-05-12T13:13:29.458Z</time>
      </trkpt>
      <trkpt lat="47.2258" lon="-0.03159">
        <ele>75</ele>
        <time>2012-05-12T13:13:34.458Z</time>
      </trkpt>
      <trkpt lat="47.22579" lon="-0.03166">
        <ele>75</ele>
        <time>2012-05-12T13:13:39.458Z</time>
      </trkpt>
      <trkpt lat="47.22578" lon="-0.03173">
        <ele>74</ele>
        <time>2012-05-12T13:13:44.458Z</time>
      </trkpt>
      <trkpt lat="47.22577" lon="-0.0318">
        <ele>74</ele>
        <time>2012-05-12T13:13:49.458Z</time>
      </trkpt>
      <trkpt lat="47.22577" lon="-0.03187">
        <ele>74</ele>
        <time>2012-05-12T13:13:54.458Z</time>
      </trkpt>
      <trkpt lat="47.22576" lon="-0.03194">
        <ele>74</ele>
        <time>2012-05-12T13:13:59.458Z</time>
      </trkpt>
      <trkpt lat="47.22575" lon="-0.03201">
        <ele>74</ele>
        <time>2012-05-12T13:14:03.458Z</time>
      </trkpt>
      <trkpt lat="47.22574" lon="-0.03208">
        <ele>74</ele>
        <time>2012-05-12T13:14:06.458Z</time>
      </trkpt>
      <trkpt lat="47.22572" lon="-0.03215">
        <ele>74</ele>
        <time>2012-05-12T13:14:10.458Z</time>
      </trkpt>
      <trkpt lat="47.2257" lon="-0.03221">
        <ele>74</ele>
        <time>2012-05-12T13:14:14.458Z</time>
      </trkpt>
      <trkpt lat="47.22568" lon="-0.03229">
        <ele>74</ele>
        <time>2012-05-12T13:14:19.458Z</time>
      </trkpt>
      <trkpt lat="47.22566" lon="-0.03236">
        <ele>74</ele>
        <time>2012-05-12T13:14:24.458Z</time>
      </trkpt>
      <trkpt lat="47.22565" lon="-0.03243">
        <ele>74</ele>
        <time>2012-05-12T13:14:29.458Z</time>
      </trkpt>
      <trkpt lat="47.22563" lon="-0.0325">
        <ele>75</ele>
        <time>2012-05-12T13:14:34.458Z</time>
      </trkpt>
      <trkpt lat="47.2256" lon="-0.03257">
        <ele>75</ele>
        <time>2012-05-12T13:14:39.458Z</time>
      </trkpt>
      <trkpt lat="47.22557" lon="-0.03264">
        <ele>75</ele>
        <time>2012-05-12T13:14:44.458Z</time>
      </trkpt>
      <trkpt lat="47.22555" lon="-0.03271">
        <ele>75</ele>
        <time>2012-05-12T13:14:49.458Z</time>
      </trkpt>
      <trkpt lat="47.22554" lon="-0.03278">
        <ele>75</ele>
        <time>2012-05-12T13:14:54.458Z</time>
      </trkpt>
      <trkpt lat="47.22553" lon="-0.03284">
        <ele>75</ele>
        <time>2012-05-12T13:14:59.458Z</time>
      </trkpt>
      <trkpt lat="47.22553" lon="-0.03291">
        <ele>76</ele>
        <time>2012-05-12T13:15:04.458Z</time>
      </trkpt>
      <trkpt lat="47.22554" lon="-0.03298">
        <ele>76</ele>
        <time>2012-05-12T13:15:10.458Z</time>
      </trkpt>
      <trkpt lat="47.22554" lon="-0.03306">
        <ele>76</ele>
        <time>2012-05-12T13:15:15.458Z</time>
      </trkpt>
      <trkpt lat="47.22554" lon="-0.03313">
        <ele>76</ele>
        <time>2012-05-12T13:15:20.458Z</time>
      </trkpt>
      <trkpt lat="47.22555" lon="-0.03321">
        <ele>77</ele>
        <time>2012-05-12T13:15:25.458Z</time>
      </trkpt>
      <trkpt lat="47.22555" lon="-0.03328">
        <ele>77</ele>
        <time>2012-05-12T13:15:30.458Z</time>
      </trkpt>
      <trkpt lat="47.22558" lon="-0.03334">
        <ele>78</ele>
        <time>2012-05-12T13:15:35.458Z</time>
      </trkpt>
      <trkpt lat="47.22562" lon="-0.03339">
        <ele>79</ele>
        <time>2012-05-12T13:15:40.458Z</time>
      </trkpt>
      <trkpt lat="47.22565" lon="-0.03345">
        <ele>79</ele>
        <time>2012-05-12T13:15:46.458Z</time>
      </trkpt>
      <trkpt lat="47.22567" lon="-0.03351">
        <ele>79</ele>
        <time>2012-05-12T13:15:51.458Z</time>
      </trkpt>
      <trkpt lat="47.22569" lon="-0.03358">
        <ele>79</ele>
        <time>2012-05-12T13:15:56.458Z</time>
      </trkpt>
      <trkpt lat="47.22571" lon="-0.03365">
        <ele>79</ele>
        <time>2012-05-12T13:16:01.458Z</time>
      </trkpt>
      <trkpt lat="47.22574" lon="-0.03372">
        <ele>79</ele>
        <time>2012-05-12T13:16:06.458Z</time>
      </trkpt>
      <trkpt lat="47.22576" lon="-0.03378">
        <ele>79</ele>
        <time>2012-05-12T13:16:11.458Z</time>
      </trkpt>
      <trkpt lat="47.22578" lon="-0.03385">
        <ele>79</ele>
        <time>2012-05-12T13:16:16.458Z</time>
      </trkpt>
      <trkpt lat="47.22578" lon="-0.03392">
        <ele>79</ele>
        <time>2012-05-12T13:16:21.458Z</time>
      </trkpt>
      <trkpt lat="47.22579" lon="-0.03399">
        <ele>80</ele>
        <time>2012-05-12T13:16:25.458Z</time>
      </trkpt>
      <trkpt lat="47.2258" lon="-0.0341">
        <ele>81</ele>
        <time>2012-05-12T13:16:29.458Z</time>
      </trkpt>
      <trkpt lat="47.22581" lon="-0.03418">
        <ele>82</ele>
        <time>2012-05-12T13:16:33.458Z</time>
      </trkpt>
      <trkpt lat="47.22582" lon="-0.03425">
        <ele>81</ele>
        <time>2012-05-12T13:16:37.458Z</time>
      </trkpt>
      <trkpt lat="47.22582" lon="-0.03432">
        <ele>80</ele>
        <time>2012-05-12T13:16:41.458Z</time>
      </trkpt>
      <trkpt lat="47.22582" lon="-0.03439">
        <ele>80</ele>
        <time>2012-05-12T13:16:44.458Z</time>
      </trkpt>
      <trkpt lat="47.22583" lon="-0.03446">
        <ele>79</ele>
        <time>2012-05-12T13:16:48.458Z</time>
      </trkpt>
      <trkpt lat="47.22584" lon="-0.03453">
        <ele>81</ele>
        <time>2012-05-12T13:16:52.458Z</time>
      </trkpt>
      <trkpt lat="47.22584" lon="-0.0346">
        <ele>81</ele>
        <time>2012-05-12T13:16:56.458Z</time>
      </trkpt>
      <trkpt lat="47.22583" lon="-0.03467">
        <ele>79</ele>
        <time>2012-05-12T13:17:02.458Z</time>
      </trkpt>
      <trkpt lat="47.22581" lon="-0.03473">
        <ele>79</ele>
        <time>2012-05-12T13:17:08.458Z</time>
      </trkpt>
      <trkpt lat="47.22581" lon="-0.0348">
        <ele>79</ele>
        <time>2012-05-12T13:17:14.458Z</time>
      </trkpt>
      <trkpt lat="47.2258" lon="-0.03487">
        <ele>79</ele>
        <time>2012-05-12T13:17:19.458Z</time>
      </trkpt>
      <trkpt lat="47.22579" lon="-0.03494">
        <ele>80</ele>
        <time>2012-05-12T13:17:24.458Z</time>
      </trkpt>
      <trkpt lat="47.22577" lon="-0.03501">
        <ele>80</ele>
        <time>2012-05-12T13:17:29.458Z</time>
      </trkpt>
      <trkpt lat="47.22574" lon="-0.03506">
        <ele>79</ele>
        <time>2012-05-12T13:17:34.458Z</time>
      </trkpt>
      <trkpt lat="47.22573" lon="-0.03513">
        <ele>79</ele>
        <time>2012-05-12T13:17:41.458Z</time>
      </trkpt>
      <trkpt lat="47.22573" lon="-0.0352">
        <ele>79</ele>
        <time>2012-05-12T13:17:46.458Z</time>
      </trkpt>
      <trkpt lat="47.22572" lon="-0.03529">
        <ele>79</ele>
        <time>2012-05-12T13:17:49.458Z</time>
      </trkpt>
      <trkpt lat="47.22572" lon="-0.03537">
        <ele>79</ele>
        <time>2012-05-12T13:17:53.458Z</time>
      </trkpt>
      <trkpt lat="47.22571" lon="-0.03544">
        <ele>79</ele>
        <time>2012-05-12T13:17:57.458Z</time>
      </trkpt>
      <trkpt lat="47.2257" lon="-0.03552">
        <ele>79</ele>
        <time>2012-05-12T13:18:01.458Z</time>
      </trkpt>
      <trkpt lat="47.22568" lon="-0.03561">
        <ele>79</ele>
        <time>2012-05-12T13:18:04.458Z</time>
      </trkpt>
      <trkpt lat="47.22567" lon="-0.03567">
        <ele>79</ele>
        <time>2012-05-12T13:18:07.458Z</time>
      </trkpt>
      <trkpt lat="47.22566" lon="-0.03575">
        <ele>79</ele>
        <time>2012-05-12T13:18:11.458Z</time>
      </trkpt>
      <trkpt lat="47.22564" lon="-0.03582">
        <ele>79</ele>
        <time>2012-05-12T13:18:16.458Z</time>
      </trkpt>
      <trkpt lat="47.22562" lon="-0.03588">
        <ele>80</ele>
        <time>2012-05-12T13:18:21.458Z</time>
      </trkpt>
      <trkpt lat="47.22558" lon="-0.03593">
        <ele>80</ele>
        <time>2012-05-12T13:18:26.458Z</time>
      </trkpt>
      <trkpt lat="47.22555" lon="-0.03598">
        <ele>80</ele>
        <time>2012-05-12T13:18:31.458Z</time>
      </trkpt>
      <trkpt lat="47.22552" lon="-0.03604">
        <ele>80</ele>
        <time>2012-05-12T13:18:37.458Z</time>
      </trkpt>
      <trkpt lat="47.22549" lon="-0.03611">
        <ele>80</ele>
        <time>2012-05-12T13:18:42.458Z</time>
      </trkpt>
      <trkpt lat="47.22548" lon="-0.03617">
        <ele>80</ele>
        <time>2012-05-12T13:18:46.458Z</time>
      </trkpt>
      <trkpt lat="47.22546" lon="-0.03624">
        <ele>80</ele>
        <time>2012-05-12T13:18:50.458Z</time>
      </trkpt>
      <trkpt lat="47.22544" lon="-0.03631">
        <ele>80</ele>
        <time>2012-05-12T13:18:55.458Z</time>
      </trkpt>
      <trkpt lat="47.22541" lon="-0.03637">
        <ele>80</ele>
        <time>2012-05-12T13:18:59.458Z</time>
      </trkpt>
      <trkpt lat="47.22539" lon="-0.03643">
        <ele>80</ele>
        <time>2012-05-12T13:19:03.458Z</time>
      </trkpt>
      <trkpt lat="47.22537" lon="-0.03649">
        <ele>80</ele>
        <time>2012-05-12T13:19:12.458Z</time>
      </trkpt>
      <trkpt lat="47.22536" lon="-0.03656">
        <ele>80</ele>
        <time>2012-05-12T13:19:19.458Z</time>
      </trkpt>
      <trkpt lat="47.22535" lon="-0.03663">
        <ele>80</ele>
        <time>2012-05-12T13:19:24.458Z</time>
      </trkpt>
      <trkpt lat="47.22535" lon="-0.03671">
        <ele>81</ele>
        <time>2012-05-12T13:19:29.458Z</time>
      </trkpt>
      <trkpt lat="47.22533" lon="-0.03679">
        <ele>81</ele>
        <time>2012-05-12T13:19:34.458Z</time>
      </trkpt>
      <trkpt lat="47.22531" lon="-0.03685">
        <ele>81</ele>
        <time>2012-05-12T13:19:37.458Z</time>
      </trkpt>
      <trkpt lat="47.22529" lon="-0.03692">
        <ele>81</ele>
        <time>2012-05-12T13:19:41.458Z</time>
      </trkpt>
      <trkpt lat="47.22527" lon="-0.03699">
        <ele>81</ele>
        <time>2012-05-12T13:19:45.458Z</time>
      </trkpt>
      <trkpt lat="47.22525" lon="-0.03706">
        <ele>81</ele>
        <time>2012-05-12T13:19:49.458Z</time>
      </trkpt>
      <trkpt lat="47.22522" lon="-0.03714">
        <ele>81</ele>
        <time>2012-05-12T13:19:53.458Z</time>
      </trkpt>
      <trkpt lat="47.2252" lon="-0.03721">
        <ele>81</ele>
        <time>2012-05-12T13:19:57.458Z</time>
      </trkpt>
      <trkpt lat="47.22518" lon="-0.03728">
        <ele>81</ele>
        <time>2012-05-12T13:20:01.458Z</time>
      </trkpt>
      <trkpt lat="47.22516" lon="-0.03735">
        <ele>81</ele>
        <time>2012-05-12T13:20:05.458Z</time>
      </trkpt>
      <trkpt lat="47.22514" lon="-0.03741">
        <ele>81</ele>
        <time>2012-05-12T13:20:09.458Z</time>
      </trkpt>
      <trkpt lat="47.22512" lon="-0.03748">
        <ele>81</ele>
        <time>2012-05-12T13:20:13.458Z</time>
      </trkpt>
      <trkpt lat="47.22509" lon="-0.03754">
        <ele>81</ele>
        <time>2012-05-12T13:20:16.458Z</time>
      </trkpt>
      <trkpt lat="47.22506" lon="-0.0376">
        <ele>81</ele>
        <time>2012-05-12T13:20:20.458Z</time>
      </trkpt>
      <trkpt lat="47.22504" lon="-0.03766">
        <ele>81</ele>
        <time>2012-05-12T13:20:26.458Z</time>
      </trkpt>
      <trkpt lat="47.22501" lon="-0.03772">
        <ele>81</ele>
        <time>2012-05-12T13:20:31.458Z</time>
      </trkpt>
      <trkpt lat="47.22497" lon="-0.03777">
        <ele>80</ele>
        <time>2012-05-12T13:20:35.458Z</time>
      </trkpt>
      <trkpt lat="47.22493" lon="-0.03782">
        <ele>79</ele>
        <time>2012-05-12T13:20:40.458Z</time>
      </trkpt>
      <trkpt lat="47.2249" lon="-0.03789">
        <ele>79</ele>
        <time>2012-05-12T13:20:45.458Z</time>
      </trkpt>
      <trkpt lat="47.22488" lon="-0.03797">
        <ele>79</ele>
        <time>2012-05-12T13:20:48.458Z</time>
      </trkpt>
      <trkpt lat="47.22485" lon="-0.03803">
        <ele>79</ele>
        <time>2012-05-12T13:20:51.457Z</time>
      </trkpt>
      <trkpt lat="47.22482" lon="-0.0381">
        <ele>79</ele>
        <time>2012-05-12T13:20:55.457Z</time>
      </trkpt>
      <trkpt lat="47.22479" lon="-0.03817">
        <ele>79</ele>
        <time>2012-05-12T13:20:59.457Z</time>
      </trkpt>
      <trkpt lat="47.22476" lon="-0.03822">
        <ele>79</ele>
        <time>2012-05-12T13:21:03.457Z</time>
      </trkpt>
      <trkpt lat="47.22473" lon="-0.03828">
        <ele>79</ele>
        <time>2012-05-12T13:21:07.457Z</time>
      </trkpt>
      <trkpt lat="47.22472" lon="-0.03835">
        <ele>79</ele>
        <time>2012-05-12T13:21:12.457Z</time>
      </trkpt>
      <trkpt lat="47.22473" lon="-0.03842">
        <ele>79</ele>
        <time>2012-05-12T13:21:15.457Z</time>
      </trkpt>
      <trkpt lat="47.22474" lon="-0.03848">
        <ele>79</ele>
        <time>2012-05-12T13:21:18.457Z</time>
      </trkpt>
      <trkpt lat="47.22474" lon="-0.03857">
        <ele>79</ele>
        <time>2012-05-12T13:21:22.457Z</time>
      </trkpt>
      <trkpt lat="47.22474" lon="-0.03864">
        <ele>79</ele>
        <time>2012-05-12T13:21:26.457Z</time>
      </trkpt>
      <trkpt lat="47.22474" lon="-0.03872">
        <ele>78</ele>
        <time>2012-05-12T13:21:30.457Z</time>
      </trkpt>
      <trkpt lat="47.22473" lon="-0.03879">
        <ele>78</ele>
        <time>2012-05-12T13:21:34.457Z</time>
      </trkpt>
      <trkpt lat="47.22472" lon="-0.03885">
        <ele>78</ele>
        <time>2012-05-12T13:21:38.457Z</time>
      </trkpt>
      <trkpt lat="47.2247" lon="-0.03893">
        <ele>78</ele>
        <time>2012-05-12T13:21:43.457Z</time>
      </trkpt>
      <trkpt lat="47.22469" lon="-0.039">
        <ele>78</ele>
        <time>2012-05-12T13:21:49.457Z</time>
      </trkpt>
      <trkpt lat="47.22468" lon="-0.03907">
        <ele>78</ele>
        <time>2012-05-12T13:21:56.457Z</time>
      </trkpt>
      <trkpt lat="47.22468" lon="-0.03914">
        <ele>78</ele>
        <time>2012-05-12T13:22:02.457Z</time>
      </trkpt>
      <trkpt lat="47.22466" lon="-0.03921">
        <ele>77</ele>
        <time>2012-05-12T13:22:07.457Z</time>
      </trkpt>
      <trkpt lat="47.22464" lon="-0.03928">
        <ele>77</ele>
        <time>2012-05-12T13:22:12.457Z</time>
      </trkpt>
      <trkpt lat="47.22462" lon="-0.03935">
        <ele>76</ele>
        <time>2012-05-12T13:22:17.457Z</time>
      </trkpt>
      <trkpt lat="47.2246" lon="-0.03942">
        <ele>76</ele>
        <time>2012-05-12T13:22:21.457Z</time>
      </trkpt>
      <trkpt lat="47.22458" lon="-0.0395">
        <ele>76</ele>
        <time>2012-05-12T13:22:25.457Z</time>
      </trkpt>
      <trkpt lat="47.22457" lon="-0.03957">
        <ele>76</ele>
        <time>2012-05-12T13:22:28.457Z</time>
      </trkpt>
      <trkpt lat="47.22457" lon="-0.03963">
        <ele>76</ele>
        <time>2012-05-12T13:22:31.457Z</time>
      </trkpt>
      <trkpt lat="47.22456" lon="-0.0397">
        <ele>75</ele>
        <time>2012-05-12T13:22:34.457Z</time>
      </trkpt>
      <trkpt lat="47.22456" lon="-0.03978">
        <ele>75</ele>
        <time>2012-05-12T13:22:38.457Z</time>
      </trkpt>
      <trkpt lat="47.22455" lon="-0.03987">
        <ele>75</ele>
        <time>2012-05-12T13:22:42.457Z</time>
      </trkpt>
      <trkpt lat="47.22456" lon="-0.03995">
        <ele>75</ele>
        <time>2012-05-12T13:22:46.457Z</time>
      </trkpt>
      <trkpt lat="47.22456" lon="-0.04002">
        <ele>71</ele>
        <time>2012-05-12T13:22:50.457Z</time>
      </trkpt>
      <trkpt lat="47.22457" lon="-0.04009">
        <ele>71</ele>
        <time>2012-05-12T13:22:54.457Z</time>
      </trkpt>
      <trkpt lat="47.22457" lon="-0.04016">
        <ele>70</ele>
        <time>2012-05-12T13:22:58.457Z</time>
      </trkpt>
      <trkpt lat="47.22457" lon="-0.04024">
        <ele>70</ele>
        <time>2012-05-12T13:23:03.457Z</time>
      </trkpt>
      <trkpt lat="47.22456" lon="-0.0403">
        <ele>70</ele>
        <time>2012-05-12T13:23:08.457Z</time>
      </trkpt>
      <trkpt lat="47.22454" lon="-0.04036">
        <ele>69</ele>
        <time>2012-05-12T13:23:17.457Z</time>
      </trkpt>
      <trkpt lat="47.22451" lon="-0.04043">
        <ele>69</ele>
        <time>2012-05-12T13:23:23.457Z</time>
      </trkpt>
      <trkpt lat="47.2245" lon="-0.04049">
        <ele>69</ele>
        <time>2012-05-12T13:23:28.457Z</time>
      </trkpt>
      <trkpt lat="47.22449" lon="-0.04057">
        <ele>68</ele>
        <time>2012-05-12T13:23:35.457Z</time>
      </trkpt>
      <trkpt lat="47.22449" lon="-0.04064">
        <ele>68</ele>
        <time>2012-05-12T13:23:41.457Z</time>
      </trkpt>
      <trkpt lat="47.22447" lon="-0.04073">
        <ele>67</ele>
        <time>2012-05-12T13:23:46.457Z</time>
      </trkpt>
      <trkpt lat="47.22446" lon="-0.04081">
        <ele>67</ele>
        <time>2012-05-12T13:23:50.457Z</time>
      </trkpt>
      <trkpt lat="47.22444" lon="-0.04088">
        <ele>62</ele>
        <time>2012-05-12T13:23:54.457Z</time>
      </trkpt>
      <trkpt lat="47.22443" lon="-0.04095">
        <ele>62</ele>
        <time>2012-05-12T13:23:59.457Z</time>
      </trkpt>
      <trkpt lat="47.22441" lon="-0.04102">
        <ele>62</ele>
        <time>2012-05-12T13:24:04.457Z</time>
      </trkpt>
      <trkpt lat="47.2244" lon="-0.04109">
        <ele>62</ele>
        <time>2012-05-12T13:24:09.457Z</time>
      </trkpt>
      <trkpt lat="47.22439" lon="-0.04115">
        <ele>62</ele>
        <time>2012-05-12T13:24:18.457Z</time>
      </trkpt>
      <trkpt lat="47.22444" lon="-0.04116">
        <ele>62</ele>
        <time>2012-05-12T13:25:18.457Z</time>
      </trkpt>
      <trkpt lat="47.22448" lon="-0.04116">
        <ele>62</ele>
        <time>2012-05-12T13:25:53.457Z</time>
      </trkpt>
      <trkpt lat="47.22447" lon="-0.04109">
        <ele>62</ele>
        <time>2012-05-12T13:26:13.457Z</time>
      </trkpt>
      <trkpt lat="47.22442" lon="-0.0411">
        <ele>62</ele>
        <time>2012-05-12T13:26:35.457Z</time>
      </trkpt>
      <trkpt lat="47.22438" lon="-0.04106">
        <ele>62</ele>
        <time>2012-05-12T13:29:19.457Z</time>
      </trkpt>
      <trkpt lat="47.2244" lon="-0.04112">
        <ele>62</ele>
        <time>2012-05-12T13:30:09.457Z</time>
      </trkpt>
      <trkpt lat="47.22437" lon="-0.04118">
        <ele>61</ele>
        <time>2012-05-12T13:30:42.457Z</time>
      </trkpt>
      <trkpt lat="47.22435" lon="-0.04124">
        <ele>61</ele>
        <time>2012-05-12T13:30:50.457Z</time>
      </trkpt>
      <trkpt lat="47.22433" lon="-0.04131">
        <ele>61</ele>
        <time>2012-05-12T13:30:56.457Z</time>
      </trkpt>
      <trkpt lat="47.22432" lon="-0.04138">
        <ele>60</ele>
        <time>2012-05-12T13:31:01.457Z</time>
      </trkpt>
      <trkpt lat="47.22431" lon="-0.04145">
        <ele>60</ele>
        <time>2012-05-12T13:31:06.457Z</time>
      </trkpt>
      <trkpt lat="47.22427" lon="-0.04151">
        <ele>59</ele>
        <time>2012-05-12T13:31:20.457Z</time>
      </trkpt>
      <trkpt lat="47.22426" lon="-0.04157">
        <ele>58</ele>
        <time>2012-05-12T13:31:25.457Z</time>
      </trkpt>
      <trkpt lat="47.22425" lon="-0.04165">
        <ele>58</ele>
        <time>2012-05-12T13:31:30.457Z</time>
      </trkpt>
      <trkpt lat="47.22426" lon="-0.04173">
        <ele>56</ele>
        <time>2012-05-12T13:31:34.457Z</time>
      </trkpt>
      <trkpt lat="47.22428" lon="-0.04181">
        <ele>56</ele>
        <time>2012-05-12T13:31:38.457Z</time>
      </trkpt>
      <trkpt lat="47.22429" lon="-0.04189">
        <ele>56</ele>
        <time>2012-05-12T13:31:42.457Z</time>
      </trkpt>
      <trkpt lat="47.2243" lon="-0.04197">
        <ele>56</ele>
        <time>2012-05-12T13:31:46.457Z</time>
      </trkpt>
      <trkpt lat="47.22432" lon="-0.04203">
        <ele>55</ele>
        <time>2012-05-12T13:31:49.457Z</time>
      </trkpt>
      <trkpt lat="47.22433" lon="-0.0421">
        <ele>55</ele>
        <time>2012-05-12T13:31:52.457Z</time>
      </trkpt>
      <trkpt lat="47.22434" lon="-0.04216">
        <ele>55</ele>
        <time>2012-05-12T13:31:55.457Z</time>
      </trkpt>
      <trkpt lat="47.22436" lon="-0.04224">
        <ele>55</ele>
        <time>2012-05-12T13:31:59.457Z</time>
      </trkpt>
      <trkpt lat="47.22437" lon="-0.04232">
        <ele>54</ele>
        <time>2012-05-12T13:32:03.457Z</time>
      </trkpt>
      <trkpt lat="47.22439" lon="-0.0424">
        <ele>54</ele>
        <time>2012-05-12T13:32:07.457Z</time>
      </trkpt>
      <trkpt lat="47.22441" lon="-0.04249">
        <ele>54</ele>
        <time>2012-05-12T13:32:11.457Z</time>
      </trkpt>
      <trkpt lat="47.22443" lon="-0.04255">
        <ele>53</ele>
        <time>2012-05-12T13:32:14.457Z</time>
      </trkpt>
      <trkpt lat="47.22445" lon="-0.04261">
        <ele>53</ele>
        <time>2012-05-12T13:32:17.457Z</time>
      </trkpt>
      <trkpt lat="47.22447" lon="-0.04267">
        <ele>53</ele>
        <time>2012-05-12T13:32:20.457Z</time>
      </trkpt>
      <trkpt lat="47.22449" lon="-0.04274">
        <ele>53</ele>
        <time>2012-05-12T13:32:24.457Z</time>
      </trkpt>
      <trkpt lat="47.22452" lon="-0.04281">
        <ele>54</ele>
        <time>2012-05-12T13:32:28.457Z</time>
      </trkpt>
      <trkpt lat="47.22454" lon="-0.04287">
        <ele>54</ele>
        <time>2012-05-12T13:32:32.457Z</time>
      </trkpt>
      <trkpt lat="47.22456" lon="-0.04293">
        <ele>54</ele>
        <time>2012-05-12T13:32:36.457Z</time>
      </trkpt>
      <trkpt lat="47.2246" lon="-0.04298">
        <ele>54</ele>
        <time>2012-05-12T13:32:40.457Z</time>
      </trkpt>
      <trkpt lat="47.22464" lon="-0.04304">
        <ele>54</ele>
        <time>2012-05-12T13:32:43.457Z</time>
      </trkpt>
      <trkpt lat="47.22469" lon="-0.04308">
        <ele>54</ele>
        <time>2012-05-12T13:32:46.457Z</time>
      </trkpt>
      <trkpt lat="47.22474" lon="-0.04309">
        <ele>54</ele>
        <time>2012-05-12T13:32:49.457Z</time>
      </trkpt>
      <trkpt lat="47.22479" lon="-0.0431">
        <ele>54</ele>
        <time>2012-05-12T13:32:53.457Z</time>
      </trkpt>
      <trkpt lat="47.22484" lon="-0.04311">
        <ele>54</ele>
        <time>2012-05-12T13:32:57.457Z</time>
      </trkpt>
      <trkpt lat="47.22488" lon="-0.04311">
        <ele>54</ele>
        <time>2012-05-12T13:33:01.457Z</time>
      </trkpt>
      <trkpt lat="47.22493" lon="-0.04312">
        <ele>54</ele>
        <time>2012-05-12T13:33:05.457Z</time>
      </trkpt>
      <trkpt lat="47.22498" lon="-0.04312">
        <ele>54</ele>
        <time>2012-05-12T13:33:09.457Z</time>
      </trkpt>
      <trkpt lat="47.22502" lon="-0.04312">
        <ele>57</ele>
        <time>2012-05-12T13:33:13.457Z</time>
      </trkpt>
      <trkpt lat="47.22507" lon="-0.04313">
        <ele>57</ele>
        <time>2012-05-12T13:33:17.457Z</time>
      </trkpt>
      <trkpt lat="47.22512" lon="-0.04312">
        <ele>57</ele>
        <time>2012-05-12T13:33:21.457Z</time>
      </trkpt>
      <trkpt lat="47.22517" lon="-0.04313">
        <ele>57</ele>
        <time>2012-05-12T13:33:25.457Z</time>
      </trkpt>
      <trkpt lat="47.22522" lon="-0.04313">
        <ele>57</ele>
        <time>2012-05-12T13:33:29.457Z</time>
      </trkpt>
      <trkpt lat="47.22527" lon="-0.04313">
        <ele>58</ele>
        <time>2012-05-12T13:33:33.457Z</time>
      </trkpt>
      <trkpt lat="47.22532" lon="-0.04314">
        <ele>58</ele>
        <time>2012-05-12T13:33:37.457Z</time>
      </trkpt>
      <trkpt lat="47.22538" lon="-0.04314">
        <ele>58</ele>
        <time>2012-05-12T13:33:41.457Z</time>
      </trkpt>
      <trkpt lat="47.22543" lon="-0.04314">
        <ele>58</ele>
        <time>2012-05-12T13:33:45.457Z</time>
      </trkpt>
      <trkpt lat="47.22548" lon="-0.04314">
        <ele>58</ele>
        <time>2012-05-12T13:33:49.457Z</time>
      </trkpt>
      <trkpt lat="47.22553" lon="-0.04314">
        <ele>58</ele>
        <time>2012-05-12T13:33:53.457Z</time>
      </trkpt>
      <trkpt lat="47.22558" lon="-0.04313">
        <ele>58</ele>
        <time>2012-05-12T13:33:57.457Z</time>
      </trkpt>
      <trkpt lat="47.22563" lon="-0.04313">
        <ele>58</ele>
        <time>2012-05-12T13:34:02.457Z</time>
      </trkpt>
      <trkpt lat="47.22568" lon="-0.04312">
        <ele>58</ele>
        <time>2012-05-12T13:34:07.457Z</time>
      </trkpt>
      <trkpt lat="47.22573" lon="-0.04311">
        <ele>59</ele>
        <time>2012-05-12T13:34:11.457Z</time>
      </trkpt>
      <trkpt lat="47.22578" lon="-0.04311">
        <ele>59</ele>
        <time>2012-05-12T13:34:16.457Z</time>
      </trkpt>
      <trkpt lat="47.22582" lon="-0.04312">
        <ele>59</ele>
        <time>2012-05-12T13:34:20.457Z</time>
      </trkpt>
      <trkpt lat="47.22586" lon="-0.04315">
        <ele>60</ele>
        <time>2012-05-12T13:34:24.457Z</time>
      </trkpt>
      <trkpt lat="47.2259" lon="-0.04318">
        <ele>60</ele>
        <time>2012-05-12T13:34:29.457Z</time>
      </trkpt>
      <trkpt lat="47.22594" lon="-0.04322">
        <ele>60</ele>
        <time>2012-05-12T13:34:36.457Z</time>
      </trkpt>
      <trkpt lat="47.22597" lon="-0.04327">
        <ele>60</ele>
        <time>2012-05-12T13:34:41.457Z</time>
      </trkpt>
      <trkpt lat="47.226" lon="-0.04334">
        <ele>57</ele>
        <time>2012-05-12T13:34:46.457Z</time>
      </trkpt>
      <trkpt lat="47.22603" lon="-0.04339">
        <ele>56</ele>
        <time>2012-05-12T13:34:50.457Z</time>
      </trkpt>
      <trkpt lat="47.22608" lon="-0.04342">
        <ele>56</ele>
        <time>2012-05-12T13:34:54.457Z</time>
      </trkpt>
      <trkpt lat="47.22612" lon="-0.04344">
        <ele>56</ele>
        <time>2012-05-12T13:34:58.457Z</time>
      </trkpt>
      <trkpt lat="47.22617" lon="-0.04346">
        <ele>56</ele>
        <time>2012-05-12T13:35:02.457Z</time>
      </trkpt>
      <trkpt lat="47.22621" lon="-0.04348">
        <ele>56</ele>
        <time>2012-05-12T13:35:06.457Z</time>
      </trkpt>
      <trkpt lat="47.22626" lon="-0.04349">
        <ele>56</ele>
        <time>2012-05-12T13:35:10.457Z</time>
      </trkpt>
      <trkpt lat="47.22631" lon="-0.04351">
        <ele>56</ele>
        <time>2012-05-12T13:35:14.457Z</time>
      </trkpt>
      <trkpt lat="47.22636" lon="-0.04354">
        <ele>56</ele>
        <time>2012-05-12T13:35:18.457Z</time>
      </trkpt>
      <trkpt lat="47.2264" lon="-0.04356">
        <ele>56</ele>
        <time>2012-05-12T13:35:22.457Z</time>
      </trkpt>
      <trkpt lat="47.22644" lon="-0.04359">
        <ele>56</ele>
        <time>2012-05-12T13:35:26.457Z</time>
      </trkpt>
      <trkpt lat="47.22648" lon="-0.04362">
        <ele>56</ele>
        <time>2012-05-12T13:35:30.457Z</time>
      </trkpt>
      <trkpt lat="47.22653" lon="-0.04365">
        <ele>56</ele>
        <time>2012-05-12T13:35:34.457Z</time>
      </trkpt>
      <trkpt lat="47.22657" lon="-0.04368">
        <ele>56</ele>
        <time>2012-05-12T13:35:38.457Z</time>
      </trkpt>
      <trkpt lat="47.22662" lon="-0.04372">
        <ele>56</ele>
        <time>2012-05-12T13:35:42.457Z</time>
      </trkpt>
      <trkpt lat="47.22666" lon="-0.04375">
        <ele>56</ele>
        <time>2012-05-12T13:35:46.457Z</time>
      </trkpt>
      <trkpt lat="47.2267" lon="-0.04378">
        <ele>56</ele>
        <time>2012-05-12T13:35:51.457Z</time>
      </trkpt>
      <trkpt lat="47.22674" lon="-0.04383">
        <ele>56</ele>
        <time>2012-05-12T13:35:56.457Z</time>
      </trkpt>
      <trkpt lat="47.22678" lon="-0.04388">
        <ele>56</ele>
        <time>2012-05-12T13:36:00.457Z</time>
      </trkpt>
      <trkpt lat="47.22681" lon="-0.04394">
        <ele>56</ele>
        <time>2012-05-12T13:36:04.457Z</time>
      </trkpt>
      <trkpt lat="47.22684" lon="-0.04399">
        <ele>56</ele>
        <time>2012-05-12T13:36:08.457Z</time>
      </trkpt>
      <trkpt lat="47.22687" lon="-0.04405">
        <ele>55</ele>
        <time>2012-05-12T13:36:12.457Z</time>
      </trkpt>
      <trkpt lat="47.22691" lon="-0.0441">
        <ele>55</ele>
        <time>2012-05-12T13:36:16.457Z</time>
      </trkpt>
      <trkpt lat="47.22694" lon="-0.04416">
        <ele>55</ele>
        <time>2012-05-12T13:36:20.457Z</time>
      </trkpt>
      <trkpt lat="47.22697" lon="-0.04422">
        <ele>53</ele>
        <time>2012-05-12T13:36:24.457Z</time>
      </trkpt>
      <trkpt lat="47.227" lon="-0.04428">
        <ele>53</ele>
        <time>2012-05-12T13:36:28.457Z</time>
      </trkpt>
      <trkpt lat="47.22704" lon="-0.04434">
        <ele>53</ele>
        <time>2012-05-12T13:36:32.457Z</time>
      </trkpt>
      <trkpt lat="47.22707" lon="-0.0444">
        <ele>53</ele>
        <time>2012-05-12T13:36:36.457Z</time>
      </trkpt>
      <trkpt lat="47.2271" lon="-0.04446">
        <ele>53</ele>
        <time>2012-05-12T13:36:40.457Z</time>
      </trkpt>
      <trkpt lat="47.22713" lon="-0.04452">
        <ele>53</ele>
        <time>2012-05-12T13:36:44.457Z</time>
      </trkpt>
      <trkpt lat="47.22715" lon="-0.04458">
        <ele>53</ele>
        <time>2012-05-12T13:36:48.457Z</time>
      </trkpt>
      <trkpt lat="47.22718" lon="-0.04465">
        <ele>52</ele>
        <time>2012-05-12T13:36:53.457Z</time>
      </trkpt>
      <trkpt lat="47.22721" lon="-0.04471">
        <ele>52</ele>
        <time>2012-05-12T13:36:58.457Z</time>
      </trkpt>
      <trkpt lat="47.22724" lon="-0.04477">
        <ele>52</ele>
        <time>2012-05-12T13:37:03.457Z</time>
      </trkpt>
      <trkpt lat="47.22726" lon="-0.04483">
        <ele>52</ele>
        <time>2012-05-12T13:37:07.457Z</time>
      </trkpt>
      <trkpt lat="47.22727" lon="-0.0449">
        <ele>52</ele>
        <time>2012-05-12T13:37:11.457Z</time>
      </trkpt>
      <trkpt lat="47.22728" lon="-0.04497">
        <ele>52</ele>
        <time>2012-05-12T13:37:16.457Z</time>
      </trkpt>
      <trkpt lat="47.22727" lon="-0.04505">
        <ele>51</ele>
        <time>2012-05-12T13:37:21.457Z</time>
      </trkpt>
      <trkpt lat="47.22725" lon="-0.04511">
        <ele>51</ele>
        <time>2012-05-12T13:37:25.457Z</time>
      </trkpt>
      <trkpt lat="47.22723" lon="-0.04517">
        <ele>51</ele>
        <time>2012-05-12T13:37:29.457Z</time>
      </trkpt>
      <trkpt lat="47.2272" lon="-0.04524">
        <ele>51</ele>
        <time>2012-05-12T13:37:33.457Z</time>
      </trkpt>
      <trkpt lat="47.22718" lon="-0.0453">
        <ele>51</ele>
        <time>2012-05-12T13:37:37.457Z</time>
      </trkpt>
      <trkpt lat="47.22716" lon="-0.04536">
        <ele>51</ele>
        <time>2012-05-12T13:37:41.457Z</time>
      </trkpt>
      <trkpt lat="47.22713" lon="-0.04542">
        <ele>50</ele>
        <time>2012-05-12T13:37:45.457Z</time>
      </trkpt>
      <trkpt lat="47.2271" lon="-0.04548">
        <ele>50</ele>
        <time>2012-05-12T13:37:49.457Z</time>
      </trkpt>
      <trkpt lat="47.22707" lon="-0.04554">
        <ele>50</ele>
        <time>2012-05-12T13:37:53.457Z</time>
      </trkpt>
      <trkpt lat="47.22704" lon="-0.04561">
        <ele>50</ele>
        <time>2012-05-12T13:37:57.457Z</time>
      </trkpt>
      <trkpt lat="47.22702" lon="-0.04567">
        <ele>50</ele>
        <time>2012-05-12T13:38:01.457Z</time>
      </trkpt>
      <trkpt lat="47.227" lon="-0.04573">
        <ele>50</ele>
        <time>2012-05-12T13:38:05.457Z</time>
      </trkpt>
      <trkpt lat="47.22697" lon="-0.04578">
        <ele>50</ele>
        <time>2012-05-12T13:38:09.457Z</time>
      </trkpt>
      <trkpt lat="47.22695" lon="-0.04584">
        <ele>50</ele>
        <time>2012-05-12T13:38:13.457Z</time>
      </trkpt>
      <trkpt lat="47.22692" lon="-0.0459">
        <ele>50</ele>
        <time>2012-05-12T13:38:18.457Z</time>
      </trkpt>
      <trkpt lat="47.22692" lon="-0.04596">
        <ele>50</ele>
        <time>2012-05-12T13:39:07.457Z</time>
      </trkpt>
      <trkpt lat="47.22695" lon="-0.04601">
        <ele>50</ele>
        <time>2012-05-12T13:39:32.457Z</time>
      </trkpt>
      <trkpt lat="47.227" lon="-0.04605">
        <ele>50</ele>
        <time>2012-05-12T13:39:55.457Z</time>
      </trkpt>
      <trkpt lat="47.22705" lon="-0.04607">
        <ele>50</ele>
        <time>2012-05-12T13:39:59.457Z</time>
      </trkpt>
      <trkpt lat="47.2271" lon="-0.04608">
        <ele>50</ele>
        <time>2012-05-12T13:40:03.457Z</time>
      </trkpt>
      <trkpt lat="47.22715" lon="-0.04608">
        <ele>50</ele>
        <time>2012-05-12T13:40:07.457Z</time>
      </trkpt>
      <trkpt lat="47.22719" lon="-0.04609">
        <ele>50</ele>
        <time>2012-05-12T13:40:11.457Z</time>
      </trkpt>
      <trkpt lat="47.22724" lon="-0.0461">
        <ele>50</ele>
        <time>2012-05-12T13:40:15.457Z</time>
      </trkpt>
      <trkpt lat="47.22729" lon="-0.04612">
        <ele>50</ele>
        <time>2012-05-12T13:40:19.457Z</time>
      </trkpt>
      <trkpt lat="47.22734" lon="-0.04615">
        <ele>50</ele>
        <time>2012-05-12T13:40:23.457Z</time>
      </trkpt>
      <trkpt lat="47.2274" lon="-0.04618">
        <ele>50</ele>
        <time>2012-05-12T13:40:27.457Z</time>
      </trkpt>
      <trkpt lat="47.22744" lon="-0.0462">
        <ele>50</ele>
        <time>2012-05-12T13:40:31.457Z</time>
      </trkpt>
      <trkpt lat="47.2275" lon="-0.04623">
        <ele>50</ele>
        <time>2012-05-12T13:40:35.457Z</time>
      </trkpt>
      <trkpt lat="47.22755" lon="-0.04626">
        <ele>51</ele>
        <time>2012-05-12T13:40:39.457Z</time>
      </trkpt>
      <trkpt lat="47.2276" lon="-0.04628">
        <ele>51</ele>
        <time>2012-05-12T13:40:43.457Z</time>
      </trkpt>
      <trkpt lat="47.22764" lon="-0.04631">
        <ele>51</ele>
        <time>2012-05-12T13:40:47.457Z</time>
      </trkpt>
      <trkpt lat="47.22769" lon="-0.04633">
        <ele>51</ele>
        <time>2012-05-12T13:40:51.457Z</time>
      </trkpt>
      <trkpt lat="47.22774" lon="-0.04636">
        <ele>51</ele>
        <time>2012-05-12T13:40:55.457Z</time>
      </trkpt>
      <trkpt lat="47.22778" lon="-0.04639">
        <ele>51</ele>
        <time>2012-05-12T13:40:59.457Z</time>
      </trkpt>
      <trkpt lat="47.22782" lon="-0.04641">
        <ele>51</ele>
        <time>2012-05-12T13:41:03.457Z</time>
      </trkpt>
      <trkpt lat="47.22787" lon="-0.04644">
        <ele>51</ele>
        <time>2012-05-12T13:41:07.457Z</time>
      </trkpt>
      <trkpt lat="47.22791" lon="-0.04647">
        <ele>51</ele>
        <time>2012-05-12T13:41:11.457Z</time>
      </trkpt>
      <trkpt lat="47.22795" lon="-0.04649">
        <ele>51</ele>
        <time>2012-05-12T13:41:15.457Z</time>
      </trkpt>
      <trkpt lat="47.228" lon="-0.04652">
        <ele>52</ele>
        <time>2012-05-12T13:41:19.457Z</time>
      </trkpt>
      <trkpt lat="47.22804" lon="-0.04655">
        <ele>52</ele>
        <time>2012-05-12T13:41:23.457Z</time>
      </trkpt>
      <trkpt lat="47.22808" lon="-0.04657">
        <ele>52</ele>
        <time>2012-05-12T13:41:27.457Z</time>
      </trkpt>
      <trkpt lat="47.22813" lon="-0.0466">
        <ele>52</ele>
        <time>2012-05-12T13:41:31.457Z</time>
      </trkpt>
      <trkpt lat="47.22817" lon="-0.04662">
        <ele>52</ele>
        <time>2012-05-12T13:41:35.457Z</time>
      </trkpt>
      <trkpt lat="47.22822" lon="-0.04664">
        <ele>52</ele>
        <time>2012-05-12T13:41:39.457Z</time>
      </trkpt>
      <trkpt lat="47.22827" lon="-0.04665">
        <ele>53</ele>
        <time>2012-05-12T13:41:43.457Z</time>
      </trkpt>
      <trkpt lat="47.22831" lon="-0.04666">
        <ele>53</ele>
        <time>2012-05-12T13:41:47.457Z</time>
      </trkpt>
      <trkpt lat="47.22836" lon="-0.04666">
        <ele>53</ele>
        <time>2012-05-12T13:41:51.457Z</time>
      </trkpt>
      <trkpt lat="47.2284" lon="-0.04666">
        <ele>53</ele>
        <time>2012-05-12T13:41:55.457Z</time>
      </trkpt>
      <trkpt lat="47.22844" lon="-0.04667">
        <ele>54</ele>
        <time>2012-05-12T13:41:59.457Z</time>
      </trkpt>
      <trkpt lat="47.22849" lon="-0.04667">
        <ele>54</ele>
        <time>2012-05-12T13:42:03.457Z</time>
      </trkpt>
      <trkpt lat="47.22854" lon="-0.04667">
        <ele>54</ele>
        <time>2012-05-12T13:42:07.457Z</time>
      </trkpt>
      <trkpt lat="47.22859" lon="-0.04668">
        <ele>55</ele>
        <time>2012-05-12T13:42:11.457Z</time>
      </trkpt>
      <trkpt lat="47.22864" lon="-0.04668">
        <ele>55</ele>
        <time>2012-05-12T13:42:15.457Z</time>
      </trkpt>
      <trkpt lat="47.22868" lon="-0.04668">
        <ele>55</ele>
        <time>2012-05-12T13:42:19.457Z</time>
      </trkpt>
      <trkpt lat="47.22873" lon="-0.04667">
        <ele>55</ele>
        <time>2012-05-12T13:42:23.457Z</time>
      </trkpt>
      <trkpt lat="47.22878" lon="-0.04667">
        <ele>55</ele>
        <time>2012-05-12T13:42:27.457Z</time>
      </trkpt>
      <trkpt lat="47.22883" lon="-0.04668">
        <ele>56</ele>
        <time>2012-05-12T13:42:31.457Z</time>
      </trkpt>
      <trkpt lat="47.22888" lon="-0.04669">
        <ele>56</ele>
        <time>2012-05-12T13:42:35.457Z</time>
      </trkpt>
      <trkpt lat="47.22892" lon="-0.0467">
        <ele>56</ele>
        <time>2012-05-12T13:42:39.457Z</time>
      </trkpt>
      <trkpt lat="47.22897" lon="-0.04671">
        <ele>56</ele>
        <time>2012-05-12T13:42:43.457Z</time>
      </trkpt>
      <trkpt lat="47.22902" lon="-0.04671">
        <ele>57</ele>
        <time>2012-05-12T13:42:47.457Z</time>
      </trkpt>
      <trkpt lat="47.22906" lon="-0.04671">
        <ele>57</ele>
        <time>2012-05-12T13:42:51.457Z</time>
      </trkpt>
      <trkpt lat="47.22911" lon="-0.04671">
        <ele>57</ele>
        <time>2012-05-12T13:42:55.457Z</time>
      </trkpt>
      <trkpt lat="47.22916" lon="-0.04671">
        <ele>58</ele>
        <time>2012-05-12T13:42:59.457Z</time>
      </trkpt>
      <trkpt lat="47.2292" lon="-0.0467">
        <ele>59</ele>
        <time>2012-05-12T13:43:03.457Z</time>
      </trkpt>
      <trkpt lat="47.22925" lon="-0.0467">
        <ele>60</ele>
        <time>2012-05-12T13:43:07.457Z</time>
      </trkpt>
      <trkpt lat="47.2293" lon="-0.04669">
        <ele>61</ele>
        <time>2012-05-12T13:43:11.457Z</time>
      </trkpt>
      <trkpt lat="47.22934" lon="-0.04669">
        <ele>62</ele>
        <time>2012-05-12T13:43:15.457Z</time>
      </trkpt>
      <trkpt lat="47.22939" lon="-0.04669">
        <ele>62</ele>
        <time>2012-05-12T13:43:19.457Z</time>
      </trkpt>
      <trkpt lat="47.22944" lon="-0.0467">
        <ele>63</ele>
        <time>2012-05-12T13:43:23.457Z</time>
      </trkpt>
      <trkpt lat="47.22948" lon="-0.0467">
        <ele>63</ele>
        <time>2012-05-12T13:43:27.457Z</time>
      </trkpt>
      <trkpt lat="47.22953" lon="-0.0467">
        <ele>64</ele>
        <time>2012-05-12T13:43:31.457Z</time>
      </trkpt>
      <trkpt lat="47.22958" lon="-0.0467">
        <ele>64</ele>
        <time>2012-05-12T13:43:35.457Z</time>
      </trkpt>
      <trkpt lat="47.22963" lon="-0.04669">
        <ele>65</ele>
        <time>2012-05-12T13:43:39.457Z</time>
      </trkpt>
      <trkpt lat="47.22967" lon="-0.04668">
        <ele>65</ele>
        <time>2012-05-12T13:43:43.457Z</time>
      </trkpt>
      <trkpt lat="47.22972" lon="-0.04667">
        <ele>66</ele>
        <time>2012-05-12T13:43:47.457Z</time>
      </trkpt>
      <trkpt lat="47.22977" lon="-0.04666">
        <ele>65</ele>
        <time>2012-05-12T13:43:51.457Z</time>
      </trkpt>
      <trkpt lat="47.22981" lon="-0.04664">
        <ele>65</ele>
        <time>2012-05-12T13:43:55.457Z</time>
      </trkpt>
      <trkpt lat="47.22986" lon="-0.04663">
        <ele>66</ele>
        <time>2012-05-12T13:44:00.457Z</time>
      </trkpt>
      <trkpt lat="47.22992" lon="-0.04662">
        <ele>67</ele>
        <time>2012-05-12T13:44:05.457Z</time>
      </trkpt>
      <trkpt lat="47.22997" lon="-0.04661">
        <ele>68</ele>
        <time>2012-05-12T13:44:10.457Z</time>
      </trkpt>
      <trkpt lat="47.23002" lon="-0.0466">
        <ele>69</ele>
        <time>2012-05-12T13:44:15.457Z</time>
      </trkpt>
      <trkpt lat="47.23006" lon="-0.04658">
        <ele>69</ele>
        <time>2012-05-12T13:44:20.457Z</time>
      </trkpt>
      <trkpt lat="47.23011" lon="-0.04657">
        <ele>69</ele>
        <time>2012-05-12T13:44:25.457Z</time>
      </trkpt>
      <trkpt lat="47.23016" lon="-0.04655">
        <ele>70</ele>
        <time>2012-05-12T13:44:31.457Z</time>
      </trkpt>
      <trkpt lat="47.23021" lon="-0.04652">
        <ele>70</ele>
        <time>2012-05-12T13:44:37.457Z</time>
      </trkpt>
      <trkpt lat="47.23025" lon="-0.0465">
        <ele>70</ele>
        <time>2012-05-12T13:44:42.457Z</time>
      </trkpt>
      <trkpt lat="47.2303" lon="-0.04648">
        <ele>70</ele>
        <time>2012-05-12T13:44:47.457Z</time>
      </trkpt>
      <trkpt lat="47.23035" lon="-0.04646">
        <ele>70</ele>
        <time>2012-05-12T13:44:52.457Z</time>
      </trkpt>
      <trkpt lat="47.2304" lon="-0.04644">
        <ele>70</ele>
        <time>2012-05-12T13:44:57.457Z</time>
      </trkpt>
      <trkpt lat="47.23044" lon="-0.04641">
        <ele>70</ele>
        <time>2012-05-12T13:45:02.457Z</time>
      </trkpt>
      <trkpt lat="47.23048" lon="-0.04639">
        <ele>70</ele>
        <time>2012-05-12T13:45:07.457Z</time>
      </trkpt>
      <trkpt lat="47.23053" lon="-0.04636">
        <ele>70</ele>
        <time>2012-05-12T13:45:12.457Z</time>
      </trkpt>
      <trkpt lat="47.23057" lon="-0.04634">
        <ele>70</ele>
        <time>2012-05-12T13:45:17.457Z</time>
      </trkpt>
      <trkpt lat="47.23062" lon="-0.04632">
        <ele>71</ele>
        <time>2012-05-12T13:45:22.457Z</time>
      </trkpt>
      <trkpt lat="47.23066" lon="-0.0463">
        <ele>71</ele>
        <time>2012-05-12T13:45:27.457Z</time>
      </trkpt>
      <trkpt lat="47.23071" lon="-0.04627">
        <ele>71</ele>
        <time>2012-05-12T13:45:32.457Z</time>
      </trkpt>
      <trkpt lat="47.23076" lon="-0.04624">
        <ele>71</ele>
        <time>2012-05-12T13:45:37.457Z</time>
      </trkpt>
      <trkpt lat="47.2308" lon="-0.04621">
        <ele>71</ele>
        <time>2012-05-12T13:45:41.457Z</time>
      </trkpt>
      <trkpt lat="47.23084" lon="-0.04619">
        <ele>72</ele>
        <time>2012-05-12T13:45:45.457Z</time>
      </trkpt>
      <trkpt lat="47.23089" lon="-0.04617">
        <ele>72</ele>
        <time>2012-05-12T13:45:50.457Z</time>
      </trkpt>
      <trkpt lat="47.23094" lon="-0.04615">
        <ele>72</ele>
        <time>2012-05-12T13:45:55.457Z</time>
      </trkpt>
      <trkpt lat="47.231" lon="-0.04613">
        <ele>72</ele>
        <time>2012-05-12T13:46:00.457Z</time>
      </trkpt>
      <trkpt lat="47.23105" lon="-0.04612">
        <ele>72</ele>
        <time>2012-05-12T13:46:05.457Z</time>
      </trkpt>
      <trkpt lat="47.2311" lon="-0.0461">
        <ele>72</ele>
        <time>2012-05-12T13:46:10.457Z</time>
      </trkpt>
      <trkpt lat="47.23116" lon="-0.04608">
        <ele>72</ele>
        <time>2012-05-12T13:46:15.457Z</time>
      </trkpt>
      <trkpt lat="47.23121" lon="-0.04605">
        <ele>73</ele>
        <time>2012-05-12T13:46:20.457Z</time>
      </trkpt>
      <trkpt lat="47.23125" lon="-0.04604">
        <ele>73</ele>
        <time>2012-05-12T13:46:24.457Z</time>
      </trkpt>
      <trkpt lat="47.23129" lon="-0.04602">
        <ele>73</ele>
        <time>2012-05-12T13:46:28.457Z</time>
      </trkpt>
      <trkpt lat="47.23134" lon="-0.046">
        <ele>73</ele>
        <time>2012-05-12T13:46:32.457Z</time>
      </trkpt>
      <trkpt lat="47.23138" lon="-0.04597">
        <ele>73</ele>
        <time>2012-05-12T13:46:36.457Z</time>
      </trkpt>
      <trkpt lat="47.23143" lon="-0.04594">
        <ele>73</ele>
        <time>2012-05-12T13:46:40.457Z</time>
      </trkpt>
      <trkpt lat="47.23147" lon="-0.04592">
        <ele>73</ele>
        <time>2012-05-12T13:46:44.457Z</time>
      </trkpt>
      <trkpt lat="47.23152" lon="-0.04589">
        <ele>73</ele>
        <time>2012-05-12T13:46:49.457Z</time>
      </trkpt>
      <trkpt lat="47.23157" lon="-0.04587">
        <ele>73</ele>
        <time>2012-05-12T13:46:53.457Z</time>
      </trkpt>
      <trkpt lat="47.23161" lon="-0.04586">
        <ele>73</ele>
        <time>2012-05-12T13:46:57.457Z</time>
      </trkpt>
      <trkpt lat="47.23166" lon="-0.04584">
        <ele>73</ele>
        <time>2012-05-12T13:47:01.457Z</time>
      </trkpt>
      <trkpt lat="47.23171" lon="-0.04583">
        <ele>73</ele>
        <time>2012-05-12T13:47:06.457Z</time>
      </trkpt>
      <trkpt lat="47.23176" lon="-0.04581">
        <ele>73</ele>
        <time>2012-05-12T13:47:11.457Z</time>
      </trkpt>
      <trkpt lat="47.23181" lon="-0.04579">
        <ele>74</ele>
        <time>2012-05-12T13:47:16.457Z</time>
      </trkpt>
      <trkpt lat="47.23185" lon="-0.04576">
        <ele>74</ele>
        <time>2012-05-12T13:47:20.457Z</time>
      </trkpt>
      <trkpt lat="47.2319" lon="-0.04573">
        <ele>74</ele>
        <time>2012-05-12T13:47:24.457Z</time>
      </trkpt>
      <trkpt lat="47.23194" lon="-0.0457">
        <ele>74</ele>
        <time>2012-05-12T13:47:28.457Z</time>
      </trkpt>
      <trkpt lat="47.23199" lon="-0.04566">
        <ele>74</ele>
        <time>2012-05-12T13:47:33.457Z</time>
      </trkpt>
      <trkpt lat="47.23202" lon="-0.04562">
        <ele>74</ele>
        <time>2012-05-12T13:47:37.457Z</time>
      </trkpt>
      <trkpt lat="47.23206" lon="-0.04558">
        <ele>74</ele>
        <time>2012-05-12T13:47:41.457Z</time>
      </trkpt>
      <trkpt lat="47.2321" lon="-0.04553">
        <ele>74</ele>
        <time>2012-05-12T13:47:46.457Z</time>
      </trkpt>
      <trkpt lat="47.23214" lon="-0.04548">
        <ele>75</ele>
        <time>2012-05-12T13:47:50.457Z</time>
      </trkpt>
      <trkpt lat="47.23218" lon="-0.04543">
        <ele>75</ele>
        <time>2012-05-12T13:47:55.457Z</time>
      </trkpt>
      <trkpt lat="47.23222" lon="-0.04538">
        <ele>75</ele>
        <time>2012-05-12T13:48:00.457Z</time>
      </trkpt>
      <trkpt lat="47.23226" lon="-0.04534">
        <ele>75</ele>
        <time>2012-05-12T13:48:04.457Z</time>
      </trkpt>
      <trkpt lat="47.23231" lon="-0.04532">
        <ele>75</ele>
        <time>2012-05-12T13:48:08.457Z</time>
      </trkpt>
      <trkpt lat="47.23235" lon="-0.04528">
        <ele>75</ele>
        <time>2012-05-12T13:48:12.457Z</time>
      </trkpt>
      <trkpt lat="47.23239" lon="-0.04526">
        <ele>75</ele>
        <time>2012-05-12T13:48:16.457Z</time>
      </trkpt>
      <trkpt lat="47.23243" lon="-0.04523">
        <ele>75</ele>
        <time>2012-05-12T13:48:20.457Z</time>
      </trkpt>
      <trkpt lat="47.23248" lon="-0.04522">
        <ele>75</ele>
        <time>2012-05-12T13:48:24.457Z</time>
      </trkpt>
      <trkpt lat="47.23253" lon="-0.0452">
        <ele>76</ele>
        <time>2012-05-12T13:48:28.457Z</time>
      </trkpt>
      <trkpt lat="47.23257" lon="-0.04518">
        <ele>76</ele>
        <time>2012-05-12T13:48:32.457Z</time>
      </trkpt>
      <trkpt lat="47.23262" lon="-0.04516">
        <ele>76</ele>
        <time>2012-05-12T13:48:36.457Z</time>
      </trkpt>
      <trkpt lat="47.23266" lon="-0.04513">
        <ele>76</ele>
        <time>2012-05-12T13:48:40.457Z</time>
      </trkpt>
      <trkpt lat="47.23271" lon="-0.0451">
        <ele>76</ele>
        <time>2012-05-12T13:48:45.457Z</time>
      </trkpt>
      <trkpt lat="47.23276" lon="-0.04508">
        <ele>76</ele>
        <time>2012-05-12T13:48:50.457Z</time>
      </trkpt>
      <trkpt lat="47.23281" lon="-0.04506">
        <ele>76</ele>
        <time>2012-05-12T13:48:54.457Z</time>
      </trkpt>
      <trkpt lat="47.23286" lon="-0.04504">
        <ele>77</ele>
        <time>2012-05-12T13:48:58.457Z</time>
      </trkpt>
      <trkpt lat="47.2329" lon="-0.04503">
        <ele>77</ele>
        <time>2012-05-12T13:49:02.457Z</time>
      </trkpt>
      <trkpt lat="47.23295" lon="-0.04502">
        <ele>77</ele>
        <time>2012-05-12T13:49:06.457Z</time>
      </trkpt>
      <trkpt lat="47.233" lon="-0.04501">
        <ele>77</ele>
        <time>2012-05-12T13:49:10.457Z</time>
      </trkpt>
      <trkpt lat="47.23305" lon="-0.04501">
        <ele>77</ele>
        <time>2012-05-12T13:49:14.457Z</time>
      </trkpt>
      <trkpt lat="47.23309" lon="-0.04501">
        <ele>77</ele>
        <time>2012-05-12T13:49:18.457Z</time>
      </trkpt>
      <trkpt lat="47.23314" lon="-0.045">
        <ele>77</ele>
        <time>2012-05-12T13:49:22.457Z</time>
      </trkpt>
      <trkpt lat="47.2332" lon="-0.04499">
        <ele>78</ele>
        <time>2012-05-12T13:49:27.457Z</time>
      </trkpt>
      <trkpt lat="47.23324" lon="-0.04499">
        <ele>78</ele>
        <time>2012-05-12T13:49:31.457Z</time>
      </trkpt>
      <trkpt lat="47.23329" lon="-0.04498">
        <ele>78</ele>
        <time>2012-05-12T13:49:35.457Z</time>
      </trkpt>
      <trkpt lat="47.23334" lon="-0.04497">
        <ele>78</ele>
        <time>2012-05-12T13:49:39.457Z</time>
      </trkpt>
      <trkpt lat="47.23338" lon="-0.04498">
        <ele>78</ele>
        <time>2012-05-12T13:49:43.457Z</time>
      </trkpt>
      <trkpt lat="47.23343" lon="-0.04498">
        <ele>79</ele>
        <time>2012-05-12T13:49:47.457Z</time>
      </trkpt>
      <trkpt lat="47.23348" lon="-0.045">
        <ele>79</ele>
        <time>2012-05-12T13:49:51.457Z</time>
      </trkpt>
      <trkpt lat="47.23353" lon="-0.045">
        <ele>79</ele>
        <time>2012-05-12T13:49:55.457Z</time>
      </trkpt>
      <trkpt lat="47.23357" lon="-0.04501">
        <ele>79</ele>
        <time>2012-05-12T13:49:59.457Z</time>
      </trkpt>
      <trkpt lat="47.23362" lon="-0.04502">
        <ele>79</ele>
        <time>2012-05-12T13:50:03.457Z</time>
      </trkpt>
      <trkpt lat="47.23366" lon="-0.04503">
        <ele>80</ele>
        <time>2012-05-12T13:50:07.457Z</time>
      </trkpt>
      <trkpt lat="47.23371" lon="-0.04504">
        <ele>80</ele>
        <time>2012-05-12T13:50:11.457Z</time>
      </trkpt>
      <trkpt lat="47.23376" lon="-0.04505">
        <ele>80</ele>
        <time>2012-05-12T13:50:15.457Z</time>
      </trkpt>
      <trkpt lat="47.2338" lon="-0.04506">
        <ele>80</ele>
        <time>2012-05-12T13:50:19.457Z</time>
      </trkpt>
      <trkpt lat="47.23385" lon="-0.04507">
        <ele>80</ele>
        <time>2012-05-12T13:50:23.457Z</time>
      </trkpt>
      <trkpt lat="47.2339" lon="-0.04508">
        <ele>80</ele>
        <time>2012-05-12T13:50:27.457Z</time>
      </trkpt>
      <trkpt lat="47.23394" lon="-0.0451">
        <ele>80</ele>
        <time>2012-05-12T13:50:31.457Z</time>
      </trkpt>
      <trkpt lat="47.23399" lon="-0.04511">
        <ele>80</ele>
        <time>2012-05-12T13:50:35.457Z</time>
      </trkpt>
      <trkpt lat="47.23403" lon="-0.04513">
        <ele>81</ele>
        <time>2012-05-12T13:50:39.457Z</time>
      </trkpt>
      <trkpt lat="47.23408" lon="-0.04514">
        <ele>81</ele>
        <time>2012-05-12T13:50:43.457Z</time>
      </trkpt>
      <trkpt lat="47.23412" lon="-0.04515">
        <ele>81</ele>
        <time>2012-05-12T13:50:47.457Z</time>
      </trkpt>
      <trkpt lat="47.23417" lon="-0.04517">
        <ele>83</ele>
        <time>2012-05-12T13:50:51.457Z</time>
      </trkpt>
      <trkpt lat="47.23421" lon="-0.04518">
        <ele>83</ele>
        <time>2012-05-12T13:50:55.457Z</time>
      </trkpt>
      <trkpt lat="47.23426" lon="-0.0452">
        <ele>83</ele>
        <time>2012-05-12T13:50:59.457Z</time>
      </trkpt>
      <trkpt lat="47.2343" lon="-0.04523">
        <ele>84</ele>
        <time>2012-05-12T13:51:03.457Z</time>
      </trkpt>
      <trkpt lat="47.23435" lon="-0.04526">
        <ele>84</ele>
        <time>2012-05-12T13:51:07.457Z</time>
      </trkpt>
      <trkpt lat="47.23439" lon="-0.04528">
        <ele>84</ele>
        <time>2012-05-12T13:51:11.457Z</time>
      </trkpt>
      <trkpt lat="47.23444" lon="-0.0453">
        <ele>85</ele>
        <time>2012-05-12T13:51:15.457Z</time>
      </trkpt>
      <trkpt lat="47.23448" lon="-0.04533">
        <ele>85</ele>
        <time>2012-05-12T13:51:19.457Z</time>
      </trkpt>
      <trkpt lat="47.23453" lon="-0.04534">
        <ele>85</ele>
        <time>2012-05-12T13:51:23.457Z</time>
      </trkpt>
      <trkpt lat="47.23457" lon="-0.04534">
        <ele>85</ele>
        <time>2012-05-12T13:51:27.457Z</time>
      </trkpt>
      <trkpt lat="47.23462" lon="-0.04533">
        <ele>85</ele>
        <time>2012-05-12T13:51:31.457Z</time>
      </trkpt>
      <trkpt lat="47.23466" lon="-0.04531">
        <ele>85</ele>
        <time>2012-05-12T13:51:35.457Z</time>
      </trkpt>
      <trkpt lat="47.23472" lon="-0.04528">
        <ele>85</ele>
        <time>2012-05-12T13:51:40.457Z</time>
      </trkpt>
      <trkpt lat="47.23475" lon="-0.04525">
        <ele>85</ele>
        <time>2012-05-12T13:51:44.457Z</time>
      </trkpt>
      <trkpt lat="47.2348" lon="-0.04521">
        <ele>86</ele>
        <time>2012-05-12T13:51:48.457Z</time>
      </trkpt>
      <trkpt lat="47.23485" lon="-0.04518">
        <ele>86</ele>
        <time>2012-05-12T13:51:53.457Z</time>
      </trkpt>
      <trkpt lat="47.2349" lon="-0.04516">
        <ele>86</ele>
        <time>2012-05-12T13:51:58.457Z</time>
      </trkpt>
      <trkpt lat="47.23495" lon="-0.04515">
        <ele>86</ele>
        <time>2012-05-12T13:52:03.457Z</time>
      </trkpt>
      <trkpt lat="47.23499" lon="-0.04513">
        <ele>86</ele>
        <time>2012-05-12T13:52:08.457Z</time>
      </trkpt>
      <trkpt lat="47.23504" lon="-0.04511">
        <ele>87</ele>
        <time>2012-05-12T13:52:13.457Z</time>
      </trkpt>
      <trkpt lat="47.23509" lon="-0.04509">
        <ele>88</ele>
        <time>2012-05-12T13:52:18.457Z</time>
      </trkpt>
      <trkpt lat="47.23514" lon="-0.04507">
        <ele>88</ele>
        <time>2012-05-12T13:52:23.457Z</time>
      </trkpt>
      <trkpt lat="47.23519" lon="-0.04506">
        <ele>88</ele>
        <time>2012-05-12T13:52:28.457Z</time>
      </trkpt>
      <trkpt lat="47.23525" lon="-0.04505">
        <ele>88</ele>
        <time>2012-05-12T13:52:33.457Z</time>
      </trkpt>
      <trkpt lat="47.23529" lon="-0.04504">
        <ele>89</ele>
        <time>2012-05-12T13:52:37.457Z</time>
      </trkpt>
      <trkpt lat="47.23534" lon="-0.04502">
        <ele>89</ele>
        <time>2012-05-12T13:52:42.457Z</time>
      </trkpt>
      <trkpt lat="47.2354" lon="-0.04499">
        <ele>88</ele>
        <time>2012-05-12T13:52:47.457Z</time>
      </trkpt>
      <trkpt lat="47.23544" lon="-0.04496">
        <ele>88</ele>
        <time>2012-05-12T13:52:51.457Z</time>
      </trkpt>
      <trkpt lat="47.23548" lon="-0.04492">
        <ele>88</ele>
        <time>2012-05-12T13:52:55.457Z</time>
      </trkpt>
      <trkpt lat="47.23552" lon="-0.04487">
        <ele>88</ele>
        <time>2012-05-12T13:52:59.457Z</time>
      </trkpt>
      <trkpt lat="47.23556" lon="-0.04483">
        <ele>88</ele>
        <time>2012-05-12T13:53:03.457Z</time>
      </trkpt>
      <trkpt lat="47.2356" lon="-0.04478">
        <ele>88</ele>
        <time>2012-05-12T13:53:07.457Z</time>
      </trkpt>
      <trkpt lat="47.23565" lon="-0.04472">
        <ele>88</ele>
        <time>2012-05-12T13:53:11.457Z</time>
      </trkpt>
      <trkpt lat="47.23569" lon="-0.04466">
        <ele>88</ele>
        <time>2012-05-12T13:53:15.457Z</time>
      </trkpt>
      <trkpt lat="47.23573" lon="-0.04461">
        <ele>88</ele>
        <time>2012-05-12T13:53:19.457Z</time>
      </trkpt>
      <trkpt lat="47.23577" lon="-0.04456">
        <ele>88</ele>
        <time>2012-05-12T13:53:23.457Z</time>
      </trkpt>
      <trkpt lat="47.23581" lon="-0.04452">
        <ele>88</ele>
        <time>2012-05-12T13:53:27.457Z</time>
      </trkpt>
      <trkpt lat="47.23585" lon="-0.04448">
        <ele>89</ele>
        <time>2012-05-12T13:53:32.457Z</time>
      </trkpt>
      <trkpt lat="47.23589" lon="-0.04444">
        <ele>89</ele>
        <time>2012-05-12T13:53:36.457Z</time>
      </trkpt>
      <trkpt lat="47.23593" lon="-0.0444">
        <ele>89</ele>
        <time>2012-05-12T13:53:40.457Z</time>
      </trkpt>
      <trkpt lat="47.23597" lon="-0.04436">
        <ele>89</ele>
        <time>2012-05-12T13:53:44.457Z</time>
      </trkpt>
      <trkpt lat="47.23601" lon="-0.04432">
        <ele>89</ele>
        <time>2012-05-12T13:53:48.457Z</time>
      </trkpt>
      <trkpt lat="47.23605" lon="-0.04429">
        <ele>89</ele>
        <time>2012-05-12T13:53:52.457Z</time>
      </trkpt>
      <trkpt lat="47.2361" lon="-0.04427">
        <ele>89</ele>
        <time>2012-05-12T13:53:56.457Z</time>
      </trkpt>
      <trkpt lat="47.23614" lon="-0.04424">
        <ele>89</ele>
        <time>2012-05-12T13:54:00.457Z</time>
      </trkpt>
      <trkpt lat="47.23619" lon="-0.04422">
        <ele>89</ele>
        <time>2012-05-12T13:54:04.457Z</time>
      </trkpt>
      <trkpt lat="47.23623" lon="-0.0442">
        <ele>89</ele>
        <time>2012-05-12T13:54:08.457Z</time>
      </trkpt>
      <trkpt lat="47.23628" lon="-0.04418">
        <ele>89</ele>
        <time>2012-05-12T13:54:12.457Z</time>
      </trkpt>
      <trkpt lat="47.23632" lon="-0.04414">
        <ele>89</ele>
        <time>2012-05-12T13:54:16.457Z</time>
      </trkpt>
      <trkpt lat="47.23637" lon="-0.04411">
        <ele>89</ele>
        <time>2012-05-12T13:54:20.457Z</time>
      </trkpt>
      <trkpt lat="47.23642" lon="-0.04408">
        <ele>89</ele>
        <time>2012-05-12T13:54:24.457Z</time>
      </trkpt>
      <trkpt lat="47.23647" lon="-0.04405">
        <ele>89</ele>
        <time>2012-05-12T13:54:28.457Z</time>
      </trkpt>
      <trkpt lat="47.23652" lon="-0.04402">
        <ele>89</ele>
        <time>2012-05-12T13:54:32.457Z</time>
      </trkpt>
      <trkpt lat="47.23657" lon="-0.04399">
        <ele>89</ele>
        <time>2012-05-12T13:54:36.457Z</time>
      </trkpt>
      <trkpt lat="47.23662" lon="-0.04396">
        <ele>89</ele>
        <time>2012-05-12T13:54:40.457Z</time>
      </trkpt>
      <trkpt lat="47.23666" lon="-0.04393">
        <ele>89</ele>
        <time>2012-05-12T13:54:44.457Z</time>
      </trkpt>
      <trkpt lat="47.23671" lon="-0.04391">
        <ele>87</ele>
        <time>2012-05-12T13:54:48.457Z</time>
      </trkpt>
      <trkpt lat="47.23676" lon="-0.04389">
        <ele>87</ele>
        <time>2012-05-12T13:54:52.457Z</time>
      </trkpt>
      <trkpt lat="47.23681" lon="-0.04387">
        <ele>87</ele>
        <time>2012-05-12T13:54:56.457Z</time>
      </trkpt>
      <trkpt lat="47.23685" lon="-0.04385">
        <ele>87</ele>
        <time>2012-05-12T13:55:00.457Z</time>
      </trkpt>
      <trkpt lat="47.2369" lon="-0.04383">
        <ele>87</ele>
        <time>2012-05-12T13:55:04.457Z</time>
      </trkpt>
      <trkpt lat="47.23695" lon="-0.04381">
        <ele>87</ele>
        <time>2012-05-12T13:55:08.457Z</time>
      </trkpt>
      <trkpt lat="47.23699" lon="-0.04378">
        <ele>87</ele>
        <time>2012-05-12T13:55:12.457Z</time>
      </trkpt>
      <trkpt lat="47.23704" lon="-0.04375">
        <ele>86</ele>
        <time>2012-05-12T13:55:16.457Z</time>
      </trkpt>
      <trkpt lat="47.23709" lon="-0.04373">
        <ele>86</ele>
        <time>2012-05-12T13:55:20.457Z</time>
      </trkpt>
      <trkpt lat="47.23714" lon="-0.04371">
        <ele>86</ele>
        <time>2012-05-12T13:55:24.457Z</time>
      </trkpt>
      <trkpt lat="47.23719" lon="-0.04369">
        <ele>86</ele>
        <time>2012-05-12T13:55:28.457Z</time>
      </trkpt>
      <trkpt lat="47.23724" lon="-0.04368">
        <ele>86</ele>
        <time>2012-05-12T13:55:32.457Z</time>
      </trkpt>
      <trkpt lat="47.23729" lon="-0.04367">
        <ele>86</ele>
        <time>2012-05-12T13:55:36.457Z</time>
      </trkpt>
      <trkpt lat="47.23734" lon="-0.04366">
        <ele>85</ele>
        <time>2012-05-12T13:55:40.457Z</time>
      </trkpt>
      <trkpt lat="47.23739" lon="-0.04364">
        <ele>85</ele>
        <time>2012-05-12T13:55:44.457Z</time>
      </trkpt>
      <trkpt lat="47.23744" lon="-0.04363">
        <ele>85</ele>
        <time>2012-05-12T13:55:48.457Z</time>
      </trkpt>
      <trkpt lat="47.23749" lon="-0.04363">
        <ele>85</ele>
        <time>2012-05-12T13:55:52.457Z</time>
      </trkpt>
      <trkpt lat="47.23754" lon="-0.04363">
        <ele>82</ele>
        <time>2012-05-12T13:55:56.457Z</time>
      </trkpt>
      <trkpt lat="47.23759" lon="-0.04362">
        <ele>82</ele>
        <time>2012-05-12T13:56:00.457Z</time>
      </trkpt>
      <trkpt lat="47.23764" lon="-0.0436">
        <ele>82</ele>
        <time>2012-05-12T13:56:04.457Z</time>
      </trkpt>
      <trkpt lat="47.23769" lon="-0.04358">
        <ele>82</ele>
        <time>2012-05-12T13:56:08.457Z</time>
      </trkpt>
      <trkpt lat="47.23773" lon="-0.04357">
        <ele>82</ele>
        <time>2012-05-12T13:56:12.457Z</time>
      </trkpt>
      <trkpt lat="47.23778" lon="-0.04354">
        <ele>82</ele>
        <time>2012-05-12T13:56:16.457Z</time>
      </trkpt>
      <trkpt lat="47.23782" lon="-0.04352">
        <ele>81</ele>
        <time>2012-05-12T13:56:20.457Z</time>
      </trkpt>
      <trkpt lat="47.23787" lon="-0.0435">
        <ele>81</ele>
        <time>2012-05-12T13:56:24.457Z</time>
      </trkpt>
      <trkpt lat="47.23792" lon="-0.04348">
        <ele>81</ele>
        <time>2012-05-12T13:56:28.457Z</time>
      </trkpt>
      <trkpt lat="47.23797" lon="-0.04347">
        <ele>81</ele>
        <time>2012-05-12T13:56:32.457Z</time>
      </trkpt>
      <trkpt lat="47.23802" lon="-0.04348">
        <ele>81</ele>
        <time>2012-05-12T13:56:36.457Z</time>
      </trkpt>
      <trkpt lat="47.23806" lon="-0.04349">
        <ele>80</ele>
        <time>2012-05-12T13:56:40.457Z</time>
      </trkpt>
      <trkpt lat="47.23811" lon="-0.04351">
        <ele>80</ele>
        <time>2012-05-12T13:56:44.457Z</time>
      </trkpt>
      <trkpt lat="47.23816" lon="-0.04355">
        <ele>80</ele>
        <time>2012-05-12T13:56:48.457Z</time>
      </trkpt>
      <trkpt lat="47.2382" lon="-0.04359">
        <ele>80</ele>
        <time>2012-05-12T13:56:52.457Z</time>
      </trkpt>
      <trkpt lat="47.23825" lon="-0.04363">
        <ele>80</ele>
        <time>2012-05-12T13:56:56.457Z</time>
      </trkpt>
      <trkpt lat="47.23829" lon="-0.04365">
        <ele>80</ele>
        <time>2012-05-12T13:57:00.457Z</time>
      </trkpt>
      <trkpt lat="47.23834" lon="-0.04367">
        <ele>78</ele>
        <time>2012-05-12T13:57:04.457Z</time>
      </trkpt>
      <trkpt lat="47.2384" lon="-0.04369">
        <ele>78</ele>
        <time>2012-05-12T13:57:08.457Z</time>
      </trkpt>
      <trkpt lat="47.23844" lon="-0.0437">
        <ele>78</ele>
        <time>2012-05-12T13:57:12.457Z</time>
      </trkpt>
      <trkpt lat="47.23849" lon="-0.04371">
        <ele>78</ele>
        <time>2012-05-12T13:57:16.457Z</time>
      </trkpt>
      <trkpt lat="47.23854" lon="-0.04372">
        <ele>78</ele>
        <time>2012-05-12T13:57:21.457Z</time>
      </trkpt>
      <trkpt lat="47.23859" lon="-0.04372">
        <ele>78</ele>
        <time>2012-05-12T13:57:26.457Z</time>
      </trkpt>
      <trkpt lat="47.23864" lon="-0.04371">
        <ele>78</ele>
        <time>2012-05-12T13:57:31.457Z</time>
      </trkpt>
      <trkpt lat="47.23868" lon="-0.04369">
        <ele>78</ele>
        <time>2012-05-12T13:57:36.457Z</time>
      </trkpt>
      <trkpt lat="47.2387" lon="-0.04362">
        <ele>77</ele>
        <time>2012-05-12T13:57:52.457Z</time>
      </trkpt>
      <trkpt lat="47.23872" lon="-0.04355">
        <ele>77</ele>
        <time>2012-05-12T13:57:58.457Z</time>
      </trkpt>
      <trkpt lat="47.23876" lon="-0.0436">
        <ele>77</ele>
        <time>2012-05-12T13:58:25.457Z</time>
      </trkpt>
      <trkpt lat="47.2388" lon="-0.04364">
        <ele>77</ele>
        <time>2012-05-12T13:58:30.457Z</time>
      </trkpt>
      <trkpt lat="47.23885" lon="-0.04367">
        <ele>77</ele>
        <time>2012-05-12T13:58:35.457Z</time>
      </trkpt>
      <trkpt lat="47.23889" lon="-0.0437">
        <ele>77</ele>
        <time>2012-05-12T13:58:41.457Z</time>
      </trkpt>
      <trkpt lat="47.23894" lon="-0.04374">
        <ele>77</ele>
        <time>2012-05-12T13:58:46.457Z</time>
      </trkpt>
      <trkpt lat="47.23898" lon="-0.04376">
        <ele>77</ele>
        <time>2012-05-12T13:58:50.457Z</time>
      </trkpt>
      <trkpt lat="47.23902" lon="-0.0438">
        <ele>77</ele>
        <time>2012-05-12T13:58:55.457Z</time>
      </trkpt>
      <trkpt lat="47.23907" lon="-0.04384">
        <ele>77</ele>
        <time>2012-05-12T13:59:01.457Z</time>
      </trkpt>
      <trkpt lat="47.23911" lon="-0.0438">
        <ele>77</ele>
        <time>2012-05-12T13:59:14.457Z</time>
      </trkpt>
      <trkpt lat="47.23908" lon="-0.04374">
        <ele>77</ele>
        <time>2012-05-12T13:59:40.457Z</time>
      </trkpt>
      <trkpt lat="47.23913" lon="-0.04375">
        <ele>77</ele>
        <time>2012-05-12T14:00:27.457Z</time>
      </trkpt>
      <trkpt lat="47.23914" lon="-0.04368">
        <ele>77</ele>
        <time>2012-05-12T14:00:42.457Z</time>
      </trkpt>
      <trkpt lat="47.23913" lon="-0.04361">
        <ele>77</ele>
        <time>2012-05-12T14:00:46.457Z</time>
      </trkpt>
      <trkpt lat="47.2391" lon="-0.04354">
        <ele>77</ele>
        <time>2012-05-12T14:00:51.457Z</time>
      </trkpt>
      <trkpt lat="47.23908" lon="-0.04347">
        <ele>77</ele>
        <time>2012-05-12T14:00:56.457Z</time>
      </trkpt>
      <trkpt lat="47.23906" lon="-0.04339">
        <ele>77</ele>
        <time>2012-05-12T14:01:01.457Z</time>
      </trkpt>
      <trkpt lat="47.23905" lon="-0.04332">
        <ele>76</ele>
        <time>2012-05-12T14:01:06.457Z</time>
      </trkpt>
      <trkpt lat="47.23903" lon="-0.04325">
        <ele>77</ele>
        <time>2012-05-12T14:01:11.457Z</time>
      </trkpt>
      <trkpt lat="47.23902" lon="-0.04317">
        <ele>77</ele>
        <time>2012-05-12T14:01:16.457Z</time>
      </trkpt>
      <trkpt lat="47.23901" lon="-0.0431">
        <ele>77</ele>
        <time>2012-05-12T14:01:20.457Z</time>
      </trkpt>
      <trkpt lat="47.239" lon="-0.04302">
        <ele>77</ele>
        <time>2012-05-12T14:01:25.457Z</time>
      </trkpt>
      <trkpt lat="47.23899" lon="-0.04294">
        <ele>77</ele>
        <time>2012-05-12T14:01:30.457Z</time>
      </trkpt>
      <trkpt lat="47.23898" lon="-0.04286">
        <ele>77</ele>
        <time>2012-05-12T14:01:35.457Z</time>
      </trkpt>
      <trkpt lat="47.23896" lon="-0.04278">
        <ele>77</ele>
        <time>2012-05-12T14:01:40.457Z</time>
      </trkpt>
      <trkpt lat="47.23895" lon="-0.0427">
        <ele>77</ele>
        <time>2012-05-12T14:01:45.457Z</time>
      </trkpt>
      <trkpt lat="47.23893" lon="-0.04263">
        <ele>77</ele>
        <time>2012-05-12T14:01:50.457Z</time>
      </trkpt>
      <trkpt lat="47.23891" lon="-0.04255">
        <ele>77</ele>
        <time>2012-05-12T14:01:55.457Z</time>
      </trkpt>
      <trkpt lat="47.2389" lon="-0.04248">
        <ele>78</ele>
        <time>2012-05-12T14:01:59.457Z</time>
      </trkpt>
      <trkpt lat="47.23888" lon="-0.04242">
        <ele>78</ele>
        <time>2012-05-12T14:02:03.457Z</time>
      </trkpt>
      <trkpt lat="47.23885" lon="-0.04236">
        <ele>78</ele>
        <time>2012-05-12T14:02:07.457Z</time>
      </trkpt>
      <trkpt lat="47.23883" lon="-0.04231">
        <ele>78</ele>
        <time>2012-05-12T14:02:11.457Z</time>
      </trkpt>
      <trkpt lat="47.2388" lon="-0.04224">
        <ele>78</ele>
        <time>2012-05-12T14:02:16.457Z</time>
      </trkpt>
      <trkpt lat="47.23877" lon="-0.04217">
        <ele>78</ele>
        <time>2012-05-12T14:02:21.457Z</time>
      </trkpt>
      <trkpt lat="47.23874" lon="-0.0421">
        <ele>78</ele>
        <time>2012-05-12T14:02:26.457Z</time>
      </trkpt>
      <trkpt lat="47.23871" lon="-0.04204">
        <ele>78</ele>
        <time>2012-05-12T14:02:31.457Z</time>
      </trkpt>
      <trkpt lat="47.23867" lon="-0.04197">
        <ele>78</ele>
        <time>2012-05-12T14:02:36.457Z</time>
      </trkpt>
      <trkpt lat="47.23865" lon="-0.04191">
        <ele>78</ele>
        <time>2012-05-12T14:02:40.457Z</time>
      </trkpt>
      <trkpt lat="47.23862" lon="-0.04185">
        <ele>78</ele>
        <time>2012-05-12T14:02:44.457Z</time>
      </trkpt>
      <trkpt lat="47.23859" lon="-0.04179">
        <ele>79</ele>
        <time>2012-05-12T14:02:48.457Z</time>
      </trkpt>
      <trkpt lat="47.23856" lon="-0.04173">
        <ele>79</ele>
        <time>2012-05-12T14:02:52.457Z</time>
      </trkpt>
      <trkpt lat="47.23853" lon="-0.04167">
        <ele>79</ele>
        <time>2012-05-12T14:02:56.457Z</time>
      </trkpt>
      <trkpt lat="47.2385" lon="-0.04161">
        <ele>80</ele>
        <time>2012-05-12T14:03:00.457Z</time>
      </trkpt>
      <trkpt lat="47.23847" lon="-0.04155">
        <ele>80</ele>
        <time>2012-05-12T14:03:04.457Z</time>
      </trkpt>
      <trkpt lat="47.23844" lon="-0.0415">
        <ele>80</ele>
        <time>2012-05-12T14:03:08.457Z</time>
      </trkpt>
      <trkpt lat="47.2384" lon="-0.04144">
        <ele>80</ele>
        <time>2012-05-12T14:03:12.457Z</time>
      </trkpt>
      <trkpt lat="47.23838" lon="-0.04138">
        <ele>80</ele>
        <time>2012-05-12T14:03:16.457Z</time>
      </trkpt>
      <trkpt lat="47.23834" lon="-0.04132">
        <ele>80</ele>
        <time>2012-05-12T14:03:20.457Z</time>
      </trkpt>
      <trkpt lat="47.23831" lon="-0.04126">
        <ele>80</ele>
        <time>2012-05-12T14:03:24.457Z</time>
      </trkpt>
      <trkpt lat="47.23828" lon="-0.0412">
        <ele>80</ele>
        <time>2012-05-12T14:03:28.457Z</time>
      </trkpt>
      <trkpt lat="47.23825" lon="-0.04114">
        <ele>80</ele>
        <time>2012-05-12T14:03:32.457Z</time>
      </trkpt>
      <trkpt lat="47.23822" lon="-0.04107">
        <ele>80</ele>
        <time>2012-05-12T14:03:36.457Z</time>
      </trkpt>
      <trkpt lat="47.2382" lon="-0.04101">
        <ele>80</ele>
        <time>2012-05-12T14:03:40.457Z</time>
      </trkpt>
      <trkpt lat="47.23818" lon="-0.04095">
        <ele>81</ele>
        <time>2012-05-12T14:03:44.457Z</time>
      </trkpt>
      <trkpt lat="47.23815" lon="-0.0409">
        <ele>81</ele>
        <time>2012-05-12T14:03:48.457Z</time>
      </trkpt>
      <trkpt lat="47.23812" lon="-0.04084">
        <ele>81</ele>
        <time>2012-05-12T14:03:52.457Z</time>
      </trkpt>
      <trkpt lat="47.23809" lon="-0.04077">
        <ele>81</ele>
        <time>2012-05-12T14:03:57.457Z</time>
      </trkpt>
      <trkpt lat="47.23806" lon="-0.0407">
        <ele>81</ele>
        <time>2012-05-12T14:04:02.457Z</time>
      </trkpt>
      <trkpt lat="47.23803" lon="-0.04063">
        <ele>81</ele>
        <time>2012-05-12T14:04:07.457Z</time>
      </trkpt>
      <trkpt lat="47.238" lon="-0.04057">
        <ele>81</ele>
        <time>2012-05-12T14:04:12.457Z</time>
      </trkpt>
      <trkpt lat="47.23797" lon="-0.04051">
        <ele>81</ele>
        <time>2012-05-12T14:04:16.457Z</time>
      </trkpt>
      <trkpt lat="47.23795" lon="-0.04045">
        <ele>81</ele>
        <time>2012-05-12T14:04:20.457Z</time>
      </trkpt>
      <trkpt lat="47.23792" lon="-0.04038">
        <ele>81</ele>
        <time>2012-05-12T14:04:25.457Z</time>
      </trkpt>
      <trkpt lat="47.2379" lon="-0.04032">
        <ele>81</ele>
        <time>2012-05-12T14:04:29.457Z</time>
      </trkpt>
      <trkpt lat="47.23787" lon="-0.04025">
        <ele>81</ele>
        <time>2012-05-12T14:04:33.457Z</time>
      </trkpt>
      <trkpt lat="47.23785" lon="-0.04019">
        <ele>81</ele>
        <time>2012-05-12T14:04:37.457Z</time>
      </trkpt>
      <trkpt lat="47.23783" lon="-0.04013">
        <ele>81</ele>
        <time>2012-05-12T14:04:41.457Z</time>
      </trkpt>
      <trkpt lat="47.23781" lon="-0.04006">
        <ele>81</ele>
        <time>2012-05-12T14:04:45.457Z</time>
      </trkpt>
      <trkpt lat="47.2378" lon="-0.04">
        <ele>81</ele>
        <time>2012-05-12T14:04:49.457Z</time>
      </trkpt>
      <trkpt lat="47.23778" lon="-0.03994">
        <ele>81</ele>
        <time>2012-05-12T14:04:53.457Z</time>
      </trkpt>
      <trkpt lat="47.23776" lon="-0.03987">
        <ele>82</ele>
        <time>2012-05-12T14:04:57.457Z</time>
      </trkpt>
      <trkpt lat="47.23774" lon="-0.03981">
        <ele>82</ele>
        <time>2012-05-12T14:05:01.457Z</time>
      </trkpt>
      <trkpt lat="47.23772" lon="-0.03975">
        <ele>82</ele>
        <time>2012-05-12T14:05:05.457Z</time>
      </trkpt>
      <trkpt lat="47.2377" lon="-0.03968">
        <ele>82</ele>
        <time>2012-05-12T14:05:09.457Z</time>
      </trkpt>
      <trkpt lat="47.23767" lon="-0.03961">
        <ele>82</ele>
        <time>2012-05-12T14:05:13.457Z</time>
      </trkpt>
      <trkpt lat="47.23765" lon="-0.03955">
        <ele>82</ele>
        <time>2012-05-12T14:05:17.457Z</time>
      </trkpt>
      <trkpt lat="47.23763" lon="-0.03949">
        <ele>82</ele>
        <time>2012-05-12T14:05:21.457Z</time>
      </trkpt>
      <trkpt lat="47.2376" lon="-0.03943">
        <ele>82</ele>
        <time>2012-05-12T14:05:25.457Z</time>
      </trkpt>
      <trkpt lat="47.23758" lon="-0.03937">
        <ele>82</ele>
        <time>2012-05-12T14:05:29.457Z</time>
      </trkpt>
      <trkpt lat="47.23757" lon="-0.03931">
        <ele>82</ele>
        <time>2012-05-12T14:05:33.457Z</time>
      </trkpt>
      <trkpt lat="47.23755" lon="-0.03924">
        <ele>82</ele>
        <time>2012-05-12T14:05:37.457Z</time>
      </trkpt>
      <trkpt lat="47.23753" lon="-0.03918">
        <ele>82</ele>
        <time>2012-05-12T14:05:41.457Z</time>
      </trkpt>
      <trkpt lat="47.23751" lon="-0.03912">
        <ele>82</ele>
        <time>2012-05-12T14:05:45.457Z</time>
      </trkpt>
      <trkpt lat="47.23749" lon="-0.03906">
        <ele>82</ele>
        <time>2012-05-12T14:05:49.457Z</time>
      </trkpt>
      <trkpt lat="47.23748" lon="-0.039">
        <ele>82</ele>
        <time>2012-05-12T14:05:53.457Z</time>
      </trkpt>
      <trkpt lat="47.23746" lon="-0.03893">
        <ele>82</ele>
        <time>2012-05-12T14:05:57.457Z</time>
      </trkpt>
      <trkpt lat="47.23743" lon="-0.03887">
        <ele>82</ele>
        <time>2012-05-12T14:06:01.457Z</time>
      </trkpt>
      <trkpt lat="47.23741" lon="-0.03881">
        <ele>82</ele>
        <time>2012-05-12T14:06:05.457Z</time>
      </trkpt>
      <trkpt lat="47.23739" lon="-0.03875">
        <ele>82</ele>
        <time>2012-05-12T14:06:09.457Z</time>
      </trkpt>
      <trkpt lat="47.23736" lon="-0.03868">
        <ele>82</ele>
        <time>2012-05-12T14:06:13.457Z</time>
      </trkpt>
      <trkpt lat="47.23733" lon="-0.03861">
        <ele>82</ele>
        <time>2012-05-12T14:06:17.457Z</time>
      </trkpt>
      <trkpt lat="47.2373" lon="-0.03854">
        <ele>82</ele>
        <time>2012-05-12T14:06:21.457Z</time>
      </trkpt>
      <trkpt lat="47.23727" lon="-0.03848">
        <ele>82</ele>
        <time>2012-05-12T14:06:25.457Z</time>
      </trkpt>
      <trkpt lat="47.23724" lon="-0.0384">
        <ele>82</ele>
        <time>2012-05-12T14:06:29.457Z</time>
      </trkpt>
      <trkpt lat="47.23721" lon="-0.03834">
        <ele>82</ele>
        <time>2012-05-12T14:06:33.457Z</time>
      </trkpt>
      <trkpt lat="47.23719" lon="-0.03828">
        <ele>83</ele>
        <time>2012-05-12T14:06:37.457Z</time>
      </trkpt>
      <trkpt lat="47.23716" lon="-0.03821">
        <ele>83</ele>
        <time>2012-05-12T14:06:41.457Z</time>
      </trkpt>
      <trkpt lat="47.23714" lon="-0.03814">
        <ele>83</ele>
        <time>2012-05-12T14:06:46.457Z</time>
      </trkpt>
      <trkpt lat="47.23712" lon="-0.03808">
        <ele>83</ele>
        <time>2012-05-12T14:06:50.457Z</time>
      </trkpt>
      <trkpt lat="47.23709" lon="-0.03802">
        <ele>83</ele>
        <time>2012-05-12T14:06:54.457Z</time>
      </trkpt>
      <trkpt lat="47.23706" lon="-0.03796">
        <ele>83</ele>
        <time>2012-05-12T14:06:58.457Z</time>
      </trkpt>
      <trkpt lat="47.23704" lon="-0.03789">
        <ele>83</ele>
        <time>2012-05-12T14:07:03.457Z</time>
      </trkpt>
      <trkpt lat="47.23702" lon="-0.03782">
        <ele>83</ele>
        <time>2012-05-12T14:07:08.457Z</time>
      </trkpt>
      <trkpt lat="47.23699" lon="-0.03775">
        <ele>83</ele>
        <time>2012-05-12T14:07:13.457Z</time>
      </trkpt>
      <trkpt lat="47.23697" lon="-0.03768">
        <ele>83</ele>
        <time>2012-05-12T14:07:18.457Z</time>
      </trkpt>
      <trkpt lat="47.23694" lon="-0.03761">
        <ele>83</ele>
        <time>2012-05-12T14:07:23.457Z</time>
      </trkpt>
      <trkpt lat="47.23692" lon="-0.03754">
        <ele>83</ele>
        <time>2012-05-12T14:07:28.457Z</time>
      </trkpt>
      <trkpt lat="47.23691" lon="-0.03746">
        <ele>83</ele>
        <time>2012-05-12T14:07:33.457Z</time>
      </trkpt>
      <trkpt lat="47.2369" lon="-0.03739">
        <ele>83</ele>
        <time>2012-05-12T14:07:37.457Z</time>
      </trkpt>
      <trkpt lat="47.23689" lon="-0.03732">
        <ele>83</ele>
        <time>2012-05-12T14:07:41.457Z</time>
      </trkpt>
      <trkpt lat="47.23688" lon="-0.03726">
        <ele>83</ele>
        <time>2012-05-12T14:07:48.457Z</time>
      </trkpt>
      <trkpt lat="47.23684" lon="-0.0372">
        <ele>83</ele>
        <time>2012-05-12T14:08:07.457Z</time>
      </trkpt>
      <trkpt lat="47.23685" lon="-0.03713">
        <ele>83</ele>
        <time>2012-05-12T14:08:18.457Z</time>
      </trkpt>
      <trkpt lat="47.23686" lon="-0.03706">
        <ele>83</ele>
        <time>2012-05-12T14:08:26.457Z</time>
      </trkpt>
      <trkpt lat="47.23686" lon="-0.03699">
        <ele>83</ele>
        <time>2012-05-12T14:08:31.457Z</time>
      </trkpt>
      <trkpt lat="47.23687" lon="-0.03693">
        <ele>83</ele>
        <time>2012-05-12T14:08:38.457Z</time>
      </trkpt>
      <trkpt lat="47.23686" lon="-0.03686">
        <ele>83</ele>
        <time>2012-05-12T14:08:47.457Z</time>
      </trkpt>
      <trkpt lat="47.23683" lon="-0.0368">
        <ele>83</ele>
        <time>2012-05-12T14:08:51.457Z</time>
      </trkpt>
      <trkpt lat="47.2368" lon="-0.03674">
        <ele>83</ele>
        <time>2012-05-12T14:08:56.457Z</time>
      </trkpt>
      <trkpt lat="47.23676" lon="-0.03668">
        <ele>83</ele>
        <time>2012-05-12T14:09:01.457Z</time>
      </trkpt>
      <trkpt lat="47.23673" lon="-0.03663">
        <ele>83</ele>
        <time>2012-05-12T14:09:05.457Z</time>
      </trkpt>
      <trkpt lat="47.2367" lon="-0.03658">
        <ele>83</ele>
        <time>2012-05-12T14:09:09.457Z</time>
      </trkpt>
      <trkpt lat="47.23666" lon="-0.03652">
        <ele>83</ele>
        <time>2012-05-12T14:09:13.457Z</time>
      </trkpt>
      <trkpt lat="47.23663" lon="-0.03646">
        <ele>84</ele>
        <time>2012-05-12T14:09:17.457Z</time>
      </trkpt>
      <trkpt lat="47.23659" lon="-0.0364">
        <ele>84</ele>
        <time>2012-05-12T14:09:21.457Z</time>
      </trkpt>
      <trkpt lat="47.23656" lon="-0.03634">
        <ele>84</ele>
        <time>2012-05-12T14:09:25.457Z</time>
      </trkpt>
      <trkpt lat="47.23653" lon="-0.03628">
        <ele>84</ele>
        <time>2012-05-12T14:09:30.457Z</time>
      </trkpt>
      <trkpt lat="47.2365" lon="-0.03622">
        <ele>84</ele>
        <time>2012-05-12T14:09:35.457Z</time>
      </trkpt>
      <trkpt lat="47.23648" lon="-0.03616">
        <ele>84</ele>
        <time>2012-05-12T14:09:42.457Z</time>
      </trkpt>
      <trkpt lat="47.23646" lon="-0.0361">
        <ele>84</ele>
        <time>2012-05-12T14:09:47.457Z</time>
      </trkpt>
      <trkpt lat="47.23644" lon="-0.03602">
        <ele>84</ele>
        <time>2012-05-12T14:09:52.457Z</time>
      </trkpt>
      <trkpt lat="47.23642" lon="-0.03595">
        <ele>84</ele>
        <time>2012-05-12T14:09:57.457Z</time>
      </trkpt>
      <trkpt lat="47.2364" lon="-0.03588">
        <ele>84</ele>
        <time>2012-05-12T14:10:02.457Z</time>
      </trkpt>
      <trkpt lat="47.23638" lon="-0.0358">
        <ele>85</ele>
        <time>2012-05-12T14:10:07.457Z</time>
      </trkpt>
      <trkpt lat="47.23636" lon="-0.03573">
        <ele>86</ele>
        <time>2012-05-12T14:10:12.457Z</time>
      </trkpt>
      <trkpt lat="47.23635" lon="-0.03566">
        <ele>86</ele>
        <time>2012-05-12T14:10:17.457Z</time>
      </trkpt>
      <trkpt lat="47.23634" lon="-0.03559">
        <ele>86</ele>
        <time>2012-05-12T14:10:22.457Z</time>
      </trkpt>
      <trkpt lat="47.23632" lon="-0.03553">
        <ele>86</ele>
        <time>2012-05-12T14:10:27.457Z</time>
      </trkpt>
      <trkpt lat="47.2363" lon="-0.03548">
        <ele>86</ele>
        <time>2012-05-12T14:10:32.457Z</time>
      </trkpt>
      <trkpt lat="47.23627" lon="-0.03542">
        <ele>86</ele>
        <time>2012-05-12T14:10:38.457Z</time>
      </trkpt>
      <trkpt lat="47.23624" lon="-0.03535">
        <ele>86</ele>
        <time>2012-05-12T14:10:43.457Z</time>
      </trkpt>
      <trkpt lat="47.23621" lon="-0.03528">
        <ele>86</ele>
        <time>2012-05-12T14:10:48.457Z</time>
      </trkpt>
      <trkpt lat="47.23618" lon="-0.03522">
        <ele>87</ele>
        <time>2012-05-12T14:10:52.457Z</time>
      </trkpt>
      <trkpt lat="47.23615" lon="-0.03516">
        <ele>87</ele>
        <time>2012-05-12T14:10:56.457Z</time>
      </trkpt>
      <trkpt lat="47.23613" lon="-0.0351">
        <ele>87</ele>
        <time>2012-05-12T14:11:00.457Z</time>
      </trkpt>
      <trkpt lat="47.23609" lon="-0.03505">
        <ele>86</ele>
        <time>2012-05-12T14:11:04.457Z</time>
      </trkpt>
      <trkpt lat="47.23606" lon="-0.035">
        <ele>87</ele>
        <time>2012-05-12T14:11:08.457Z</time>
      </trkpt>
      <trkpt lat="47.23602" lon="-0.03495">
        <ele>87</ele>
        <time>2012-05-12T14:11:12.457Z</time>
      </trkpt>
      <trkpt lat="47.23598" lon="-0.0349">
        <ele>87</ele>
        <time>2012-05-12T14:11:16.457Z</time>
      </trkpt>
      <trkpt lat="47.23595" lon="-0.03485">
        <ele>87</ele>
        <time>2012-05-12T14:11:20.457Z</time>
      </trkpt>
      <trkpt lat="47.23591" lon="-0.0348">
        <ele>87</ele>
        <time>2012-05-12T14:11:24.457Z</time>
      </trkpt>
      <trkpt lat="47.23586" lon="-0.03476">
        <ele>87</ele>
        <time>2012-05-12T14:11:28.457Z</time>
      </trkpt>
      <trkpt lat="47.23581" lon="-0.03471">
        <ele>86</ele>
        <time>2012-05-12T14:11:32.457Z</time>
      </trkpt>
      <trkpt lat="47.23577" lon="-0.03466">
        <ele>86</ele>
        <time>2012-05-12T14:11:36.457Z</time>
      </trkpt>
      <trkpt lat="47.23573" lon="-0.03462">
        <ele>86</ele>
        <time>2012-05-12T14:11:40.457Z</time>
      </trkpt>
      <trkpt lat="47.23569" lon="-0.03458">
        <ele>86</ele>
        <time>2012-05-12T14:11:44.457Z</time>
      </trkpt>
      <trkpt lat="47.23566" lon="-0.03454">
        <ele>86</ele>
        <time>2012-05-12T14:11:48.457Z</time>
      </trkpt>
      <trkpt lat="47.23561" lon="-0.0345">
        <ele>86</ele>
        <time>2012-05-12T14:11:52.457Z</time>
      </trkpt>
      <trkpt lat="47.23557" lon="-0.03446">
        <ele>86</ele>
        <time>2012-05-12T14:11:56.457Z</time>
      </trkpt>
      <trkpt lat="47.23552" lon="-0.03442">
        <ele>86</ele>
        <time>2012-05-12T14:12:00.457Z</time>
      </trkpt>
      <trkpt lat="47.23547" lon="-0.03439">
        <ele>86</ele>
        <time>2012-05-12T14:12:04.457Z</time>
      </trkpt>
      <trkpt lat="47.23543" lon="-0.03434">
        <ele>86</ele>
        <time>2012-05-12T14:12:08.457Z</time>
      </trkpt>
      <trkpt lat="47.23538" lon="-0.0343">
        <ele>86</ele>
        <time>2012-05-12T14:12:12.457Z</time>
      </trkpt>
      <trkpt lat="47.23534" lon="-0.03425">
        <ele>86</ele>
        <time>2012-05-12T14:12:16.457Z</time>
      </trkpt>
      <trkpt lat="47.2353" lon="-0.0342">
        <ele>86</ele>
        <time>2012-05-12T14:12:20.457Z</time>
      </trkpt>
      <trkpt lat="47.23527" lon="-0.03416">
        <ele>86</ele>
        <time>2012-05-12T14:12:24.457Z</time>
      </trkpt>
      <trkpt lat="47.23523" lon="-0.0341">
        <ele>86</ele>
        <time>2012-05-12T14:12:29.457Z</time>
      </trkpt>
      <trkpt lat="47.23518" lon="-0.03405">
        <ele>86</ele>
        <time>2012-05-12T14:12:34.457Z</time>
      </trkpt>
      <trkpt lat="47.23514" lon="-0.034">
        <ele>86</ele>
        <time>2012-05-12T14:12:39.457Z</time>
      </trkpt>
      <trkpt lat="47.23511" lon="-0.03394">
        <ele>86</ele>
        <time>2012-05-12T14:12:44.457Z</time>
      </trkpt>
      <trkpt lat="47.23507" lon="-0.03388">
        <ele>86</ele>
        <time>2012-05-12T14:12:49.457Z</time>
      </trkpt>
      <trkpt lat="47.23504" lon="-0.03383">
        <ele>86</ele>
        <time>2012-05-12T14:12:54.457Z</time>
      </trkpt>
      <trkpt lat="47.235" lon="-0.03377">
        <ele>86</ele>
        <time>2012-05-12T14:12:59.457Z</time>
      </trkpt>
      <trkpt lat="47.23497" lon="-0.03372">
        <ele>86</ele>
        <time>2012-05-12T14:13:03.457Z</time>
      </trkpt>
      <trkpt lat="47.23494" lon="-0.03367">
        <ele>86</ele>
        <time>2012-05-12T14:13:07.457Z</time>
      </trkpt>
      <trkpt lat="47.23491" lon="-0.03361">
        <ele>86</ele>
        <time>2012-05-12T14:13:11.457Z</time>
      </trkpt>
      <trkpt lat="47.23488" lon="-0.03356">
        <ele>86</ele>
        <time>2012-05-12T14:13:15.457Z</time>
      </trkpt>
      <trkpt lat="47.23484" lon="-0.0335">
        <ele>86</ele>
        <time>2012-05-12T14:13:19.457Z</time>
      </trkpt>
      <trkpt lat="47.2348" lon="-0.03345">
        <ele>86</ele>
        <time>2012-05-12T14:13:23.457Z</time>
      </trkpt>
      <trkpt lat="47.23476" lon="-0.0334">
        <ele>86</ele>
        <time>2012-05-12T14:13:27.457Z</time>
      </trkpt>
      <trkpt lat="47.23472" lon="-0.03335">
        <ele>85</ele>
        <time>2012-05-12T14:13:31.457Z</time>
      </trkpt>
      <trkpt lat="47.23468" lon="-0.0333">
        <ele>86</ele>
        <time>2012-05-12T14:13:35.457Z</time>
      </trkpt>
      <trkpt lat="47.23464" lon="-0.03325">
        <ele>86</ele>
        <time>2012-05-12T14:13:39.457Z</time>
      </trkpt>
      <trkpt lat="47.23461" lon="-0.0332">
        <ele>86</ele>
        <time>2012-05-12T14:13:43.457Z</time>
      </trkpt>
      <trkpt lat="47.23458" lon="-0.03315">
        <ele>86</ele>
        <time>2012-05-12T14:13:47.457Z</time>
      </trkpt>
      <trkpt lat="47.23454" lon="-0.0331">
        <ele>86</ele>
        <time>2012-05-12T14:13:51.457Z</time>
      </trkpt>
      <trkpt lat="47.2345" lon="-0.03306">
        <ele>86</ele>
        <time>2012-05-12T14:13:55.457Z</time>
      </trkpt>
      <trkpt lat="47.23447" lon="-0.03299">
        <ele>86</ele>
        <time>2012-05-12T14:14:00.457Z</time>
      </trkpt>
      <trkpt lat="47.23443" lon="-0.03294">
        <ele>86</ele>
        <time>2012-05-12T14:14:05.457Z</time>
      </trkpt>
      <trkpt lat="47.2344" lon="-0.03289">
        <ele>86</ele>
        <time>2012-05-12T14:14:09.457Z</time>
      </trkpt>
      <trkpt lat="47.23436" lon="-0.03284">
        <ele>86</ele>
        <time>2012-05-12T14:14:13.457Z</time>
      </trkpt>
      <trkpt lat="47.23432" lon="-0.03279">
        <ele>86</ele>
        <time>2012-05-12T14:14:18.457Z</time>
      </trkpt>
      <trkpt lat="47.23428" lon="-0.03274">
        <ele>85</ele>
        <time>2012-05-12T14:14:23.457Z</time>
      </trkpt>
      <trkpt lat="47.23424" lon="-0.03268">
        <ele>85</ele>
        <time>2012-05-12T14:14:28.457Z</time>
      </trkpt>
      <trkpt lat="47.23421" lon="-0.03263">
        <ele>85</ele>
        <time>2012-05-12T14:14:33.457Z</time>
      </trkpt>
      <trkpt lat="47.23417" lon="-0.03258">
        <ele>85</ele>
        <time>2012-05-12T14:14:38.457Z</time>
      </trkpt>
      <trkpt lat="47.23413" lon="-0.03253">
        <ele>85</ele>
        <time>2012-05-12T14:14:43.457Z</time>
      </trkpt>
      <trkpt lat="47.2341" lon="-0.03248">
        <ele>84</ele>
        <time>2012-05-12T14:14:47.457Z</time>
      </trkpt>
      <trkpt lat="47.23406" lon="-0.03244">
        <ele>84</ele>
        <time>2012-05-12T14:14:51.457Z</time>
      </trkpt>
      <trkpt lat="47.23402" lon="-0.0324">
        <ele>84</ele>
        <time>2012-05-12T14:14:55.457Z</time>
      </trkpt>
      <trkpt lat="47.23398" lon="-0.03236">
        <ele>84</ele>
        <time>2012-05-12T14:14:59.457Z</time>
      </trkpt>
      <trkpt lat="47.23394" lon="-0.03231">
        <ele>84</ele>
        <time>2012-05-12T14:15:03.457Z</time>
      </trkpt>
      <trkpt lat="47.23389" lon="-0.03226">
        <ele>83</ele>
        <time>2012-05-12T14:15:07.457Z</time>
      </trkpt>
      <trkpt lat="47.23385" lon="-0.03222">
        <ele>83</ele>
        <time>2012-05-12T14:15:11.457Z</time>
      </trkpt>
      <trkpt lat="47.23381" lon="-0.03218">
        <ele>83</ele>
        <time>2012-05-12T14:15:15.457Z</time>
      </trkpt>
      <trkpt lat="47.23376" lon="-0.03214">
        <ele>83</ele>
        <time>2012-05-12T14:15:20.457Z</time>
      </trkpt>
      <trkpt lat="47.23371" lon="-0.0321">
        <ele>83</ele>
        <time>2012-05-12T14:15:25.457Z</time>
      </trkpt>
      <trkpt lat="47.23368" lon="-0.03206">
        <ele>83</ele>
        <time>2012-05-12T14:15:29.457Z</time>
      </trkpt>
      <trkpt lat="47.23364" lon="-0.03202">
        <ele>83</ele>
        <time>2012-05-12T14:15:33.457Z</time>
      </trkpt>
      <trkpt lat="47.23359" lon="-0.03198">
        <ele>83</ele>
        <time>2012-05-12T14:15:37.457Z</time>
      </trkpt>
      <trkpt lat="47.23356" lon="-0.03194">
        <ele>83</ele>
        <time>2012-05-12T14:15:41.457Z</time>
      </trkpt>
      <trkpt lat="47.23352" lon="-0.03189">
        <ele>83</ele>
        <time>2012-05-12T14:15:45.457Z</time>
      </trkpt>
      <trkpt lat="47.23347" lon="-0.03185">
        <ele>83</ele>
        <time>2012-05-12T14:15:49.457Z</time>
      </trkpt>
      <trkpt lat="47.23343" lon="-0.03181">
        <ele>82</ele>
        <time>2012-05-12T14:15:53.457Z</time>
      </trkpt>
      <trkpt lat="47.23339" lon="-0.03177">
        <ele>82</ele>
        <time>2012-05-12T14:15:57.457Z</time>
      </trkpt>
      <trkpt lat="47.23335" lon="-0.03173">
        <ele>82</ele>
        <time>2012-05-12T14:16:01.457Z</time>
      </trkpt>
      <trkpt lat="47.23332" lon="-0.03168">
        <ele>82</ele>
        <time>2012-05-12T14:16:05.457Z</time>
      </trkpt>
      <trkpt lat="47.23328" lon="-0.03163">
        <ele>82</ele>
        <time>2012-05-12T14:16:09.457Z</time>
      </trkpt>
      <trkpt lat="47.23325" lon="-0.03158">
        <ele>82</ele>
        <time>2012-05-12T14:16:13.457Z</time>
      </trkpt>
      <trkpt lat="47.23322" lon="-0.03153">
        <ele>82</ele>
        <time>2012-05-12T14:16:17.457Z</time>
      </trkpt>
      <trkpt lat="47.23318" lon="-0.03148">
        <ele>82</ele>
        <time>2012-05-12T14:16:21.457Z</time>
      </trkpt>
      <trkpt lat="47.23316" lon="-0.03142">
        <ele>82</ele>
        <time>2012-05-12T14:16:25.457Z</time>
      </trkpt>
      <trkpt lat="47.23313" lon="-0.03135">
        <ele>82</ele>
        <time>2012-05-12T14:16:30.457Z</time>
      </trkpt>
      <trkpt lat="47.2331" lon="-0.03128">
        <ele>82</ele>
        <time>2012-05-12T14:16:35.457Z</time>
      </trkpt>
      <trkpt lat="47.23309" lon="-0.03122">
        <ele>82</ele>
        <time>2012-05-12T14:16:39.457Z</time>
      </trkpt>
      <trkpt lat="47.23306" lon="-0.03115">
        <ele>82</ele>
        <time>2012-05-12T14:16:44.457Z</time>
      </trkpt>
      <trkpt lat="47.23304" lon="-0.03108">
        <ele>82</ele>
        <time>2012-05-12T14:16:49.457Z</time>
      </trkpt>
      <trkpt lat="47.23302" lon="-0.031">
        <ele>82</ele>
        <time>2012-05-12T14:16:54.457Z</time>
      </trkpt>
      <trkpt lat="47.233" lon="-0.03093">
        <ele>82</ele>
        <time>2012-05-12T14:16:59.457Z</time>
      </trkpt>
      <trkpt lat="47.23298" lon="-0.03087">
        <ele>82</ele>
        <time>2012-05-12T14:17:03.457Z</time>
      </trkpt>
      <trkpt lat="47.23296" lon="-0.03079">
        <ele>83</ele>
        <time>2012-05-12T14:17:08.457Z</time>
      </trkpt>
      <trkpt lat="47.23293" lon="-0.03072">
        <ele>83</ele>
        <time>2012-05-12T14:17:13.457Z</time>
      </trkpt>
      <trkpt lat="47.23291" lon="-0.03064">
        <ele>83</ele>
        <time>2012-05-12T14:17:18.457Z</time>
      </trkpt>
      <trkpt lat="47.23288" lon="-0.03057">
        <ele>83</ele>
        <time>2012-05-12T14:17:23.457Z</time>
      </trkpt>
      <trkpt lat="47.23286" lon="-0.0305">
        <ele>83</ele>
        <time>2012-05-12T14:17:28.457Z</time>
      </trkpt>
      <trkpt lat="47.23282" lon="-0.03044">
        <ele>83</ele>
        <time>2012-05-12T14:17:32.457Z</time>
      </trkpt>
      <trkpt lat="47.23278" lon="-0.03039">
        <ele>84</ele>
        <time>2012-05-12T14:17:36.457Z</time>
      </trkpt>
      <trkpt lat="47.23274" lon="-0.03035">
        <ele>84</ele>
        <time>2012-05-12T14:17:39.457Z</time>
      </trkpt>
      <trkpt lat="47.23269" lon="-0.03031">
        <ele>84</ele>
        <time>2012-05-12T14:17:43.457Z</time>
      </trkpt>
      <trkpt lat="47.23264" lon="-0.03027">
        <ele>84</ele>
        <time>2012-05-12T14:17:47.457Z</time>
      </trkpt>
      <trkpt lat="47.2326" lon="-0.03022">
        <ele>84</ele>
        <time>2012-05-12T14:17:51.457Z</time>
      </trkpt>
      <trkpt lat="47.23256" lon="-0.03018">
        <ele>84</ele>
        <time>2012-05-12T14:17:55.457Z</time>
      </trkpt>
      <trkpt lat="47.23253" lon="-0.03012">
        <ele>84</ele>
        <time>2012-05-12T14:18:00.457Z</time>
      </trkpt>
      <trkpt lat="47.23251" lon="-0.03006">
        <ele>85</ele>
        <time>2012-05-12T14:18:05.457Z</time>
      </trkpt>
      <trkpt lat="47.23251" lon="-0.02999">
        <ele>85</ele>
        <time>2012-05-12T14:18:10.457Z</time>
      </trkpt>
      <trkpt lat="47.23251" lon="-0.02991">
        <ele>85</ele>
        <time>2012-05-12T14:18:15.457Z</time>
      </trkpt>
      <trkpt lat="47.23252" lon="-0.02984">
        <ele>84</ele>
        <time>2012-05-12T14:18:19.457Z</time>
      </trkpt>
      <trkpt lat="47.23252" lon="-0.02976">
        <ele>84</ele>
        <time>2012-05-12T14:18:24.457Z</time>
      </trkpt>
      <trkpt lat="47.23252" lon="-0.02968">
        <ele>84</ele>
        <time>2012-05-12T14:18:29.457Z</time>
      </trkpt>
      <trkpt lat="47.23251" lon="-0.02961">
        <ele>84</ele>
        <time>2012-05-12T14:18:33.457Z</time>
      </trkpt>
      <trkpt lat="47.23251" lon="-0.02954">
        <ele>84</ele>
        <time>2012-05-12T14:18:37.457Z</time>
      </trkpt>
      <trkpt lat="47.23251" lon="-0.02947">
        <ele>83</ele>
        <time>2012-05-12T14:18:41.457Z</time>
      </trkpt>
      <trkpt lat="47.23251" lon="-0.02939">
        <ele>83</ele>
        <time>2012-05-12T14:18:46.457Z</time>
      </trkpt>
      <trkpt lat="47.2325" lon="-0.02931">
        <ele>83</ele>
        <time>2012-05-12T14:18:51.457Z</time>
      </trkpt>
      <trkpt lat="47.2325" lon="-0.02923">
        <ele>83</ele>
        <time>2012-05-12T14:18:56.457Z</time>
      </trkpt>
      <trkpt lat="47.2325" lon="-0.02914">
        <ele>83</ele>
        <time>2012-05-12T14:19:01.456Z</time>
      </trkpt>
      <trkpt lat="47.23249" lon="-0.02907">
        <ele>82</ele>
        <time>2012-05-12T14:19:06.456Z</time>
      </trkpt>
      <trkpt lat="47.23249" lon="-0.02899">
        <ele>81</ele>
        <time>2012-05-12T14:19:11.456Z</time>
      </trkpt>
      <trkpt lat="47.23249" lon="-0.02891">
        <ele>81</ele>
        <time>2012-05-12T14:19:16.456Z</time>
      </trkpt>
      <trkpt lat="47.23249" lon="-0.02883">
        <ele>80</ele>
        <time>2012-05-12T14:19:21.456Z</time>
      </trkpt>
      <trkpt lat="47.23249" lon="-0.02876">
        <ele>80</ele>
        <time>2012-05-12T14:19:26.456Z</time>
      </trkpt>
      <trkpt lat="47.23248" lon="-0.02868">
        <ele>79</ele>
        <time>2012-05-12T14:19:31.456Z</time>
      </trkpt>
      <trkpt lat="47.23248" lon="-0.0286">
        <ele>79</ele>
        <time>2012-05-12T14:19:36.456Z</time>
      </trkpt>
      <trkpt lat="47.23248" lon="-0.02853">
        <ele>78</ele>
        <time>2012-05-12T14:19:40.456Z</time>
      </trkpt>
      <trkpt lat="47.23247" lon="-0.02845">
        <ele>78</ele>
        <time>2012-05-12T14:19:45.456Z</time>
      </trkpt>
      <trkpt lat="47.23247" lon="-0.02837">
        <ele>77</ele>
        <time>2012-05-12T14:19:50.456Z</time>
      </trkpt>
      <trkpt lat="47.23246" lon="-0.0283">
        <ele>75</ele>
        <time>2012-05-12T14:19:55.456Z</time>
      </trkpt>
      <trkpt lat="47.23245" lon="-0.02822">
        <ele>75</ele>
        <time>2012-05-12T14:20:00.456Z</time>
      </trkpt>
      <trkpt lat="47.23244" lon="-0.02815">
        <ele>74</ele>
        <time>2012-05-12T14:20:05.456Z</time>
      </trkpt>
      <trkpt lat="47.23243" lon="-0.02808">
        <ele>73</ele>
        <time>2012-05-12T14:20:09.456Z</time>
      </trkpt>
      <trkpt lat="47.23242" lon="-0.02801">
        <ele>73</ele>
        <time>2012-05-12T14:20:14.456Z</time>
      </trkpt>
      <trkpt lat="47.2324" lon="-0.02793">
        <ele>72</ele>
        <time>2012-05-12T14:20:19.456Z</time>
      </trkpt>
      <trkpt lat="47.23238" lon="-0.02787">
        <ele>72</ele>
        <time>2012-05-12T14:20:23.456Z</time>
      </trkpt>
      <trkpt lat="47.23237" lon="-0.0278">
        <ele>71</ele>
        <time>2012-05-12T14:20:27.456Z</time>
      </trkpt>
      <trkpt lat="47.23236" lon="-0.02774">
        <ele>71</ele>
        <time>2012-05-12T14:20:31.456Z</time>
      </trkpt>
      <trkpt lat="47.23234" lon="-0.02767">
        <ele>71</ele>
        <time>2012-05-12T14:20:35.456Z</time>
      </trkpt>
      <trkpt lat="47.23232" lon="-0.0276">
        <ele>70</ele>
        <time>2012-05-12T14:20:39.456Z</time>
      </trkpt>
      <trkpt lat="47.23229" lon="-0.02754">
        <ele>70</ele>
        <time>2012-05-12T14:20:43.456Z</time>
      </trkpt>
      <trkpt lat="47.23226" lon="-0.02748">
        <ele>66</ele>
        <time>2012-05-12T14:20:47.456Z</time>
      </trkpt>
      <trkpt lat="47.23222" lon="-0.02742">
        <ele>66</ele>
        <time>2012-05-12T14:20:51.456Z</time>
      </trkpt>
      <trkpt lat="47.23219" lon="-0.02737">
        <ele>65</ele>
        <time>2012-05-12T14:20:54.456Z</time>
      </trkpt>
      <trkpt lat="47.23216" lon="-0.02731">
        <ele>65</ele>
        <time>2012-05-12T14:20:57.456Z</time>
      </trkpt>
      <trkpt lat="47.23214" lon="-0.02724">
        <ele>65</ele>
        <time>2012-05-12T14:21:01.456Z</time>
      </trkpt>
      <trkpt lat="47.23211" lon="-0.02716">
        <ele>65</ele>
        <time>2012-05-12T14:21:05.456Z</time>
      </trkpt>
      <trkpt lat="47.23209" lon="-0.0271">
        <ele>64</ele>
        <time>2012-05-12T14:21:09.456Z</time>
      </trkpt>
      <trkpt lat="47.23208" lon="-0.02703">
        <ele>64</ele>
        <time>2012-05-12T14:21:13.456Z</time>
      </trkpt>
      <trkpt lat="47.23206" lon="-0.02696">
        <ele>64</ele>
        <time>2012-05-12T14:21:18.456Z</time>
      </trkpt>
      <trkpt lat="47.23206" lon="-0.02689">
        <ele>64</ele>
        <time>2012-05-12T14:21:24.456Z</time>
      </trkpt>
      <trkpt lat="47.23209" lon="-0.02683">
        <ele>63</ele>
        <time>2012-05-12T14:21:29.456Z</time>
      </trkpt>
      <trkpt lat="47.23213" lon="-0.0268">
        <ele>63</ele>
        <time>2012-05-12T14:21:34.456Z</time>
      </trkpt>
      <trkpt lat="47.23218" lon="-0.02677">
        <ele>63</ele>
        <time>2012-05-12T14:21:39.456Z</time>
      </trkpt>
      <trkpt lat="47.23222" lon="-0.02675">
        <ele>63</ele>
        <time>2012-05-12T14:21:44.456Z</time>
      </trkpt>
      <trkpt lat="47.23226" lon="-0.02672">
        <ele>63</ele>
        <time>2012-05-12T14:21:49.456Z</time>
      </trkpt>
      <trkpt lat="47.23231" lon="-0.02669">
        <ele>63</ele>
        <time>2012-05-12T14:21:54.456Z</time>
      </trkpt>
      <trkpt lat="47.23236" lon="-0.02667">
        <ele>63</ele>
        <time>2012-05-12T14:21:59.456Z</time>
      </trkpt>
      <trkpt lat="47.23241" lon="-0.02663">
        <ele>61</ele>
        <time>2012-05-12T14:22:04.456Z</time>
      </trkpt>
      <trkpt lat="47.23245" lon="-0.0266">
        <ele>61</ele>
        <time>2012-05-12T14:22:08.456Z</time>
      </trkpt>
      <trkpt lat="47.23249" lon="-0.02657">
        <ele>61</ele>
        <time>2012-05-12T14:22:12.456Z</time>
      </trkpt>
      <trkpt lat="47.23253" lon="-0.02654">
        <ele>62</ele>
        <time>2012-05-12T14:22:16.456Z</time>
      </trkpt>
      <trkpt lat="47.23258" lon="-0.02651">
        <ele>62</ele>
        <time>2012-05-12T14:22:21.456Z</time>
      </trkpt>
      <trkpt lat="47.23262" lon="-0.02648">
        <ele>62</ele>
        <time>2012-05-12T14:22:25.456Z</time>
      </trkpt>
      <trkpt lat="47.23267" lon="-0.02644">
        <ele>62</ele>
        <time>2012-05-12T14:22:29.456Z</time>
      </trkpt>
      <trkpt lat="47.23271" lon="-0.02641">
        <ele>62</ele>
        <time>2012-05-12T14:22:33.456Z</time>
      </trkpt>
      <trkpt lat="47.23275" lon="-0.02638">
        <ele>62</ele>
        <time>2012-05-12T14:22:37.456Z</time>
      </trkpt>
      <trkpt lat="47.2328" lon="-0.02636">
        <ele>62</ele>
        <time>2012-05-12T14:22:41.456Z</time>
      </trkpt>
      <trkpt lat="47.23285" lon="-0.02634">
        <ele>62</ele>
        <time>2012-05-12T14:22:46.456Z</time>
      </trkpt>
      <trkpt lat="47.2329" lon="-0.02632">
        <ele>62</ele>
        <time>2012-05-12T14:22:50.456Z</time>
      </trkpt>
      <trkpt lat="47.23294" lon="-0.0263">
        <ele>62</ele>
        <time>2012-05-12T14:22:54.456Z</time>
      </trkpt>
      <trkpt lat="47.23299" lon="-0.02629">
        <ele>62</ele>
        <time>2012-05-12T14:22:58.456Z</time>
      </trkpt>
      <trkpt lat="47.23304" lon="-0.02627">
        <ele>62</ele>
        <time>2012-05-12T14:23:03.456Z</time>
      </trkpt>
      <trkpt lat="47.2331" lon="-0.02625">
        <ele>62</ele>
        <time>2012-05-12T14:23:08.456Z</time>
      </trkpt>
      <trkpt lat="47.23314" lon="-0.02623">
        <ele>62</ele>
        <time>2012-05-12T14:23:12.456Z</time>
      </trkpt>
      <trkpt lat="47.23318" lon="-0.02621">
        <ele>62</ele>
        <time>2012-05-12T14:23:16.456Z</time>
      </trkpt>
      <trkpt lat="47.23323" lon="-0.02617">
        <ele>62</ele>
        <time>2012-05-12T14:23:21.456Z</time>
      </trkpt>
      <trkpt lat="47.23327" lon="-0.02611">
        <ele>62</ele>
        <time>2012-05-12T14:23:25.456Z</time>
      </trkpt>
      <trkpt lat="47.2333" lon="-0.02604">
        <ele>61</ele>
        <time>2012-05-12T14:23:28.456Z</time>
      </trkpt>
      <trkpt lat="47.23332" lon="-0.02598">
        <ele>61</ele>
        <time>2012-05-12T14:23:31.456Z</time>
      </trkpt>
      <trkpt lat="47.23333" lon="-0.02591">
        <ele>61</ele>
        <time>2012-05-12T14:23:34.456Z</time>
      </trkpt>
      <trkpt lat="47.23332" lon="-0.02583">
        <ele>61</ele>
        <time>2012-05-12T14:23:38.456Z</time>
      </trkpt>
      <trkpt lat="47.23331" lon="-0.02576">
        <ele>60</ele>
        <time>2012-05-12T14:23:42.456Z</time>
      </trkpt>
      <trkpt lat="47.2333" lon="-0.02568">
        <ele>60</ele>
        <time>2012-05-12T14:23:46.456Z</time>
      </trkpt>
      <trkpt lat="47.23328" lon="-0.02562">
        <ele>60</ele>
        <time>2012-05-12T14:23:50.456Z</time>
      </trkpt>
      <trkpt lat="47.23326" lon="-0.02556">
        <ele>59</ele>
        <time>2012-05-12T14:23:54.456Z</time>
      </trkpt>
      <trkpt lat="47.23324" lon="-0.02549">
        <ele>59</ele>
        <time>2012-05-12T14:23:58.456Z</time>
      </trkpt>
      <trkpt lat="47.23321" lon="-0.02543">
        <ele>59</ele>
        <time>2012-05-12T14:24:02.456Z</time>
      </trkpt>
      <trkpt lat="47.23319" lon="-0.02537">
        <ele>59</ele>
        <time>2012-05-12T14:24:06.456Z</time>
      </trkpt>
      <trkpt lat="47.23317" lon="-0.02531">
        <ele>59</ele>
        <time>2012-05-12T14:24:10.456Z</time>
      </trkpt>
      <trkpt lat="47.23315" lon="-0.02524">
        <ele>58</ele>
        <time>2012-05-12T14:24:14.456Z</time>
      </trkpt>
      <trkpt lat="47.23313" lon="-0.02516">
        <ele>58</ele>
        <time>2012-05-12T14:24:19.456Z</time>
      </trkpt>
      <trkpt lat="47.23311" lon="-0.0251">
        <ele>58</ele>
        <time>2012-05-12T14:24:23.456Z</time>
      </trkpt>
      <trkpt lat="47.23309" lon="-0.02504">
        <ele>58</ele>
        <time>2012-05-12T14:24:27.456Z</time>
      </trkpt>
      <trkpt lat="47.23307" lon="-0.02498">
        <ele>57</ele>
        <time>2012-05-12T14:24:31.456Z</time>
      </trkpt>
      <trkpt lat="47.23305" lon="-0.02491">
        <ele>57</ele>
        <time>2012-05-12T14:24:35.456Z</time>
      </trkpt>
      <trkpt lat="47.23303" lon="-0.02483">
        <ele>57</ele>
        <time>2012-05-12T14:24:39.456Z</time>
      </trkpt>
      <trkpt lat="47.23301" lon="-0.02476">
        <ele>57</ele>
        <time>2012-05-12T14:24:43.456Z</time>
      </trkpt>
      <trkpt lat="47.233" lon="-0.0247">
        <ele>57</ele>
        <time>2012-05-12T14:24:47.456Z</time>
      </trkpt>
      <trkpt lat="47.23298" lon="-0.02462">
        <ele>57</ele>
        <time>2012-05-12T14:24:52.456Z</time>
      </trkpt>
      <trkpt lat="47.23296" lon="-0.02455">
        <ele>57</ele>
        <time>2012-05-12T14:24:57.456Z</time>
      </trkpt>
      <trkpt lat="47.23293" lon="-0.02447">
        <ele>57</ele>
        <time>2012-05-12T14:25:02.456Z</time>
      </trkpt>
      <trkpt lat="47.23291" lon="-0.02441">
        <ele>57</ele>
        <time>2012-05-12T14:25:07.456Z</time>
      </trkpt>
      <trkpt lat="47.23286" lon="-0.02439">
        <ele>57</ele>
        <time>2012-05-12T14:25:17.456Z</time>
      </trkpt>
      <trkpt lat="47.2328" lon="-0.02437">
        <ele>56</ele>
        <time>2012-05-12T14:25:21.456Z</time>
      </trkpt>
      <trkpt lat="47.23275" lon="-0.02436">
        <ele>56</ele>
        <time>2012-05-12T14:25:25.456Z</time>
      </trkpt>
      <trkpt lat="47.2327" lon="-0.02434">
        <ele>56</ele>
        <time>2012-05-12T14:25:29.456Z</time>
      </trkpt>
      <trkpt lat="47.23265" lon="-0.02431">
        <ele>56</ele>
        <time>2012-05-12T14:25:33.456Z</time>
      </trkpt>
      <trkpt lat="47.23261" lon="-0.02429">
        <ele>56</ele>
        <time>2012-05-12T14:25:37.456Z</time>
      </trkpt>
      <trkpt lat="47.23256" lon="-0.02427">
        <ele>56</ele>
        <time>2012-05-12T14:25:41.456Z</time>
      </trkpt>
      <trkpt lat="47.23251" lon="-0.02424">
        <ele>55</ele>
        <time>2012-05-12T14:25:46.456Z</time>
      </trkpt>
      <trkpt lat="47.23246" lon="-0.02422">
        <ele>55</ele>
        <time>2012-05-12T14:25:51.456Z</time>
      </trkpt>
      <trkpt lat="47.23241" lon="-0.0242">
        <ele>55</ele>
        <time>2012-05-12T14:25:56.456Z</time>
      </trkpt>
      <trkpt lat="47.23236" lon="-0.02418">
        <ele>55</ele>
        <time>2012-05-12T14:26:01.456Z</time>
      </trkpt>
      <trkpt lat="47.23231" lon="-0.02415">
        <ele>54</ele>
        <time>2012-05-12T14:26:07.456Z</time>
      </trkpt>
      <trkpt lat="47.23226" lon="-0.02414">
        <ele>54</ele>
        <time>2012-05-12T14:26:12.456Z</time>
      </trkpt>
      <trkpt lat="47.23221" lon="-0.02414">
        <ele>54</ele>
        <time>2012-05-12T14:26:17.456Z</time>
      </trkpt>
      <trkpt lat="47.23217" lon="-0.02413">
        <ele>54</ele>
        <time>2012-05-12T14:26:21.456Z</time>
      </trkpt>
      <trkpt lat="47.23212" lon="-0.02413">
        <ele>54</ele>
        <time>2012-05-12T14:26:25.456Z</time>
      </trkpt>
      <trkpt lat="47.23208" lon="-0.0241">
        <ele>54</ele>
        <time>2012-05-12T14:26:30.456Z</time>
      </trkpt>
      <trkpt lat="47.23206" lon="-0.02404">
        <ele>54</ele>
        <time>2012-05-12T14:26:36.456Z</time>
      </trkpt>
      <trkpt lat="47.23207" lon="-0.02396">
        <ele>54</ele>
        <time>2012-05-12T14:26:42.456Z</time>
      </trkpt>
      <trkpt lat="47.23207" lon="-0.02389">
        <ele>54</ele>
        <time>2012-05-12T14:26:47.456Z</time>
      </trkpt>
      <trkpt lat="47.23206" lon="-0.02382">
        <ele>54</ele>
        <time>2012-05-12T14:26:52.456Z</time>
      </trkpt>
      <trkpt lat="47.23206" lon="-0.02375">
        <ele>53</ele>
        <time>2012-05-12T14:26:56.456Z</time>
      </trkpt>
      <trkpt lat="47.23205" lon="-0.02368">
        <ele>53</ele>
        <time>2012-05-12T14:27:00.456Z</time>
      </trkpt>
      <trkpt lat="47.23204" lon="-0.02362">
        <ele>53</ele>
        <time>2012-05-12T14:27:04.456Z</time>
      </trkpt>
      <trkpt lat="47.23202" lon="-0.02354">
        <ele>53</ele>
        <time>2012-05-12T14:27:08.456Z</time>
      </trkpt>
      <trkpt lat="47.232" lon="-0.02348">
        <ele>53</ele>
        <time>2012-05-12T14:27:12.456Z</time>
      </trkpt>
      <trkpt lat="47.23199" lon="-0.02341">
        <ele>53</ele>
        <time>2012-05-12T14:27:16.456Z</time>
      </trkpt>
      <trkpt lat="47.23197" lon="-0.02334">
        <ele>53</ele>
        <time>2012-05-12T14:27:20.456Z</time>
      </trkpt>
      <trkpt lat="47.23196" lon="-0.02327">
        <ele>51</ele>
        <time>2012-05-12T14:27:24.456Z</time>
      </trkpt>
      <trkpt lat="47.23194" lon="-0.0232">
        <ele>51</ele>
        <time>2012-05-12T14:27:28.456Z</time>
      </trkpt>
      <trkpt lat="47.23192" lon="-0.02313">
        <ele>51</ele>
        <time>2012-05-12T14:27:32.456Z</time>
      </trkpt>
      <trkpt lat="47.23191" lon="-0.02307">
        <ele>51</ele>
        <time>2012-05-12T14:27:36.456Z</time>
      </trkpt>
      <trkpt lat="47.2319" lon="-0.023">
        <ele>51</ele>
        <time>2012-05-12T14:27:40.456Z</time>
      </trkpt>
      <trkpt lat="47.23188" lon="-0.02292">
        <ele>51</ele>
        <time>2012-05-12T14:27:45.456Z</time>
      </trkpt>
      <trkpt lat="47.23186" lon="-0.02284">
        <ele>50</ele>
        <time>2012-05-12T14:27:50.456Z</time>
      </trkpt>
      <trkpt lat="47.23184" lon="-0.02277">
        <ele>50</ele>
        <time>2012-05-12T14:27:55.456Z</time>
      </trkpt>
      <trkpt lat="47.23183" lon="-0.0227">
        <ele>50</ele>
        <time>2012-05-12T14:27:59.456Z</time>
      </trkpt>
      <trkpt lat="47.23183" lon="-0.02263">
        <ele>50</ele>
        <time>2012-05-12T14:28:03.456Z</time>
      </trkpt>
      <trkpt lat="47.23182" lon="-0.02257">
        <ele>50</ele>
        <time>2012-05-12T14:28:07.456Z</time>
      </trkpt>
      <trkpt lat="47.23181" lon="-0.0225">
        <ele>49</ele>
        <time>2012-05-12T14:28:11.456Z</time>
      </trkpt>
      <trkpt lat="47.2318" lon="-0.02244">
        <ele>49</ele>
        <time>2012-05-12T14:28:15.456Z</time>
      </trkpt>
      <trkpt lat="47.23178" lon="-0.02236">
        <ele>49</ele>
        <time>2012-05-12T14:28:20.456Z</time>
      </trkpt>
      <trkpt lat="47.23177" lon="-0.02229">
        <ele>49</ele>
        <time>2012-05-12T14:28:24.456Z</time>
      </trkpt>
      <trkpt lat="47.23176" lon="-0.02223">
        <ele>49</ele>
        <time>2012-05-12T14:28:28.456Z</time>
      </trkpt>
      <trkpt lat="47.23174" lon="-0.02216">
        <ele>49</ele>
        <time>2012-05-12T14:28:32.456Z</time>
      </trkpt>
      <trkpt lat="47.23173" lon="-0.0221">
        <ele>49</ele>
        <time>2012-05-12T14:28:36.456Z</time>
      </trkpt>
      <trkpt lat="47.23171" lon="-0.02203">
        <ele>48</ele>
        <time>2012-05-12T14:28:41.456Z</time>
      </trkpt>
      <trkpt lat="47.23168" lon="-0.02197">
        <ele>48</ele>
        <time>2012-05-12T14:28:46.456Z</time>
      </trkpt>
      <trkpt lat="47.23167" lon="-0.02189">
        <ele>48</ele>
        <time>2012-05-12T14:28:51.456Z</time>
      </trkpt>
      <trkpt lat="47.23164" lon="-0.02182">
        <ele>49</ele>
        <time>2012-05-12T14:28:56.456Z</time>
      </trkpt>
      <trkpt lat="47.23163" lon="-0.02175">
        <ele>48</ele>
        <time>2012-05-12T14:29:00.456Z</time>
      </trkpt>
      <trkpt lat="47.23161" lon="-0.02168">
        <ele>48</ele>
        <time>2012-05-12T14:29:04.456Z</time>
      </trkpt>
      <trkpt lat="47.2316" lon="-0.02161">
        <ele>48</ele>
        <time>2012-05-12T14:29:08.456Z</time>
      </trkpt>
      <trkpt lat="47.23158" lon="-0.02155">
        <ele>48</ele>
        <time>2012-05-12T14:29:12.456Z</time>
      </trkpt>
      <trkpt lat="47.23157" lon="-0.02148">
        <ele>48</ele>
        <time>2012-05-12T14:29:16.456Z</time>
      </trkpt>
      <trkpt lat="47.23156" lon="-0.02142">
        <ele>48</ele>
        <time>2012-05-12T14:29:20.456Z</time>
      </trkpt>
      <trkpt lat="47.23154" lon="-0.02135">
        <ele>48</ele>
        <time>2012-05-12T14:29:24.456Z</time>
      </trkpt>
      <trkpt lat="47.23153" lon="-0.02129">
        <ele>48</ele>
        <time>2012-05-12T14:29:28.456Z</time>
      </trkpt>
      <trkpt lat="47.23152" lon="-0.02122">
        <ele>48</ele>
        <time>2012-05-12T14:29:32.456Z</time>
      </trkpt>
      <trkpt lat="47.23151" lon="-0.02114">
        <ele>48</ele>
        <time>2012-05-12T14:29:37.456Z</time>
      </trkpt>
      <trkpt lat="47.2315" lon="-0.02107">
        <ele>48</ele>
        <time>2012-05-12T14:29:41.456Z</time>
      </trkpt>
      <trkpt lat="47.23148" lon="-0.02099">
        <ele>48</ele>
        <time>2012-05-12T14:29:45.456Z</time>
      </trkpt>
      <trkpt lat="47.23147" lon="-0.02092">
        <ele>48</ele>
        <time>2012-05-12T14:29:49.456Z</time>
      </trkpt>
      <trkpt lat="47.23146" lon="-0.02086">
        <ele>48</ele>
        <time>2012-05-12T14:29:53.456Z</time>
      </trkpt>
      <trkpt lat="47.23144" lon="-0.0208">
        <ele>48</ele>
        <time>2012-05-12T14:29:57.456Z</time>
      </trkpt>
      <trkpt lat="47.23142" lon="-0.02072">
        <ele>48</ele>
        <time>2012-05-12T14:30:02.456Z</time>
      </trkpt>
      <trkpt lat="47.23141" lon="-0.02064">
        <ele>48</ele>
        <time>2012-05-12T14:30:07.456Z</time>
      </trkpt>
      <trkpt lat="47.23139" lon="-0.02058">
        <ele>48</ele>
        <time>2012-05-12T14:30:11.456Z</time>
      </trkpt>
      <trkpt lat="47.23138" lon="-0.02051">
        <ele>48</ele>
        <time>2012-05-12T14:30:15.456Z</time>
      </trkpt>
      <trkpt lat="47.23136" lon="-0.02045">
        <ele>48</ele>
        <time>2012-05-12T14:30:19.456Z</time>
      </trkpt>
      <trkpt lat="47.23134" lon="-0.02039">
        <ele>47</ele>
        <time>2012-05-12T14:30:23.456Z</time>
      </trkpt>
      <trkpt lat="47.23133" lon="-0.02032">
        <ele>47</ele>
        <time>2012-05-12T14:30:27.456Z</time>
      </trkpt>
      <trkpt lat="47.23132" lon="-0.02024">
        <ele>47</ele>
        <time>2012-05-12T14:30:31.456Z</time>
      </trkpt>
      <trkpt lat="47.23131" lon="-0.02017">
        <ele>47</ele>
        <time>2012-05-12T14:30:35.456Z</time>
      </trkpt>
      <trkpt lat="47.23129" lon="-0.0201">
        <ele>47</ele>
        <time>2012-05-12T14:30:39.456Z</time>
      </trkpt>
      <trkpt lat="47.23128" lon="-0.02003">
        <ele>47</ele>
        <time>2012-05-12T14:30:43.456Z</time>
      </trkpt>
      <trkpt lat="47.23126" lon="-0.01996">
        <ele>46</ele>
        <time>2012-05-12T14:30:47.456Z</time>
      </trkpt>
      <trkpt lat="47.23125" lon="-0.01989">
        <ele>46</ele>
        <time>2012-05-12T14:30:51.456Z</time>
      </trkpt>
      <trkpt lat="47.23123" lon="-0.01982">
        <ele>46</ele>
        <time>2012-05-12T14:30:57.456Z</time>
      </trkpt>
      <trkpt lat="47.23128" lon="-0.01981">
        <ele>46</ele>
        <time>2012-05-12T14:32:26.456Z</time>
      </trkpt>
      <trkpt lat="47.23134" lon="-0.0198">
        <ele>46</ele>
        <time>2012-05-12T14:32:31.456Z</time>
      </trkpt>
      <trkpt lat="47.23139" lon="-0.01979">
        <ele>46</ele>
        <time>2012-05-12T14:32:35.456Z</time>
      </trkpt>
      <trkpt lat="47.23143" lon="-0.01978">
        <ele>46</ele>
        <time>2012-05-12T14:32:39.456Z</time>
      </trkpt>
      <trkpt lat="47.23148" lon="-0.01976">
        <ele>46</ele>
        <time>2012-05-12T14:32:44.456Z</time>
      </trkpt>
      <trkpt lat="47.23153" lon="-0.01974">
        <ele>46</ele>
        <time>2012-05-12T14:32:49.456Z</time>
      </trkpt>
      <trkpt lat="47.23158" lon="-0.01972">
        <ele>46</ele>
        <time>2012-05-12T14:32:54.456Z</time>
      </trkpt>
      <trkpt lat="47.23163" lon="-0.0197">
        <ele>46</ele>
        <time>2012-05-12T14:32:59.456Z</time>
      </trkpt>
      <trkpt lat="47.23168" lon="-0.01969">
        <ele>46</ele>
        <time>2012-05-12T14:33:03.456Z</time>
      </trkpt>
      <trkpt lat="47.23172" lon="-0.01967">
        <ele>46</ele>
        <time>2012-05-12T14:33:07.456Z</time>
      </trkpt>
      <trkpt lat="47.23177" lon="-0.01966">
        <ele>46</ele>
        <time>2012-05-12T14:33:11.456Z</time>
      </trkpt>
      <trkpt lat="47.23182" lon="-0.01964">
        <ele>45</ele>
        <time>2012-05-12T14:33:16.456Z</time>
      </trkpt>
      <trkpt lat="47.23188" lon="-0.01963">
        <ele>45</ele>
        <time>2012-05-12T14:33:21.456Z</time>
      </trkpt>
      <trkpt lat="47.23193" lon="-0.01961">
        <ele>45</ele>
        <time>2012-05-12T14:33:26.456Z</time>
      </trkpt>
      <trkpt lat="47.23198" lon="-0.0196">
        <ele>45</ele>
        <time>2012-05-12T14:33:31.456Z</time>
      </trkpt>
      <trkpt lat="47.23202" lon="-0.01958">
        <ele>45</ele>
        <time>2012-05-12T14:33:36.456Z</time>
      </trkpt>
      <trkpt lat="47.23207" lon="-0.01957">
        <ele>45</ele>
        <time>2012-05-12T14:33:41.456Z</time>
      </trkpt>
      <trkpt lat="47.23212" lon="-0.01956">
        <ele>45</ele>
        <time>2012-05-12T14:33:46.456Z</time>
      </trkpt>
      <trkpt lat="47.23217" lon="-0.01954">
        <ele>45</ele>
        <time>2012-05-12T14:33:51.456Z</time>
      </trkpt>
      <trkpt lat="47.23222" lon="-0.01952">
        <ele>45</ele>
        <time>2012-05-12T14:33:56.456Z</time>
      </trkpt>
      <trkpt lat="47.23228" lon="-0.0195">
        <ele>45</ele>
        <time>2012-05-12T14:34:01.456Z</time>
      </trkpt>
      <trkpt lat="47.23233" lon="-0.01948">
        <ele>45</ele>
        <time>2012-05-12T14:34:06.456Z</time>
      </trkpt>
      <trkpt lat="47.23237" lon="-0.01946">
        <ele>45</ele>
        <time>2012-05-12T14:34:10.456Z</time>
      </trkpt>
      <trkpt lat="47.23242" lon="-0.01945">
        <ele>45</ele>
        <time>2012-05-12T14:34:14.456Z</time>
      </trkpt>
      <trkpt lat="47.23247" lon="-0.01942">
        <ele>45</ele>
        <time>2012-05-12T14:34:18.456Z</time>
      </trkpt>
      <trkpt lat="47.23251" lon="-0.01938">
        <ele>45</ele>
        <time>2012-05-12T14:34:22.456Z</time>
      </trkpt>
      <trkpt lat="47.23255" lon="-0.01934">
        <ele>45</ele>
        <time>2012-05-12T14:34:26.456Z</time>
      </trkpt>
      <trkpt lat="47.23259" lon="-0.0193">
        <ele>44</ele>
        <time>2012-05-12T14:34:30.456Z</time>
      </trkpt>
      <trkpt lat="47.23264" lon="-0.01927">
        <ele>44</ele>
        <time>2012-05-12T14:34:34.456Z</time>
      </trkpt>
      <trkpt lat="47.23269" lon="-0.01925">
        <ele>45</ele>
        <time>2012-05-12T14:34:38.456Z</time>
      </trkpt>
      <trkpt lat="47.23275" lon="-0.01922">
        <ele>45</ele>
        <time>2012-05-12T14:34:42.456Z</time>
      </trkpt>
      <trkpt lat="47.2328" lon="-0.01921">
        <ele>45</ele>
        <time>2012-05-12T14:34:45.456Z</time>
      </trkpt>
      <trkpt lat="47.23284" lon="-0.01919">
        <ele>45</ele>
        <time>2012-05-12T14:34:48.456Z</time>
      </trkpt>
      <trkpt lat="47.23289" lon="-0.01917">
        <ele>45</ele>
        <time>2012-05-12T14:34:51.456Z</time>
      </trkpt>
      <trkpt lat="47.23294" lon="-0.01914">
        <ele>43</ele>
        <time>2012-05-12T14:34:55.456Z</time>
      </trkpt>
      <trkpt lat="47.23299" lon="-0.01909">
        <ele>43</ele>
        <time>2012-05-12T14:34:59.456Z</time>
      </trkpt>
      <trkpt lat="47.23303" lon="-0.01905">
        <ele>43</ele>
        <time>2012-05-12T14:35:03.456Z</time>
      </trkpt>
      <trkpt lat="47.23308" lon="-0.01901">
        <ele>43</ele>
        <time>2012-05-12T14:35:07.456Z</time>
      </trkpt>
      <trkpt lat="47.23312" lon="-0.01898">
        <ele>43</ele>
        <time>2012-05-12T14:35:11.456Z</time>
      </trkpt>
      <trkpt lat="47.23316" lon="-0.01894">
        <ele>43</ele>
        <time>2012-05-12T14:35:15.456Z</time>
      </trkpt>
      <trkpt lat="47.23321" lon="-0.01891">
        <ele>43</ele>
        <time>2012-05-12T14:35:19.456Z</time>
      </trkpt>
      <trkpt lat="47.23325" lon="-0.01888">
        <ele>43</ele>
        <time>2012-05-12T14:35:23.456Z</time>
      </trkpt>
      <trkpt lat="47.23329" lon="-0.01886">
        <ele>43</ele>
        <time>2012-05-12T14:35:27.456Z</time>
      </trkpt>
      <trkpt lat="47.23334" lon="-0.01884">
        <ele>44</ele>
        <time>2012-05-12T14:35:31.456Z</time>
      </trkpt>
      <trkpt lat="47.23339" lon="-0.01881">
        <ele>44</ele>
        <time>2012-05-12T14:35:36.456Z</time>
      </trkpt>
      <trkpt lat="47.23344" lon="-0.01878">
        <ele>44</ele>
        <time>2012-05-12T14:35:41.456Z</time>
      </trkpt>
      <trkpt lat="47.23348" lon="-0.01876">
        <ele>44</ele>
        <time>2012-05-12T14:35:45.456Z</time>
      </trkpt>
      <trkpt lat="47.23353" lon="-0.01873">
        <ele>44</ele>
        <time>2012-05-12T14:35:49.456Z</time>
      </trkpt>
      <trkpt lat="47.23357" lon="-0.0187">
        <ele>44</ele>
        <time>2012-05-12T14:35:53.456Z</time>
      </trkpt>
      <trkpt lat="47.23362" lon="-0.01867">
        <ele>44</ele>
        <time>2012-05-12T14:35:57.456Z</time>
      </trkpt>
      <trkpt lat="47.23367" lon="-0.01864">
        <ele>44</ele>
        <time>2012-05-12T14:36:01.456Z</time>
      </trkpt>
      <trkpt lat="47.23372" lon="-0.01861">
        <ele>44</ele>
        <time>2012-05-12T14:36:05.456Z</time>
      </trkpt>
      <trkpt lat="47.23377" lon="-0.01858">
        <ele>44</ele>
        <time>2012-05-12T14:36:09.456Z</time>
      </trkpt>
      <trkpt lat="47.23382" lon="-0.01855">
        <ele>44</ele>
        <time>2012-05-12T14:36:13.456Z</time>
      </trkpt>
      <trkpt lat="47.23386" lon="-0.01852">
        <ele>44</ele>
        <time>2012-05-12T14:36:17.456Z</time>
      </trkpt>
      <trkpt lat="47.2339" lon="-0.01848">
        <ele>44</ele>
        <time>2012-05-12T14:36:21.456Z</time>
      </trkpt>
      <trkpt lat="47.23394" lon="-0.01843">
        <ele>44</ele>
        <time>2012-05-12T14:36:25.456Z</time>
      </trkpt>
      <trkpt lat="47.23398" lon="-0.01836">
        <ele>44</ele>
        <time>2012-05-12T14:36:29.456Z</time>
      </trkpt>
      <trkpt lat="47.23402" lon="-0.01832">
        <ele>44</ele>
        <time>2012-05-12T14:36:33.456Z</time>
      </trkpt>
      <trkpt lat="47.23407" lon="-0.01829">
        <ele>44</ele>
        <time>2012-05-12T14:36:38.456Z</time>
      </trkpt>
      <trkpt lat="47.23412" lon="-0.01827">
        <ele>44</ele>
        <time>2012-05-12T14:36:43.456Z</time>
      </trkpt>
      <trkpt lat="47.23416" lon="-0.01825">
        <ele>44</ele>
        <time>2012-05-12T14:36:48.456Z</time>
      </trkpt>
      <trkpt lat="47.23421" lon="-0.01823">
        <ele>45</ele>
        <time>2012-05-12T14:36:53.456Z</time>
      </trkpt>
      <trkpt lat="47.23426" lon="-0.0182">
        <ele>45</ele>
        <time>2012-05-12T14:36:58.456Z</time>
      </trkpt>
      <trkpt lat="47.2343" lon="-0.01817">
        <ele>45</ele>
        <time>2012-05-12T14:37:02.456Z</time>
      </trkpt>
      <trkpt lat="47.23434" lon="-0.01814">
        <ele>45</ele>
        <time>2012-05-12T14:37:06.456Z</time>
      </trkpt>
      <trkpt lat="47.23438" lon="-0.01811">
        <ele>45</ele>
        <time>2012-05-12T14:37:10.456Z</time>
      </trkpt>
      <trkpt lat="47.23443" lon="-0.01808">
        <ele>45</ele>
        <time>2012-05-12T14:37:15.456Z</time>
      </trkpt>
      <trkpt lat="47.23448" lon="-0.01805">
        <ele>45</ele>
        <time>2012-05-12T14:37:20.456Z</time>
      </trkpt>
      <trkpt lat="47.23452" lon="-0.01802">
        <ele>45</ele>
        <time>2012-05-12T14:37:24.456Z</time>
      </trkpt>
      <trkpt lat="47.23456" lon="-0.01798">
        <ele>45</ele>
        <time>2012-05-12T14:37:28.456Z</time>
      </trkpt>
      <trkpt lat="47.23461" lon="-0.01795">
        <ele>46</ele>
        <time>2012-05-12T14:37:32.456Z</time>
      </trkpt>
      <trkpt lat="47.23466" lon="-0.01796">
        <ele>46</ele>
        <time>2012-05-12T14:37:37.456Z</time>
      </trkpt>
      <trkpt lat="47.2347" lon="-0.018">
        <ele>46</ele>
        <time>2012-05-12T14:37:42.456Z</time>
      </trkpt>
      <trkpt lat="47.23472" lon="-0.01807">
        <ele>46</ele>
        <time>2012-05-12T14:37:47.456Z</time>
      </trkpt>
      <trkpt lat="47.23473" lon="-0.01813">
        <ele>46</ele>
        <time>2012-05-12T14:37:51.456Z</time>
      </trkpt>
      <trkpt lat="47.23475" lon="-0.01821">
        <ele>46</ele>
        <time>2012-05-12T14:37:56.456Z</time>
      </trkpt>
      <trkpt lat="47.23478" lon="-0.01826">
        <ele>46</ele>
        <time>2012-05-12T14:38:00.456Z</time>
      </trkpt>
      <trkpt lat="47.23482" lon="-0.0183">
        <ele>47</ele>
        <time>2012-05-12T14:38:04.456Z</time>
      </trkpt>
      <trkpt lat="47.23486" lon="-0.01832">
        <ele>47</ele>
        <time>2012-05-12T14:38:08.456Z</time>
      </trkpt>
      <trkpt lat="47.23491" lon="-0.01833">
        <ele>47</ele>
        <time>2012-05-12T14:38:12.456Z</time>
      </trkpt>
      <trkpt lat="47.23496" lon="-0.01832">
        <ele>48</ele>
        <time>2012-05-12T14:38:16.456Z</time>
      </trkpt>
      <trkpt lat="47.235" lon="-0.0183">
        <ele>48</ele>
        <time>2012-05-12T14:38:20.456Z</time>
      </trkpt>
      <trkpt lat="47.23505" lon="-0.01827">
        <ele>48</ele>
        <time>2012-05-12T14:38:24.456Z</time>
      </trkpt>
      <trkpt lat="47.23509" lon="-0.01823">
        <ele>48</ele>
        <time>2012-05-12T14:38:28.456Z</time>
      </trkpt>
      <trkpt lat="47.23513" lon="-0.0182">
        <ele>48</ele>
        <time>2012-05-12T14:38:32.456Z</time>
      </trkpt>
      <trkpt lat="47.23517" lon="-0.01815">
        <ele>48</ele>
        <time>2012-05-12T14:38:36.456Z</time>
      </trkpt>
      <trkpt lat="47.23521" lon="-0.0181">
        <ele>48</ele>
        <time>2012-05-12T14:38:40.456Z</time>
      </trkpt>
      <trkpt lat="47.23525" lon="-0.01805">
        <ele>48</ele>
        <time>2012-05-12T14:38:44.456Z</time>
      </trkpt>
      <trkpt lat="47.23529" lon="-0.018">
        <ele>48</ele>
        <time>2012-05-12T14:38:48.456Z</time>
      </trkpt>
      <trkpt lat="47.23534" lon="-0.01795">
        <ele>48</ele>
        <time>2012-05-12T14:38:52.456Z</time>
      </trkpt>
      <trkpt lat="47.23538" lon="-0.01789">
        <ele>48</ele>
        <time>2012-05-12T14:38:56.456Z</time>
      </trkpt>
      <trkpt lat="47.23542" lon="-0.01784">
        <ele>48</ele>
        <time>2012-05-12T14:39:00.456Z</time>
      </trkpt>
      <trkpt lat="47.23545" lon="-0.01779">
        <ele>48</ele>
        <time>2012-05-12T14:39:04.456Z</time>
      </trkpt>
      <trkpt lat="47.23549" lon="-0.01774">
        <ele>48</ele>
        <time>2012-05-12T14:39:08.456Z</time>
      </trkpt>
      <trkpt lat="47.23553" lon="-0.0177">
        <ele>48</ele>
        <time>2012-05-12T14:39:12.456Z</time>
      </trkpt>
      <trkpt lat="47.23557" lon="-0.01767">
        <ele>48</ele>
        <time>2012-05-12T14:39:16.456Z</time>
      </trkpt>
      <trkpt lat="47.23562" lon="-0.01762">
        <ele>48</ele>
        <time>2012-05-12T14:39:21.456Z</time>
      </trkpt>
      <trkpt lat="47.23566" lon="-0.01757">
        <ele>49</ele>
        <time>2012-05-12T14:39:26.456Z</time>
      </trkpt>
      <trkpt lat="47.2357" lon="-0.01753">
        <ele>49</ele>
        <time>2012-05-12T14:39:30.456Z</time>
      </trkpt>
      <trkpt lat="47.23573" lon="-0.01749">
        <ele>48</ele>
        <time>2012-05-12T14:39:34.456Z</time>
      </trkpt>
      <trkpt lat="47.23577" lon="-0.01744">
        <ele>49</ele>
        <time>2012-05-12T14:39:38.456Z</time>
      </trkpt>
      <trkpt lat="47.23581" lon="-0.0174">
        <ele>49</ele>
        <time>2012-05-12T14:39:42.456Z</time>
      </trkpt>
      <trkpt lat="47.23585" lon="-0.01735">
        <ele>49</ele>
        <time>2012-05-12T14:39:46.456Z</time>
      </trkpt>
      <trkpt lat="47.23589" lon="-0.0173">
        <ele>49</ele>
        <time>2012-05-12T14:39:50.456Z</time>
      </trkpt>
      <trkpt lat="47.23593" lon="-0.01724">
        <ele>49</ele>
        <time>2012-05-12T14:39:54.456Z</time>
      </trkpt>
      <trkpt lat="47.23598" lon="-0.0172">
        <ele>49</ele>
        <time>2012-05-12T14:39:58.456Z</time>
      </trkpt>
      <trkpt lat="47.23602" lon="-0.01715">
        <ele>49</ele>
        <time>2012-05-12T14:40:02.456Z</time>
      </trkpt>
      <trkpt lat="47.23606" lon="-0.01712">
        <ele>49</ele>
        <time>2012-05-12T14:40:06.456Z</time>
      </trkpt>
      <trkpt lat="47.2361" lon="-0.01708">
        <ele>49</ele>
        <time>2012-05-12T14:40:10.456Z</time>
      </trkpt>
      <trkpt lat="47.23614" lon="-0.01705">
        <ele>49</ele>
        <time>2012-05-12T14:40:14.456Z</time>
      </trkpt>
      <trkpt lat="47.23618" lon="-0.01702">
        <ele>49</ele>
        <time>2012-05-12T14:40:18.456Z</time>
      </trkpt>
      <trkpt lat="47.23622" lon="-0.01698">
        <ele>49</ele>
        <time>2012-05-12T14:40:22.456Z</time>
      </trkpt>
      <trkpt lat="47.23626" lon="-0.01696">
        <ele>49</ele>
        <time>2012-05-12T14:40:26.456Z</time>
      </trkpt>
      <trkpt lat="47.23631" lon="-0.01692">
        <ele>49</ele>
        <time>2012-05-12T14:40:31.456Z</time>
      </trkpt>
      <trkpt lat="47.23635" lon="-0.0169">
        <ele>49</ele>
        <time>2012-05-12T14:40:35.456Z</time>
      </trkpt>
      <trkpt lat="47.23639" lon="-0.01687">
        <ele>49</ele>
        <time>2012-05-12T14:40:39.456Z</time>
      </trkpt>
      <trkpt lat="47.23643" lon="-0.01684">
        <ele>49</ele>
        <time>2012-05-12T14:40:43.456Z</time>
      </trkpt>
      <trkpt lat="47.23648" lon="-0.01681">
        <ele>49</ele>
        <time>2012-05-12T14:40:48.456Z</time>
      </trkpt>
      <trkpt lat="47.23653" lon="-0.01678">
        <ele>49</ele>
        <time>2012-05-12T14:40:53.456Z</time>
      </trkpt>
      <trkpt lat="47.23658" lon="-0.01675">
        <ele>49</ele>
        <time>2012-05-12T14:40:58.456Z</time>
      </trkpt>
      <trkpt lat="47.23662" lon="-0.01672">
        <ele>49</ele>
        <time>2012-05-12T14:41:02.456Z</time>
      </trkpt>
      <trkpt lat="47.23667" lon="-0.0167">
        <ele>49</ele>
        <time>2012-05-12T14:41:06.456Z</time>
      </trkpt>
      <trkpt lat="47.23671" lon="-0.01666">
        <ele>49</ele>
        <time>2012-05-12T14:41:10.456Z</time>
      </trkpt>
      <trkpt lat="47.23675" lon="-0.01663">
        <ele>49</ele>
        <time>2012-05-12T14:41:14.456Z</time>
      </trkpt>
      <trkpt lat="47.2368" lon="-0.01659">
        <ele>50</ele>
        <time>2012-05-12T14:41:18.456Z</time>
      </trkpt>
      <trkpt lat="47.23683" lon="-0.01655">
        <ele>50</ele>
        <time>2012-05-12T14:41:22.456Z</time>
      </trkpt>
      <trkpt lat="47.23688" lon="-0.01651">
        <ele>50</ele>
        <time>2012-05-12T14:41:27.456Z</time>
      </trkpt>
      <trkpt lat="47.23693" lon="-0.01648">
        <ele>50</ele>
        <time>2012-05-12T14:41:32.456Z</time>
      </trkpt>
      <trkpt lat="47.23698" lon="-0.01645">
        <ele>50</ele>
        <time>2012-05-12T14:41:36.456Z</time>
      </trkpt>
      <trkpt lat="47.23702" lon="-0.01642">
        <ele>50</ele>
        <time>2012-05-12T14:41:40.456Z</time>
      </trkpt>
      <trkpt lat="47.23706" lon="-0.01638">
        <ele>50</ele>
        <time>2012-05-12T14:41:44.456Z</time>
      </trkpt>
      <trkpt lat="47.23711" lon="-0.01635">
        <ele>51</ele>
        <time>2012-05-12T14:41:48.456Z</time>
      </trkpt>
      <trkpt lat="47.23714" lon="-0.01632">
        <ele>51</ele>
        <time>2012-05-12T14:41:52.456Z</time>
      </trkpt>
      <trkpt lat="47.23719" lon="-0.01627">
        <ele>51</ele>
        <time>2012-05-12T14:41:57.456Z</time>
      </trkpt>
      <trkpt lat="47.23721" lon="-0.01621">
        <ele>51</ele>
        <time>2012-05-12T14:42:02.456Z</time>
      </trkpt>
      <trkpt lat="47.23723" lon="-0.01615">
        <ele>51</ele>
        <time>2012-05-12T14:42:06.456Z</time>
      </trkpt>
      <trkpt lat="47.23727" lon="-0.01609">
        <ele>51</ele>
        <time>2012-05-12T14:42:11.456Z</time>
      </trkpt>
      <trkpt lat="47.23731" lon="-0.01605">
        <ele>51</ele>
        <time>2012-05-12T14:42:15.456Z</time>
      </trkpt>
      <trkpt lat="47.23735" lon="-0.01601">
        <ele>51</ele>
        <time>2012-05-12T14:42:20.456Z</time>
      </trkpt>
      <trkpt lat="47.2374" lon="-0.01598">
        <ele>51</ele>
        <time>2012-05-12T14:42:25.456Z</time>
      </trkpt>
      <trkpt lat="47.23745" lon="-0.01595">
        <ele>51</ele>
        <time>2012-05-12T14:42:30.456Z</time>
      </trkpt>
      <trkpt lat="47.23749" lon="-0.01592">
        <ele>51</ele>
        <time>2012-05-12T14:42:34.456Z</time>
      </trkpt>
      <trkpt lat="47.23753" lon="-0.01589">
        <ele>51</ele>
        <time>2012-05-12T14:42:38.456Z</time>
      </trkpt>
      <trkpt lat="47.23758" lon="-0.01586">
        <ele>51</ele>
        <time>2012-05-12T14:42:43.456Z</time>
      </trkpt>
      <trkpt lat="47.23762" lon="-0.01583">
        <ele>51</ele>
        <time>2012-05-12T14:42:48.456Z</time>
      </trkpt>
      <trkpt lat="47.23767" lon="-0.01578">
        <ele>51</ele>
        <time>2012-05-12T14:42:53.456Z</time>
      </trkpt>
      <trkpt lat="47.2377" lon="-0.01572">
        <ele>50</ele>
        <time>2012-05-12T14:42:57.456Z</time>
      </trkpt>
      <trkpt lat="47.23772" lon="-0.01564">
        <ele>50</ele>
        <time>2012-05-12T14:43:01.456Z</time>
      </trkpt>
      <trkpt lat="47.23774" lon="-0.01556">
        <ele>50</ele>
        <time>2012-05-12T14:43:05.456Z</time>
      </trkpt>
      <trkpt lat="47.23773" lon="-0.01548">
        <ele>50</ele>
        <time>2012-05-12T14:43:09.456Z</time>
      </trkpt>
      <trkpt lat="47.23772" lon="-0.0154">
        <ele>50</ele>
        <time>2012-05-12T14:43:14.456Z</time>
      </trkpt>
      <trkpt lat="47.23771" lon="-0.01532">
        <ele>50</ele>
        <time>2012-05-12T14:43:19.456Z</time>
      </trkpt>
      <trkpt lat="47.2377" lon="-0.01526">
        <ele>50</ele>
        <time>2012-05-12T14:43:23.456Z</time>
      </trkpt>
      <trkpt lat="47.23768" lon="-0.01519">
        <ele>51</ele>
        <time>2012-05-12T14:43:27.456Z</time>
      </trkpt>
      <trkpt lat="47.23765" lon="-0.01513">
        <ele>51</ele>
        <time>2012-05-12T14:43:31.456Z</time>
      </trkpt>
      <trkpt lat="47.23762" lon="-0.01507">
        <ele>51</ele>
        <time>2012-05-12T14:43:35.456Z</time>
      </trkpt>
      <trkpt lat="47.23759" lon="-0.01502">
        <ele>51</ele>
        <time>2012-05-12T14:43:39.456Z</time>
      </trkpt>
      <trkpt lat="47.23756" lon="-0.01495">
        <ele>51</ele>
        <time>2012-05-12T14:43:44.456Z</time>
      </trkpt>
      <trkpt lat="47.23753" lon="-0.01489">
        <ele>51</ele>
        <time>2012-05-12T14:43:49.456Z</time>
      </trkpt>
      <trkpt lat="47.23756" lon="-0.01482">
        <ele>50</ele>
        <time>2012-05-12T14:43:56.456Z</time>
      </trkpt>
      <trkpt lat="47.23761" lon="-0.01479">
        <ele>50</ele>
        <time>2012-05-12T14:44:01.456Z</time>
      </trkpt>
      <trkpt lat="47.23765" lon="-0.01475">
        <ele>50</ele>
        <time>2012-05-12T14:44:06.456Z</time>
      </trkpt>
      <trkpt lat="47.2377" lon="-0.01472">
        <ele>49</ele>
        <time>2012-05-12T14:44:11.456Z</time>
      </trkpt>
      <trkpt lat="47.23775" lon="-0.01468">
        <ele>49</ele>
        <time>2012-05-12T14:44:16.456Z</time>
      </trkpt>
      <trkpt lat="47.2378" lon="-0.01466">
        <ele>49</ele>
        <time>2012-05-12T14:44:21.456Z</time>
      </trkpt>
      <trkpt lat="47.23784" lon="-0.01463">
        <ele>49</ele>
        <time>2012-05-12T14:44:26.456Z</time>
      </trkpt>
      <trkpt lat="47.23788" lon="-0.0146">
        <ele>49</ele>
        <time>2012-05-12T14:44:31.456Z</time>
      </trkpt>
      <trkpt lat="47.23793" lon="-0.01456">
        <ele>48</ele>
        <time>2012-05-12T14:44:36.456Z</time>
      </trkpt>
      <trkpt lat="47.23797" lon="-0.01452">
        <ele>48</ele>
        <time>2012-05-12T14:44:40.456Z</time>
      </trkpt>
      <trkpt lat="47.238" lon="-0.01448">
        <ele>48</ele>
        <time>2012-05-12T14:44:44.456Z</time>
      </trkpt>
      <trkpt lat="47.23805" lon="-0.01444">
        <ele>48</ele>
        <time>2012-05-12T14:44:49.456Z</time>
      </trkpt>
      <trkpt lat="47.23809" lon="-0.01441">
        <ele>47</ele>
        <time>2012-05-12T14:44:53.456Z</time>
      </trkpt>
      <trkpt lat="47.23814" lon="-0.01437">
        <ele>47</ele>
        <time>2012-05-12T14:44:58.456Z</time>
      </trkpt>
      <trkpt lat="47.23819" lon="-0.01432">
        <ele>47</ele>
        <time>2012-05-12T14:45:03.456Z</time>
      </trkpt>
      <trkpt lat="47.23823" lon="-0.01428">
        <ele>46</ele>
        <time>2012-05-12T14:45:08.456Z</time>
      </trkpt>
      <trkpt lat="47.23828" lon="-0.01424">
        <ele>45</ele>
        <time>2012-05-12T14:45:13.456Z</time>
      </trkpt>
      <trkpt lat="47.23831" lon="-0.01394">
        <ele>46</ele>
        <time>2012-05-12T14:45:46.456Z</time>
      </trkpt>
      <trkpt lat="47.23824" lon="-0.01427">
        <ele>46</ele>
        <time>2012-05-12T14:45:47.456Z</time>
      </trkpt>
      <trkpt lat="47.23824" lon="-0.01427">
        <ele>46</ele>
        <time>2012-05-12T14:45:47.456Z</time>
      </trkpt>
      <trkpt lat="47.23824" lon="-0.01427">
        <ele>46</ele>
        <time>2012-05-12T14:45:48.456Z</time>
      </trkpt>
      <trkpt lat="47.23825" lon="-0.01418">
        <ele>45</ele>
        <time>2012-05-12T14:45:51.456Z</time>
      </trkpt>
      <trkpt lat="47.23833" lon="-0.01403">
        <ele>45</ele>
        <time>2012-05-12T14:46:01.456Z</time>
      </trkpt>
      <trkpt lat="47.23837" lon="-0.01396">
        <ele>40</ele>
        <time>2012-05-12T14:46:03.456Z</time>
      </trkpt>
      <trkpt lat="47.23844" lon="-0.01392">
        <ele>39</ele>
        <time>2012-05-12T14:46:05.456Z</time>
      </trkpt>
      <trkpt lat="47.23853" lon="-0.01394">
        <ele>38</ele>
        <time>2012-05-12T14:46:07.456Z</time>
      </trkpt>
      <trkpt lat="47.23858" lon="-0.01393">
        <ele>38</ele>
        <time>2012-05-12T14:46:10.456Z</time>
      </trkpt>
      <trkpt lat="47.23859" lon="-0.01386">
        <ele>38</ele>
        <time>2012-05-12T14:46:17.456Z</time>
      </trkpt>
      <trkpt lat="47.23856" lon="-0.0138">
        <ele>38</ele>
        <time>2012-05-12T14:46:24.456Z</time>
      </trkpt>
      <trkpt lat="47.23855" lon="-0.01373">
        <ele>38</ele>
        <time>2012-05-12T14:46:29.456Z</time>
      </trkpt>
      <trkpt lat="47.23853" lon="-0.01367">
        <ele>38</ele>
        <time>2012-05-12T14:46:34.456Z</time>
      </trkpt>
      <trkpt lat="47.23851" lon="-0.0136">
        <ele>38</ele>
        <time>2012-05-12T14:46:39.456Z</time>
      </trkpt>
      <trkpt lat="47.2385" lon="-0.01352">
        <ele>39</ele>
        <time>2012-05-12T14:46:44.456Z</time>
      </trkpt>
      <trkpt lat="47.2385" lon="-0.01345">
        <ele>39</ele>
        <time>2012-05-12T14:46:48.456Z</time>
      </trkpt>
      <trkpt lat="47.23849" lon="-0.01338">
        <ele>39</ele>
        <time>2012-05-12T14:46:52.456Z</time>
      </trkpt>
      <trkpt lat="47.23849" lon="-0.0133">
        <ele>39</ele>
        <time>2012-05-12T14:46:57.456Z</time>
      </trkpt>
      <trkpt lat="47.23848" lon="-0.01322">
        <ele>38</ele>
        <time>2012-05-12T14:47:02.456Z</time>
      </trkpt>
      <trkpt lat="47.23847" lon="-0.01315">
        <ele>38</ele>
        <time>2012-05-12T14:47:07.456Z</time>
      </trkpt>
      <trkpt lat="47.23846" lon="-0.01307">
        <ele>37</ele>
        <time>2012-05-12T14:47:12.456Z</time>
      </trkpt>
      <trkpt lat="47.23845" lon="-0.01299">
        <ele>37</ele>
        <time>2012-05-12T14:47:17.456Z</time>
      </trkpt>
      <trkpt lat="47.23844" lon="-0.01292">
        <ele>37</ele>
        <time>2012-05-12T14:47:22.456Z</time>
      </trkpt>
      <trkpt lat="47.23843" lon="-0.01284">
        <ele>36</ele>
        <time>2012-05-12T14:47:27.456Z</time>
      </trkpt>
      <trkpt lat="47.23841" lon="-0.01276">
        <ele>37</ele>
        <time>2012-05-12T14:47:32.456Z</time>
      </trkpt>
      <trkpt lat="47.23839" lon="-0.01269">
        <ele>37</ele>
        <time>2012-05-12T14:47:36.456Z</time>
      </trkpt>
      <trkpt lat="47.23837" lon="-0.01261">
        <ele>37</ele>
        <time>2012-05-12T14:47:40.456Z</time>
      </trkpt>
      <trkpt lat="47.23835" lon="-0.01254">
        <ele>38</ele>
        <time>2012-05-12T14:47:44.456Z</time>
      </trkpt>
      <trkpt lat="47.23834" lon="-0.01246">
        <ele>38</ele>
        <time>2012-05-12T14:47:49.456Z</time>
      </trkpt>
      <trkpt lat="47.23832" lon="-0.01239">
        <ele>40</ele>
        <time>2012-05-12T14:47:54.456Z</time>
      </trkpt>
      <trkpt lat="47.2383" lon="-0.01232">
        <ele>40</ele>
        <time>2012-05-12T14:47:59.456Z</time>
      </trkpt>
      <trkpt lat="47.23829" lon="-0.01225">
        <ele>40</ele>
        <time>2012-05-12T14:48:03.456Z</time>
      </trkpt>
      <trkpt lat="47.23827" lon="-0.01218">
        <ele>39</ele>
        <time>2012-05-12T14:48:08.456Z</time>
      </trkpt>
      <trkpt lat="47.23826" lon="-0.0121">
        <ele>39</ele>
        <time>2012-05-12T14:48:13.456Z</time>
      </trkpt>
      <trkpt lat="47.23825" lon="-0.01203">
        <ele>38</ele>
        <time>2012-05-12T14:48:18.456Z</time>
      </trkpt>
      <trkpt lat="47.23823" lon="-0.01196">
        <ele>38</ele>
        <time>2012-05-12T14:48:23.456Z</time>
      </trkpt>
      <trkpt lat="47.2382" lon="-0.01189">
        <ele>37</ele>
        <time>2012-05-12T14:48:28.456Z</time>
      </trkpt>
      <trkpt lat="47.23818" lon="-0.01181">
        <ele>36</ele>
        <time>2012-05-12T14:48:33.456Z</time>
      </trkpt>
      <trkpt lat="47.23816" lon="-0.01174">
        <ele>36</ele>
        <time>2012-05-12T14:48:37.456Z</time>
      </trkpt>
      <trkpt lat="47.23814" lon="-0.01168">
        <ele>36</ele>
        <time>2012-05-12T14:48:41.456Z</time>
      </trkpt>
      <trkpt lat="47.23813" lon="-0.0116">
        <ele>34</ele>
        <time>2012-05-12T14:48:46.456Z</time>
      </trkpt>
      <trkpt lat="47.23812" lon="-0.01152">
        <ele>34</ele>
        <time>2012-05-12T14:48:51.456Z</time>
      </trkpt>
      <trkpt lat="47.2381" lon="-0.01146">
        <ele>35</ele>
        <time>2012-05-12T14:48:56.456Z</time>
      </trkpt>
      <trkpt lat="47.23808" lon="-0.01138">
        <ele>35</ele>
        <time>2012-05-12T14:49:01.456Z</time>
      </trkpt>
      <trkpt lat="47.23807" lon="-0.01132">
        <ele>35</ele>
        <time>2012-05-12T14:49:06.456Z</time>
      </trkpt>
      <trkpt lat="47.23806" lon="-0.01125">
        <ele>35</ele>
        <time>2012-05-12T14:49:12.456Z</time>
      </trkpt>
      <trkpt lat="47.23805" lon="-0.01117">
        <ele>35</ele>
        <time>2012-05-12T14:49:18.456Z</time>
      </trkpt>
      <trkpt lat="47.23805" lon="-0.0111">
        <ele>35</ele>
        <time>2012-05-12T14:49:23.456Z</time>
      </trkpt>
      <trkpt lat="47.23805" lon="-0.01102">
        <ele>34</ele>
        <time>2012-05-12T14:49:28.456Z</time>
      </trkpt>
      <trkpt lat="47.23803" lon="-0.01097">
        <ele>34</ele>
        <time>2012-05-12T14:49:32.456Z</time>
      </trkpt>
      <trkpt lat="47.238" lon="-0.01091">
        <ele>35</ele>
        <time>2012-05-12T14:49:36.456Z</time>
      </trkpt>
      <trkpt lat="47.23798" lon="-0.01084">
        <ele>35</ele>
        <time>2012-05-12T14:49:41.456Z</time>
      </trkpt>
      <trkpt lat="47.23796" lon="-0.01078">
        <ele>33</ele>
        <time>2012-05-12T14:49:46.456Z</time>
      </trkpt>
      <trkpt lat="47.23794" lon="-0.0107">
        <ele>33</ele>
        <time>2012-05-12T14:49:52.456Z</time>
      </trkpt>
      <trkpt lat="47.23792" lon="-0.01064">
        <ele>33</ele>
        <time>2012-05-12T14:49:57.456Z</time>
      </trkpt>
      <trkpt lat="47.23789" lon="-0.01057">
        <ele>34</ele>
        <time>2012-05-12T14:50:02.456Z</time>
      </trkpt>
      <trkpt lat="47.23786" lon="-0.01051">
        <ele>34</ele>
        <time>2012-05-12T14:50:07.456Z</time>
      </trkpt>
      <trkpt lat="47.23782" lon="-0.01046">
        <ele>34</ele>
        <time>2012-05-12T14:50:12.456Z</time>
      </trkpt>
      <trkpt lat="47.23777" lon="-0.01041">
        <ele>34</ele>
        <time>2012-05-12T14:50:17.456Z</time>
      </trkpt>
      <trkpt lat="47.23773" lon="-0.01037">
        <ele>34</ele>
        <time>2012-05-12T14:50:22.456Z</time>
      </trkpt>
      <trkpt lat="47.23768" lon="-0.01033">
        <ele>34</ele>
        <time>2012-05-12T14:50:27.456Z</time>
      </trkpt>
      <trkpt lat="47.23763" lon="-0.0103">
        <ele>34</ele>
        <time>2012-05-12T14:50:31.456Z</time>
      </trkpt>
      <trkpt lat="47.23759" lon="-0.01027">
        <ele>34</ele>
        <time>2012-05-12T14:50:35.456Z</time>
      </trkpt>
      <trkpt lat="47.23755" lon="-0.01024">
        <ele>34</ele>
        <time>2012-05-12T14:50:39.456Z</time>
      </trkpt>
      <trkpt lat="47.2375" lon="-0.01021">
        <ele>38</ele>
        <time>2012-05-12T14:50:43.456Z</time>
      </trkpt>
      <trkpt lat="47.23745" lon="-0.01018">
        <ele>38</ele>
        <time>2012-05-12T14:50:48.456Z</time>
      </trkpt>
      <trkpt lat="47.23741" lon="-0.01014">
        <ele>38</ele>
        <time>2012-05-12T14:50:53.456Z</time>
      </trkpt>
      <trkpt lat="47.23737" lon="-0.0101">
        <ele>38</ele>
        <time>2012-05-12T14:50:59.456Z</time>
      </trkpt>
      <trkpt lat="47.23733" lon="-0.01004">
        <ele>38</ele>
        <time>2012-05-12T14:51:05.456Z</time>
      </trkpt>
      <trkpt lat="47.2373" lon="-0.00999">
        <ele>36</ele>
        <time>2012-05-12T14:51:11.456Z</time>
      </trkpt>
      <trkpt lat="47.23727" lon="-0.00994">
        <ele>36</ele>
        <time>2012-05-12T14:51:17.456Z</time>
      </trkpt>
      <trkpt lat="47.23724" lon="-0.00988">
        <ele>36</ele>
        <time>2012-05-12T14:51:23.456Z</time>
      </trkpt>
      <trkpt lat="47.2372" lon="-0.00984">
        <ele>36</ele>
        <time>2012-05-12T14:51:28.456Z</time>
      </trkpt>
      <trkpt lat="47.23719" lon="-0.00977">
        <ele>36</ele>
        <time>2012-05-12T14:51:32.456Z</time>
      </trkpt>
      <trkpt lat="47.23719" lon="-0.00968">
        <ele>36</ele>
        <time>2012-05-12T14:51:35.456Z</time>
      </trkpt>
      <trkpt lat="47.23719" lon="-0.00959">
        <ele>36</ele>
        <time>2012-05-12T14:51:37.456Z</time>
      </trkpt>
      <trkpt lat="47.23718" lon="-0.00949">
        <ele>35</ele>
        <time>2012-05-12T14:51:40.456Z</time>
      </trkpt>
      <trkpt lat="47.23718" lon="-0.00942">
        <ele>35</ele>
        <time>2012-05-12T14:51:43.456Z</time>
      </trkpt>
      <trkpt lat="47.23716" lon="-0.00935">
        <ele>35</ele>
        <time>2012-05-12T14:51:47.456Z</time>
      </trkpt>
      <trkpt lat="47.23714" lon="-0.00928">
        <ele>35</ele>
        <time>2012-05-12T14:51:52.456Z</time>
      </trkpt>
      <trkpt lat="47.23712" lon="-0.00921">
        <ele>35</ele>
        <time>2012-05-12T14:51:57.456Z</time>
      </trkpt>
      <trkpt lat="47.23708" lon="-0.00915">
        <ele>32</ele>
        <time>2012-05-12T14:52:02.456Z</time>
      </trkpt>
      <trkpt lat="47.23704" lon="-0.00909">
        <ele>33</ele>
        <time>2012-05-12T14:52:07.456Z</time>
      </trkpt>
      <trkpt lat="47.23701" lon="-0.00904">
        <ele>33</ele>
        <time>2012-05-12T14:52:14.456Z</time>
      </trkpt>
      <trkpt lat="47.23697" lon="-0.009">
        <ele>33</ele>
        <time>2012-05-12T14:52:22.456Z</time>
      </trkpt>
      <trkpt lat="47.23692" lon="-0.00897">
        <ele>33</ele>
        <time>2012-05-12T14:52:28.456Z</time>
      </trkpt>
      <trkpt lat="47.23688" lon="-0.00893">
        <ele>33</ele>
        <time>2012-05-12T14:52:32.456Z</time>
      </trkpt>
      <trkpt lat="47.23683" lon="-0.00889">
        <ele>33</ele>
        <time>2012-05-12T14:52:36.456Z</time>
      </trkpt>
      <trkpt lat="47.23679" lon="-0.00885">
        <ele>33</ele>
        <time>2012-05-12T14:52:40.456Z</time>
      </trkpt>
      <trkpt lat="47.23674" lon="-0.00882">
        <ele>33</ele>
        <time>2012-05-12T14:52:44.456Z</time>
      </trkpt>
      <trkpt lat="47.2367" lon="-0.00879">
        <ele>33</ele>
        <time>2012-05-12T14:52:48.456Z</time>
      </trkpt>
      <trkpt lat="47.23666" lon="-0.00875">
        <ele>35</ele>
        <time>2012-05-12T14:52:52.456Z</time>
      </trkpt>
      <trkpt lat="47.23661" lon="-0.0087">
        <ele>35</ele>
        <time>2012-05-12T14:52:57.456Z</time>
      </trkpt>
      <trkpt lat="47.23657" lon="-0.00865">
        <ele>35</ele>
        <time>2012-05-12T14:53:02.456Z</time>
      </trkpt>
      <trkpt lat="47.23654" lon="-0.0086">
        <ele>35</ele>
        <time>2012-05-12T14:53:06.456Z</time>
      </trkpt>
      <trkpt lat="47.2365" lon="-0.00853">
        <ele>34</ele>
        <time>2012-05-12T14:53:10.456Z</time>
      </trkpt>
      <trkpt lat="47.23647" lon="-0.00848">
        <ele>34</ele>
        <time>2012-05-12T14:53:14.456Z</time>
      </trkpt>
      <trkpt lat="47.23643" lon="-0.00844">
        <ele>34</ele>
        <time>2012-05-12T14:53:18.456Z</time>
      </trkpt>
      <trkpt lat="47.23639" lon="-0.0084">
        <ele>34</ele>
        <time>2012-05-12T14:53:22.456Z</time>
      </trkpt>
      <trkpt lat="47.23636" lon="-0.00835">
        <ele>34</ele>
        <time>2012-05-12T14:53:26.456Z</time>
      </trkpt>
      <trkpt lat="47.23631" lon="-0.00831">
        <ele>32</ele>
        <time>2012-05-12T14:53:30.456Z</time>
      </trkpt>
      <trkpt lat="47.23627" lon="-0.00827">
        <ele>32</ele>
        <time>2012-05-12T14:53:34.456Z</time>
      </trkpt>
      <trkpt lat="47.23624" lon="-0.00823">
        <ele>32</ele>
        <time>2012-05-12T14:53:38.456Z</time>
      </trkpt>
      <trkpt lat="47.23621" lon="-0.00817">
        <ele>32</ele>
        <time>2012-05-12T14:53:42.456Z</time>
      </trkpt>
      <trkpt lat="47.23619" lon="-0.00811">
        <ele>32</ele>
        <time>2012-05-12T14:53:46.456Z</time>
      </trkpt>
      <trkpt lat="47.23616" lon="-0.00804">
        <ele>32</ele>
        <time>2012-05-12T14:53:51.456Z</time>
      </trkpt>
      <trkpt lat="47.23613" lon="-0.00798">
        <ele>32</ele>
        <time>2012-05-12T14:53:56.456Z</time>
      </trkpt>
      <trkpt lat="47.23609" lon="-0.00792">
        <ele>32</ele>
        <time>2012-05-12T14:54:01.456Z</time>
      </trkpt>
      <trkpt lat="47.23606" lon="-0.00786">
        <ele>32</ele>
        <time>2012-05-12T14:54:06.456Z</time>
      </trkpt>
      <trkpt lat="47.23602" lon="-0.00781">
        <ele>32</ele>
        <time>2012-05-12T14:54:11.456Z</time>
      </trkpt>
      <trkpt lat="47.23599" lon="-0.00776">
        <ele>32</ele>
        <time>2012-05-12T14:54:16.456Z</time>
      </trkpt>
      <trkpt lat="47.23596" lon="-0.0077">
        <ele>32</ele>
        <time>2012-05-12T14:54:21.456Z</time>
      </trkpt>
      <trkpt lat="47.23594" lon="-0.00763">
        <ele>32</ele>
        <time>2012-05-12T14:54:26.456Z</time>
      </trkpt>
      <trkpt lat="47.2359" lon="-0.00759">
        <ele>33</ele>
        <time>2012-05-12T14:54:31.456Z</time>
      </trkpt>
      <trkpt lat="47.23587" lon="-0.00754">
        <ele>33</ele>
        <time>2012-05-12T14:54:36.456Z</time>
      </trkpt>
      <trkpt lat="47.23582" lon="-0.0075">
        <ele>33</ele>
        <time>2012-05-12T14:54:41.456Z</time>
      </trkpt>
      <trkpt lat="47.23578" lon="-0.00746">
        <ele>33</ele>
        <time>2012-05-12T14:54:46.456Z</time>
      </trkpt>
      <trkpt lat="47.23574" lon="-0.00742">
        <ele>34</ele>
        <time>2012-05-12T14:54:51.456Z</time>
      </trkpt>
      <trkpt lat="47.2357" lon="-0.00738">
        <ele>34</ele>
        <time>2012-05-12T14:54:56.456Z</time>
      </trkpt>
      <trkpt lat="47.23565" lon="-0.00735">
        <ele>34</ele>
        <time>2012-05-12T14:55:00.456Z</time>
      </trkpt>
      <trkpt lat="47.23561" lon="-0.00732">
        <ele>34</ele>
        <time>2012-05-12T14:55:04.456Z</time>
      </trkpt>
      <trkpt lat="47.23557" lon="-0.00728">
        <ele>34</ele>
        <time>2012-05-12T14:55:08.456Z</time>
      </trkpt>
      <trkpt lat="47.23554" lon="-0.00723">
        <ele>34</ele>
        <time>2012-05-12T14:55:12.456Z</time>
      </trkpt>
      <trkpt lat="47.2355" lon="-0.00718">
        <ele>35</ele>
        <time>2012-05-12T14:55:17.456Z</time>
      </trkpt>
      <trkpt lat="47.23548" lon="-0.00711">
        <ele>35</ele>
        <time>2012-05-12T14:55:22.456Z</time>
      </trkpt>
      <trkpt lat="47.23546" lon="-0.00704">
        <ele>35</ele>
        <time>2012-05-12T14:55:27.456Z</time>
      </trkpt>
      <trkpt lat="47.23545" lon="-0.00698">
        <ele>35</ele>
        <time>2012-05-12T14:55:32.456Z</time>
      </trkpt>
      <trkpt lat="47.23546" lon="-0.00691">
        <ele>35</ele>
        <time>2012-05-12T14:55:38.456Z</time>
      </trkpt>
      <trkpt lat="47.2355" lon="-0.00688">
        <ele>35</ele>
        <time>2012-05-12T14:55:43.456Z</time>
      </trkpt>
      <trkpt lat="47.23554" lon="-0.00685">
        <ele>34</ele>
        <time>2012-05-12T14:55:46.456Z</time>
      </trkpt>
      <trkpt lat="47.23558" lon="-0.00683">
        <ele>34</ele>
        <time>2012-05-12T14:55:49.456Z</time>
      </trkpt>
      <trkpt lat="47.23562" lon="-0.0068">
        <ele>34</ele>
        <time>2012-05-12T14:55:52.456Z</time>
      </trkpt>
      <trkpt lat="47.23567" lon="-0.00676">
        <ele>34</ele>
        <time>2012-05-12T14:55:55.456Z</time>
      </trkpt>
      <trkpt lat="47.23571" lon="-0.00671">
        <ele>34</ele>
        <time>2012-05-12T14:55:59.456Z</time>
      </trkpt>
      <trkpt lat="47.23575" lon="-0.00665">
        <ele>34</ele>
        <time>2012-05-12T14:56:03.456Z</time>
      </trkpt>
      <trkpt lat="47.23578" lon="-0.00659">
        <ele>34</ele>
        <time>2012-05-12T14:56:07.456Z</time>
      </trkpt>
      <trkpt lat="47.23578" lon="-0.00651">
        <ele>34</ele>
        <time>2012-05-12T14:56:11.456Z</time>
      </trkpt>
      <trkpt lat="47.23578" lon="-0.00643">
        <ele>35</ele>
        <time>2012-05-12T14:56:15.456Z</time>
      </trkpt>
      <trkpt lat="47.23577" lon="-0.00636">
        <ele>35</ele>
        <time>2012-05-12T14:56:18.456Z</time>
      </trkpt>
      <trkpt lat="47.23575" lon="-0.00629">
        <ele>35</ele>
        <time>2012-05-12T14:56:21.456Z</time>
      </trkpt>
      <trkpt lat="47.23574" lon="-0.0062">
        <ele>35</ele>
        <time>2012-05-12T14:56:24.456Z</time>
      </trkpt>
      <trkpt lat="47.23572" lon="-0.00612">
        <ele>35</ele>
        <time>2012-05-12T14:56:27.456Z</time>
      </trkpt>
      <trkpt lat="47.23569" lon="-0.00606">
        <ele>35</ele>
        <time>2012-05-12T14:56:30.456Z</time>
      </trkpt>
      <trkpt lat="47.23566" lon="-0.006">
        <ele>35</ele>
        <time>2012-05-12T14:56:33.456Z</time>
      </trkpt>
      <trkpt lat="47.23563" lon="-0.00594">
        <ele>35</ele>
        <time>2012-05-12T14:56:37.456Z</time>
      </trkpt>
      <trkpt lat="47.23559" lon="-0.0059">
        <ele>35</ele>
        <time>2012-05-12T14:56:41.456Z</time>
      </trkpt>
      <trkpt lat="47.23554" lon="-0.00585">
        <ele>36</ele>
        <time>2012-05-12T14:56:46.456Z</time>
      </trkpt>
    </trkseg>
  </trk>
</gpx>